Time,TemperatureF,DewpointF,PressureIn,WindDirection,WindDirectionDegrees,WindSpeedMPH,WindSpeedGustMPH,Humidity,HourlyPrecipIn,Conditions,Clouds,dailyrainin,SolarRadiationWatts/m^2,SoftwareType,DateUTC
2013-02-21 00:00:00,52.2,38.8,29.97,East,90,0.0,0.0,60,0.00,,,0.00,0.00,VWS V14.00,2013-02-21 06:00:00,
2013-02-21 00:01:00,52.2,38.8,29.97,SE,126,0.0,0.0,60,0.00,,,0.00,0.00,VWS V14.00,2013-02-21 06:01:00,
2013-02-21 00:02:00,52.2,38.8,29.97,East,84,0.0,0.0,60,0.00,,,0.00,0.00,VWS V14.00,2013-02-21 06:02:00,
2013-02-21 00:03:00,52.2,38.8,29.97,SE,128,0.0,0.0,60,0.00,,,0.00,0.00,VWS V14.00,2013-02-21 06:03:00,
2013-02-21 00:04:00,52.2,38.8,29.97,SE,124,0.0,0.0,60,0.00,,,0.00,0.00,VWS V14.00,2013-02-21 06:04:00,
2013-02-21 00:05:00,52.2,38.8,29.97,ESE,121,0.0,0.0,60,0.00,,,0.00,0.00,VWS V14.00,2013-02-21 06:05:00,
2013-02-21 00:06:00,52.2,38.8,29.97,ENE,67,0.0,0.0,60,0.00,,,0.00,0.00,VWS V14.00,2013-02-21 06:06:00,
2013-02-21 00:07:00,52.2,38.8,29.97,SE,134,0.0,0.0,60,0.00,,,0.00,0.00,VWS V14.00,2013-02-21 06:07:00,
2013-02-21 00:08:00,52.2,38.8,29.97,SSE,163,0.0,0.0,60,0.00,,,0.00,0.00,VWS V14.00,2013-02-21 06:08:00,
2013-02-21 00:09:00,52.2,38.8,29.97,ENE,77,0.0,0.0,60,0.00,,,0.00,0.00,VWS V14.00,2013-02-21 06:09:00,
2013-02-21 00:10:00,52.2,38.8,29.97,ENE,77,0.0,0.0,60,0.00,,,0.00,0.00,VWS V14.00,2013-02-21 06:10:00,
2013-02-21 00:11:00,52.2,38.8,29.97,ENE,77,0.0,0.0,60,0.00,,,0.00,0.00,VWS V14.00,2013-02-21 06:11:00,
2013-02-21 00:12:00,52.2,38.8,29.97,East,86,0.0,0.0,60,0.00,,,0.00,0.00,VWS V14.00,2013-02-21 06:12:00,
2013-02-21 00:13:00,52.2,39.2,29.97,East,84,0.0,0.0,61,0.00,,,0.00,0.00,VWS V14.00,2013-02-21 06:13:00,
2013-02-21 00:14:00,52.2,39.2,29.97,ENE,65,0.0,0.0,61,0.00,,,0.00,0.00,VWS V14.00,2013-02-21 06:14:00,
2013-02-21 00:15:00,52.2,39.2,29.97,ENE,64,0.0,0.0,61,0.00,,,0.00,0.00,VWS V14.00,2013-02-21 06:15:00,
2013-02-21 00:16:00,52.2,39.2,29.97,ENE,65,0.0,0.0,61,0.00,,,0.00,0.00,VWS V14.00,2013-02-21 06:16:00,
2013-02-21 00:17:00,52.2,39.2,29.97,ESE,110,0.0,0.0,61,0.00,,,0.00,0.00,VWS V14.00,2013-02-21 06:17:00,
2013-02-21 00:18:00,52.2,39.2,29.97,ENE,75,0.0,0.0,61,0.00,,,0.00,0.00,VWS V14.00,2013-02-21 06:18:00,
2013-02-21 00:19:00,52.2,39.2,29.97,East,82,0.0,0.0,61,0.00,,,0.00,0.00,VWS V14.00,2013-02-21 06:19:00,
2013-02-21 00:20:00,52.2,39.2,29.97,East,84,0.0,0.0,61,0.00,,,0.00,0.00,VWS V14.00,2013-02-21 06:20:00,
2013-02-21 00:21:00,52.2,39.6,29.97,East,84,0.0,0.0,62,0.00,,,0.00,0.00,VWS V14.00,2013-02-21 06:21:00,
2013-02-21 00:22:00,52.0,39.4,29.97,ESE,115,0.0,0.0,62,0.00,,,0.00,0.00,VWS V14.00,2013-02-21 06:22:00,
2013-02-21 00:23:00,52.0,39.4,29.97,NE,51,0.0,0.0,62,0.00,,,0.00,0.00,VWS V14.00,2013-02-21 06:23:00,
2013-02-21 00:24:00,52.0,39.8,29.97,East,79,0.0,0.0,63,0.00,,,0.00,0.00,VWS V14.00,2013-02-21 06:24:00,
2013-02-21 00:25:00,52.0,39.8,29.97,East,79,0.0,0.0,63,0.00,,,0.00,0.00,VWS V14.00,2013-02-21 06:25:00,
2013-02-21 00:26:00,52.0,39.8,29.97,ENE,78,0.0,0.0,63,0.00,,,0.00,0.00,VWS V14.00,2013-02-21 06:26:00,
2013-02-21 00:27:00,52.0,39.8,29.97,ENE,67,0.0,0.0,63,0.00,,,0.00,0.00,VWS V14.00,2013-02-21 06:27:00,
2013-02-21 00:28:00,52.0,39.8,29.97,ENE,74,0.0,0.0,63,0.00,,,0.00,0.00,VWS V14.00,2013-02-21 06:28:00,
2013-02-21 00:29:00,52.0,40.2,29.97,NE,45,0.0,0.0,64,0.00,,,0.00,0.00,VWS V14.00,2013-02-21 06:29:00,
2013-02-21 00:30:00,51.9,40.1,29.97,SE,140,0.0,0.0,64,0.00,,,0.00,0.00,VWS V14.00,2013-02-21 06:30:00,
2013-02-21 00:31:00,51.9,40.1,29.97,ENE,60,0.0,0.0,64,0.00,,,0.00,0.00,VWS V14.00,2013-02-21 06:31:00,
2013-02-21 00:32:00,51.9,40.1,29.97,ENE,59,0.0,0.0,64,0.00,,,0.00,0.00,VWS V14.00,2013-02-21 06:32:00,
2013-02-21 00:33:00,51.9,40.5,29.97,ENE,59,0.0,0.0,65,0.00,,,0.00,0.00,VWS V14.00,2013-02-21 06:33:00,
2013-02-21 00:34:00,51.9,40.5,29.97,ENE,70,0.0,0.0,65,0.00,,,0.00,0.00,VWS V14.00,2013-02-21 06:34:00,
2013-02-21 00:35:00,51.9,40.5,29.97,East,82,0.0,0.0,65,0.00,,,0.00,0.00,VWS V14.00,2013-02-21 06:35:00,
2013-02-21 00:36:00,51.9,40.9,29.97,East,83,0.0,0.0,66,0.00,,,0.00,0.00,VWS V14.00,2013-02-21 06:36:00,
2013-02-21 00:37:00,51.9,40.9,29.97,NE,55,0.0,0.0,66,0.00,,,0.00,0.00,VWS V14.00,2013-02-21 06:37:00,
2013-02-21 00:38:00,51.9,40.9,29.97,SE,144,0.0,0.0,66,0.00,,,0.00,0.00,VWS V14.00,2013-02-21 06:38:00,
2013-02-21 00:39:00,51.9,40.9,29.97,ENE,76,0.0,0.0,66,0.00,,,0.00,0.00,VWS V14.00,2013-02-21 06:39:00,
2013-02-21 00:40:00,51.9,41.3,29.97,ENE,74,0.0,0.0,67,0.00,,,0.00,0.00,VWS V14.00,2013-02-21 06:40:00,
2013-02-21 00:41:00,51.9,41.3,29.97,East,81,0.0,0.0,67,0.00,,,0.00,0.00,VWS V14.00,2013-02-21 06:41:00,
2013-02-21 00:42:00,51.9,41.3,29.97,ESE,104,0.0,0.0,67,0.00,,,0.00,0.00,VWS V14.00,2013-02-21 06:42:00,
2013-02-21 00:43:00,51.7,41.1,29.97,ESE,103,0.0,0.0,67,0.00,,,0.00,0.00,VWS V14.00,2013-02-21 06:43:00,
2013-02-21 00:44:00,51.7,41.1,29.96,East,94,0.0,0.0,67,0.00,,,0.00,0.00,VWS V14.00,2013-02-21 06:44:00,
2013-02-21 00:45:00,51.7,41.5,29.96,East,94,0.0,0.0,68,0.00,,,0.00,0.00,VWS V14.00,2013-02-21 06:45:00,
2013-02-21 00:46:00,51.7,41.5,29.96,East,92,0.0,0.0,68,0.00,,,0.00,0.00,VWS V14.00,2013-02-21 06:46:00,
2013-02-21 00:47:00,51.7,41.5,29.96,East,92,0.0,0.0,68,0.00,,,0.00,0.00,VWS V14.00,2013-02-21 06:47:00,
2013-02-21 00:48:00,51.7,41.5,29.96,SE,136,0.0,0.0,68,0.00,,,0.00,0.00,VWS V14.00,2013-02-21 06:48:00,
2013-02-21 00:49:00,51.7,41.5,29.96,SE,137,0.0,0.0,68,0.00,,,0.00,0.00,VWS V14.00,2013-02-21 06:49:00,
2013-02-21 00:50:00,51.7,41.5,29.96,NE,56,0.0,0.0,68,0.00,,,0.00,0.00,VWS V14.00,2013-02-21 06:50:00,
2013-02-21 00:51:00,51.7,41.5,29.96,ENE,61,0.0,0.0,68,0.00,,,0.00,0.00,VWS V14.00,2013-02-21 06:51:00,
2013-02-21 00:52:00,51.7,41.9,29.96,ENE,75,0.0,0.0,69,0.00,,,0.00,0.00,VWS V14.00,2013-02-21 06:52:00,
2013-02-21 00:53:00,51.7,41.9,29.96,ENE,78,0.0,0.0,69,0.00,,,0.00,0.00,VWS V14.00,2013-02-21 06:53:00,
2013-02-21 00:54:00,51.7,41.9,29.96,NE,49,0.0,0.0,69,0.00,,,0.00,0.00,VWS V14.00,2013-02-21 06:54:00,
2013-02-21 00:55:00,51.7,41.9,29.96,SE,133,0.0,0.0,69,0.00,,,0.00,0.00,VWS V14.00,2013-02-21 06:55:00,
2013-02-21 00:56:00,51.9,42.1,29.96,ESE,112,0.0,0.0,69,0.00,,,0.00,0.00,VWS V14.00,2013-02-21 06:56:00,
2013-02-21 00:57:00,51.9,42.1,29.96,ESE,111,0.0,0.0,69,0.00,,,0.00,0.00,VWS V14.00,2013-02-21 06:57:00,
2013-02-21 00:58:00,51.9,42.1,29.96,ESE,107,0.0,0.0,69,0.00,,,0.00,0.00,VWS V14.00,2013-02-21 06:58:00,
2013-02-21 00:59:00,51.9,42.1,29.96,ENE,76,0.0,0.0,69,0.00,,,0.00,0.00,VWS V14.00,2013-02-21 06:59:00,
2013-02-21 01:00:00,51.9,42.1,29.96,ENE,67,0.0,0.0,69,0.00,,,0.00,0.00,VWS V14.00,2013-02-21 07:00:00,
2013-02-21 01:01:00,51.9,42.1,29.96,ENE,70,0.0,0.0,69,0.00,,,0.00,0.00,VWS V14.00,2013-02-21 07:01:00,
2013-02-21 01:02:00,51.9,42.1,29.96,ENE,70,0.0,0.0,69,0.00,,,0.00,0.00,VWS V14.00,2013-02-21 07:02:00,
2013-02-21 01:03:00,51.9,42.1,29.96,ENE,69,0.0,0.0,69,0.00,,,0.00,0.00,VWS V14.00,2013-02-21 07:03:00,
2013-02-21 01:04:00,51.9,42.1,29.96,SE,132,0.0,0.0,69,0.00,,,0.00,0.00,VWS V14.00,2013-02-21 07:04:00,
2013-02-21 01:05:00,51.9,41.7,29.96,SE,128,0.0,0.0,68,0.00,,,0.00,0.00,VWS V14.00,2013-02-21 07:05:00,
2013-02-21 01:06:00,51.9,41.7,29.96,NE,56,0.0,0.0,68,0.00,,,0.00,0.00,VWS V14.00,2013-02-21 07:06:00,
2013-02-21 01:07:00,51.9,41.7,29.96,ENE,66,0.0,0.0,68,0.00,,,0.00,0.00,VWS V14.00,2013-02-21 07:07:00,
2013-02-21 01:08:00,51.9,41.7,29.96,East,88,0.0,0.0,68,0.00,,,0.00,0.00,VWS V14.00,2013-02-21 07:08:00,
2013-02-21 01:09:00,51.9,41.7,29.96,ENE,67,0.0,0.0,68,0.00,,,0.00,0.00,VWS V14.00,2013-02-21 07:09:00,
2013-02-21 01:10:00,52.0,41.8,29.96,ENE,71,0.0,0.0,68,0.00,,,0.00,0.00,VWS V14.00,2013-02-21 07:10:00,
2013-02-21 01:11:00,52.0,42.2,29.96,ENE,63,0.0,0.0,69,0.00,,,0.00,0.00,VWS V14.00,2013-02-21 07:11:00,
2013-02-21 01:12:00,52.0,42.2,29.96,ENE,66,0.0,0.0,69,0.00,,,0.00,0.00,VWS V14.00,2013-02-21 07:12:00,
2013-02-21 01:13:00,52.0,42.2,29.96,NE,46,0.0,0.0,69,0.00,,,0.00,0.00,VWS V14.00,2013-02-21 07:13:00,
2013-02-21 01:14:00,52.0,42.2,29.94,NE,46,0.0,0.0,69,0.00,,,0.00,0.00,VWS V14.00,2013-02-21 07:14:00,
2013-02-21 01:15:00,52.0,42.2,29.94,ENE,74,0.0,0.0,69,0.00,,,0.00,0.00,VWS V14.00,2013-02-21 07:15:00,
2013-02-21 01:16:00,52.0,42.2,29.94,ENE,74,0.0,0.0,69,0.00,,,0.00,0.00,VWS V14.00,2013-02-21 07:16:00,
2013-02-21 01:17:00,52.0,42.2,29.94,ESE,118,0.0,0.0,69,0.00,,,0.00,0.00,VWS V14.00,2013-02-21 07:17:00,
2013-02-21 01:18:00,52.0,42.2,29.94,ESE,117,0.0,0.0,69,0.00,,,0.00,0.00,VWS V14.00,2013-02-21 07:18:00,
2013-02-21 01:19:00,52.0,42.2,29.94,ENE,69,0.0,0.0,69,0.00,,,0.00,0.00,VWS V14.00,2013-02-21 07:19:00,
2013-02-21 01:20:00,52.0,42.2,29.94,ENE,60,0.0,0.0,69,0.00,,,0.00,0.00,VWS V14.00,2013-02-21 07:20:00,
2013-02-21 01:21:00,52.0,42.2,29.94,ENE,73,0.0,0.0,69,0.00,,,0.00,0.00,VWS V14.00,2013-02-21 07:21:00,
2013-02-21 01:22:00,52.2,42.3,29.94,ENE,65,0.0,0.0,69,0.00,,,0.00,0.00,VWS V14.00,2013-02-21 07:22:00,
2013-02-21 01:23:00,52.2,42.3,29.94,ENE,65,0.0,0.0,69,0.00,,,0.00,0.00,VWS V14.00,2013-02-21 07:23:00,
2013-02-21 01:24:00,52.2,42.3,29.94,ENE,65,0.0,0.0,69,0.00,,,0.00,0.00,VWS V14.00,2013-02-21 07:24:00,
2013-02-21 01:25:00,52.2,42.3,29.94,East,89,0.0,0.0,69,0.00,,,0.00,0.00,VWS V14.00,2013-02-21 07:25:00,
2013-02-21 01:26:00,52.2,42.3,29.94,East,86,0.0,0.0,69,0.00,,,0.00,0.00,VWS V14.00,2013-02-21 07:26:00,
2013-02-21 01:27:00,52.2,42.3,29.94,East,86,0.0,0.0,69,0.00,,,0.00,0.00,VWS V14.00,2013-02-21 07:27:00,
2013-02-21 01:28:00,52.2,42.0,29.94,NNE,15,0.0,0.0,68,0.00,,,0.00,0.00,VWS V14.00,2013-02-21 07:28:00,
2013-02-21 01:29:00,52.2,42.0,29.94,NNE,15,0.0,0.0,68,0.00,,,0.00,0.00,VWS V14.00,2013-02-21 07:29:00,
2013-02-21 01:30:00,52.2,42.0,29.94,NNE,17,0.0,0.0,68,0.00,,,0.00,0.00,VWS V14.00,2013-02-21 07:30:00,
2013-02-21 01:31:00,52.2,42.3,29.94,NNE,17,0.0,0.0,69,0.00,,,0.00,0.00,VWS V14.00,2013-02-21 07:31:00,
2013-02-21 01:32:00,52.2,42.3,29.94,NNE,17,0.0,0.0,69,0.00,,,0.00,0.00,VWS V14.00,2013-02-21 07:32:00,
2013-02-21 01:33:00,52.0,41.8,29.94,NNE,17,0.0,0.0,68,0.00,,,0.00,0.00,VWS V14.00,2013-02-21 07:33:00,
2013-02-21 01:34:00,52.0,41.8,29.94,NNE,17,0.0,0.0,68,0.00,,,0.00,0.00,VWS V14.00,2013-02-21 07:34:00,
2013-02-21 01:35:00,52.0,41.8,29.94,NNE,17,0.0,0.0,68,0.00,,,0.00,0.00,VWS V14.00,2013-02-21 07:35:00,
2013-02-21 01:36:00,52.0,41.8,29.94,NNE,17,0.0,0.0,68,0.00,,,0.00,0.00,VWS V14.00,2013-02-21 07:36:00,
2013-02-21 01:37:00,52.0,41.8,29.94,NNE,18,0.0,0.0,68,0.00,,,0.00,0.00,VWS V14.00,2013-02-21 07:37:00,
2013-02-21 01:38:00,52.0,41.8,29.94,NNE,18,0.0,0.0,68,0.00,,,0.00,0.00,VWS V14.00,2013-02-21 07:38:00,
2013-02-21 01:39:00,52.0,41.8,29.94,NE,39,0.0,0.0,68,0.00,,,0.00,0.00,VWS V14.00,2013-02-21 07:39:00,
2013-02-21 01:40:00,52.0,41.8,29.94,NE,39,0.0,0.0,68,0.00,,,0.00,0.00,VWS V14.00,2013-02-21 07:40:00,
2013-02-21 01:41:00,52.0,41.8,29.94,NE,39,0.0,0.0,68,0.00,,,0.00,0.00,VWS V14.00,2013-02-21 07:41:00,
2013-02-21 01:42:00,51.9,41.7,29.94,NE,39,0.0,0.0,68,0.00,,,0.00,0.00,VWS V14.00,2013-02-21 07:42:00,
2013-02-21 01:43:00,51.9,41.7,29.94,NE,39,0.0,0.0,68,0.00,,,0.00,0.00,VWS V14.00,2013-02-21 07:43:00,
2013-02-21 01:44:00,51.9,41.7,29.94,NE,36,0.0,0.0,68,0.00,,,0.00,0.00,VWS V14.00,2013-02-21 07:44:00,
2013-02-21 01:45:00,51.9,41.7,29.94,NE,36,0.0,0.0,68,0.00,,,0.00,0.00,VWS V14.00,2013-02-21 07:45:00,
2013-02-21 01:46:00,51.9,41.7,29.94,NE,36,0.0,0.0,68,0.00,,,0.00,0.00,VWS V14.00,2013-02-21 07:46:00,
2013-02-21 01:47:00,51.9,41.7,29.94,NE,36,0.0,0.0,68,0.00,,,0.00,0.00,VWS V14.00,2013-02-21 07:47:00,
2013-02-21 01:48:00,51.9,41.7,29.94,NE,36,0.0,0.0,68,0.00,,,0.00,0.00,VWS V14.00,2013-02-21 07:48:00,
2013-02-21 01:49:00,51.9,41.7,29.94,NE,36,0.0,0.0,68,0.00,,,0.00,0.00,VWS V14.00,2013-02-21 07:49:00,
2013-02-21 01:50:00,51.7,41.5,29.94,NE,36,0.0,0.0,68,0.00,,,0.00,0.00,VWS V14.00,2013-02-21 07:50:00,
2013-02-21 01:51:00,51.7,41.5,29.94,NE,34,0.0,0.0,68,0.00,,,0.00,0.00,VWS V14.00,2013-02-21 07:51:00,
2013-02-21 01:52:00,51.7,41.5,29.94,NE,34,0.0,0.0,68,0.00,,,0.00,0.00,VWS V14.00,2013-02-21 07:52:00,
2013-02-21 01:53:00,51.6,41.4,29.94,NE,34,0.0,0.0,68,0.00,,,0.00,0.00,VWS V14.00,2013-02-21 07:53:00,
2013-02-21 01:54:00,51.6,41.4,29.94,NE,34,0.0,0.0,68,0.00,,,0.00,0.00,VWS V14.00,2013-02-21 07:54:00,
2013-02-21 01:55:00,51.6,41.4,29.94,NNE,32,0.0,0.0,68,0.00,,,0.00,0.00,VWS V14.00,2013-02-21 07:55:00,
2013-02-21 01:56:00,51.4,41.2,29.94,NNE,18,0.0,0.0,68,0.00,,,0.00,0.00,VWS V14.00,2013-02-21 07:56:00,
2013-02-21 01:57:00,51.3,40.7,29.94,NNE,15,0.0,0.0,67,0.00,,,0.00,0.00,VWS V14.00,2013-02-21 07:57:00,
2013-02-21 01:58:00,51.1,40.2,29.94,NNE,15,0.0,0.0,66,0.00,,,0.00,0.00,VWS V14.00,2013-02-21 07:58:00,
2013-02-21 01:59:00,51.0,40.1,29.94,NNE,13,0.0,0.0,66,0.00,,,0.00,0.00,VWS V14.00,2013-02-21 07:59:00,
2013-02-21 02:00:00,51.0,39.7,29.94,NNE,13,0.0,0.0,65,0.00,,,0.00,0.00,VWS V14.00,2013-02-21 08:00:00,
2013-02-21 02:01:00,50.8,39.5,29.94,NNE,13,0.0,0.0,65,0.00,,,0.00,0.00,VWS V14.00,2013-02-21 08:01:00,
2013-02-21 02:02:00,50.7,39.4,29.94,NNE,12,0.0,0.0,65,0.00,,,0.00,0.00,VWS V14.00,2013-02-21 08:02:00,
2013-02-21 02:03:00,50.5,39.2,29.94,NNW,329,0.0,0.0,65,0.00,,,0.00,0.00,VWS V14.00,2013-02-21 08:03:00,
2013-02-21 02:04:00,50.4,38.7,29.94,NNW,331,0.0,0.0,64,0.00,,,0.00,0.00,VWS V14.00,2013-02-21 08:04:00,
2013-02-21 02:05:00,50.2,38.5,29.94,NNW,331,0.0,0.0,64,0.00,,,0.00,0.00,VWS V14.00,2013-02-21 08:05:00,
2013-02-21 02:06:00,50.1,38.4,29.94,NNW,341,0.0,0.0,64,0.00,,,0.00,0.00,VWS V14.00,2013-02-21 08:06:00,
2013-02-21 02:07:00,49.9,38.2,29.94,NNW,341,0.0,0.0,64,0.00,,,0.00,0.00,VWS V14.00,2013-02-21 08:07:00,
2013-02-21 02:08:00,49.8,38.1,29.94,NNW,341,0.0,0.0,64,0.00,,,0.00,0.00,VWS V14.00,2013-02-21 08:08:00,
2013-02-21 02:09:00,49.6,37.9,29.94,NNW,341,0.0,0.0,64,0.00,,,0.00,0.00,VWS V14.00,2013-02-21 08:09:00,
2013-02-21 02:10:00,49.5,38.2,29.94,NNW,341,0.0,0.0,65,0.00,,,0.00,0.00,VWS V14.00,2013-02-21 08:10:00,
2013-02-21 02:11:00,49.5,38.2,29.94,NNW,341,0.0,0.0,65,0.00,,,0.00,0.00,VWS V14.00,2013-02-21 08:11:00,
2013-02-21 02:12:00,49.4,38.1,29.94,NNW,341,0.0,0.0,65,0.00,,,0.00,0.00,VWS V14.00,2013-02-21 08:12:00,
2013-02-21 02:13:00,49.2,38.0,29.94,NNW,341,0.0,0.0,65,0.00,,,0.00,0.00,VWS V14.00,2013-02-21 08:13:00,
2013-02-21 02:14:00,49.1,37.9,29.94,NNW,341,0.0,0.0,65,0.00,,,0.00,0.00,VWS V14.00,2013-02-21 08:14:00,
2013-02-21 02:15:00,49.1,37.9,29.94,NNW,341,0.0,0.0,65,0.00,,,0.00,0.00,VWS V14.00,2013-02-21 08:15:00,
2013-02-21 02:16:00,48.9,37.7,29.94,NNW,341,0.0,0.0,65,0.00,,,0.00,0.00,VWS V14.00,2013-02-21 08:16:00,
2013-02-21 02:17:00,48.8,37.6,29.94,NNW,341,0.0,0.0,65,0.00,,,0.00,0.00,VWS V14.00,2013-02-21 08:17:00,
2013-02-21 02:18:00,48.8,37.6,29.94,NNW,341,0.0,0.0,65,0.00,,,0.00,0.00,VWS V14.00,2013-02-21 08:18:00,
2013-02-21 02:19:00,48.6,37.8,29.94,NNW,341,0.0,0.0,66,0.00,,,0.00,0.00,VWS V14.00,2013-02-21 08:19:00,
2013-02-21 02:20:00,48.5,37.7,29.94,NNW,341,0.0,0.0,66,0.00,,,0.00,0.00,VWS V14.00,2013-02-21 08:20:00,
2013-02-21 02:21:00,48.5,37.7,29.94,NNW,341,0.0,0.0,66,0.00,,,0.00,0.00,VWS V14.00,2013-02-21 08:21:00,
2013-02-21 02:22:00,48.3,37.5,29.94,NNW,342,0.0,0.0,66,0.00,,,0.00,0.00,VWS V14.00,2013-02-21 08:22:00,
2013-02-21 02:23:00,48.3,37.5,29.94,NNW,342,0.0,0.0,66,0.00,,,0.00,0.00,VWS V14.00,2013-02-21 08:23:00,
2013-02-21 02:24:00,48.2,37.8,29.94,NNW,342,0.0,0.0,67,0.00,,,0.00,0.00,VWS V14.00,2013-02-21 08:24:00,
2013-02-21 02:25:00,48.0,37.2,29.94,NNW,342,0.0,0.0,66,0.00,,,0.00,0.00,VWS V14.00,2013-02-21 08:25:00,
2013-02-21 02:26:00,48.0,37.6,29.94,NNW,342,0.0,0.0,67,0.00,,,0.00,0.00,VWS V14.00,2013-02-21 08:26:00,
2013-02-21 02:27:00,47.9,37.5,29.94,NNW,342,0.0,0.0,67,0.00,,,0.00,0.00,VWS V14.00,2013-02-21 08:27:00,
2013-02-21 02:28:00,47.7,37.3,29.94,NNW,346,0.0,0.0,67,0.00,,,0.00,0.00,VWS V14.00,2013-02-21 08:28:00,
2013-02-21 02:29:00,47.7,37.3,29.92,NNW,346,0.0,0.0,67,0.00,,,0.00,0.00,VWS V14.00,2013-02-21 08:29:00,
2013-02-21 02:30:00,47.6,37.2,29.92,NNW,346,0.0,0.0,67,0.00,,,0.00,0.00,VWS V14.00,2013-02-21 08:30:00,
2013-02-21 02:31:00,47.6,37.2,29.92,NNW,346,0.0,0.0,67,0.00,,,0.00,0.00,VWS V14.00,2013-02-21 08:31:00,
2013-02-21 02:32:00,47.4,37.4,29.92,NNW,346,0.0,0.0,68,0.00,,,0.00,0.00,VWS V14.00,2013-02-21 08:32:00,
2013-02-21 02:33:00,47.4,37.4,29.92,NNW,346,0.0,0.0,68,0.00,,,0.00,0.00,VWS V14.00,2013-02-21 08:33:00,
2013-02-21 02:34:00,47.4,37.4,29.92,NNW,346,0.0,0.0,68,0.00,,,0.00,0.00,VWS V14.00,2013-02-21 08:34:00,
2013-02-21 02:35:00,47.3,37.3,29.92,NNW,346,0.0,0.0,68,0.00,,,0.00,0.00,VWS V14.00,2013-02-21 08:35:00,
2013-02-21 02:36:00,47.3,37.3,29.92,NNW,346,0.0,0.0,68,0.00,,,0.00,0.00,VWS V14.00,2013-02-21 08:36:00,
2013-02-21 02:37:00,47.3,37.3,29.92,NNW,346,0.0,0.0,68,0.00,,,0.00,0.00,VWS V14.00,2013-02-21 08:37:00,
2013-02-21 02:38:00,47.3,37.3,29.92,NNW,346,0.0,0.0,68,0.00,,,0.00,0.00,VWS V14.00,2013-02-21 08:38:00,
2013-02-21 02:39:00,47.3,37.3,29.92,NNW,346,0.0,0.0,68,0.00,,,0.00,0.00,VWS V14.00,2013-02-21 08:39:00,
2013-02-21 02:40:00,47.1,37.1,29.92,NNW,346,0.0,0.0,68,0.00,,,0.00,0.00,VWS V14.00,2013-02-21 08:40:00,
2013-02-21 02:41:00,47.1,37.1,29.92,NNW,346,0.0,0.0,68,0.00,,,0.00,0.00,VWS V14.00,2013-02-21 08:41:00,
2013-02-21 02:42:00,47.1,37.1,29.92,NNW,346,0.0,0.0,68,0.00,,,0.00,0.00,VWS V14.00,2013-02-21 08:42:00,
2013-02-21 02:43:00,47.1,37.1,29.92,NNW,346,0.0,0.0,68,0.00,,,0.00,0.00,VWS V14.00,2013-02-21 08:43:00,
2013-02-21 02:44:00,47.1,37.1,29.92,NNW,346,0.0,0.0,68,0.00,,,0.00,0.00,VWS V14.00,2013-02-21 08:44:00,
2013-02-21 02:45:00,47.1,37.1,29.92,NNW,346,0.0,0.0,68,0.00,,,0.00,0.00,VWS V14.00,2013-02-21 08:45:00,
2013-02-21 02:46:00,47.1,37.1,29.92,NNW,346,0.0,0.0,68,0.00,,,0.00,0.00,VWS V14.00,2013-02-21 08:46:00,
2013-02-21 02:47:00,47.0,37.0,29.92,NNW,346,0.0,0.0,68,0.00,,,0.00,0.00,VWS V14.00,2013-02-21 08:47:00,
2013-02-21 02:48:00,47.0,37.0,29.92,NNW,346,0.0,0.0,68,0.00,,,0.00,0.00,VWS V14.00,2013-02-21 08:48:00,
2013-02-21 02:49:00,47.0,37.4,29.92,NNW,346,0.0,0.0,69,0.00,,,0.00,0.00,VWS V14.00,2013-02-21 08:49:00,
2013-02-21 02:50:00,47.0,37.0,29.92,ENE,71,0.0,0.0,68,0.00,,,0.00,0.00,VWS V14.00,2013-02-21 08:50:00,
2013-02-21 02:51:00,47.0,37.0,29.92,NNE,22,0.0,0.0,68,0.00,,,0.00,0.00,VWS V14.00,2013-02-21 08:51:00,
2013-02-21 02:52:00,47.0,37.0,29.92,NNE,20,0.0,0.0,68,0.00,,,0.00,0.00,VWS V14.00,2013-02-21 08:52:00,
2013-02-21 02:53:00,47.0,37.0,29.92,NNE,20,0.0,0.0,68,0.00,,,0.00,0.00,VWS V14.00,2013-02-21 08:53:00,
2013-02-21 02:54:00,47.0,37.0,29.92,NNE,20,0.0,0.0,68,0.00,,,0.00,0.00,VWS V14.00,2013-02-21 08:54:00,
2013-02-21 02:55:00,47.0,37.0,29.92,NNE,20,0.0,0.0,68,0.00,,,0.00,0.00,VWS V14.00,2013-02-21 08:55:00,
2013-02-21 02:56:00,47.0,37.0,29.92,NNE,20,0.0,0.0,68,0.00,,,0.00,0.00,VWS V14.00,2013-02-21 08:56:00,
2013-02-21 02:57:00,47.1,37.1,29.92,NNE,19,0.0,0.0,68,0.00,,,0.00,0.00,VWS V14.00,2013-02-21 08:57:00,
2013-02-21 02:58:00,47.1,37.1,29.92,NNE,19,0.0,0.0,68,0.00,,,0.00,0.00,VWS V14.00,2013-02-21 08:58:00,
2013-02-21 02:59:00,47.1,37.1,29.92,NNE,18,0.0,0.0,68,0.00,,,0.00,0.00,VWS V14.00,2013-02-21 08:59:00,
2013-02-21 03:00:00,47.1,37.1,29.92,NNE,17,0.0,0.0,68,0.00,,,0.00,0.00,VWS V14.00,2013-02-21 09:00:00,
2013-02-21 03:01:00,47.1,37.1,29.92,NNE,16,0.0,0.0,68,0.00,,,0.00,0.00,VWS V14.00,2013-02-21 09:01:00,
2013-02-21 03:02:00,47.1,37.1,29.92,NNE,16,0.0,0.0,68,0.00,,,0.00,0.00,VWS V14.00,2013-02-21 09:02:00,
2013-02-21 03:03:00,47.1,37.1,29.92,NNE,16,0.0,0.0,68,0.00,,,0.00,0.00,VWS V14.00,2013-02-21 09:03:00,
2013-02-21 03:04:00,47.1,37.1,29.92,NNE,16,0.0,0.0,68,0.00,,,0.00,0.00,VWS V14.00,2013-02-21 09:04:00,
2013-02-21 03:05:00,47.1,37.1,29.92,NNE,16,0.0,0.0,68,0.00,,,0.00,0.00,VWS V14.00,2013-02-21 09:05:00,
2013-02-21 03:06:00,47.1,37.1,29.92,NNE,16,0.0,0.0,68,0.00,,,0.00,0.00,VWS V14.00,2013-02-21 09:06:00,
2013-02-21 03:07:00,47.1,37.1,29.92,NNE,19,0.0,0.0,68,0.00,,,0.00,0.00,VWS V14.00,2013-02-21 09:07:00,
2013-02-21 03:08:00,47.1,37.1,29.92,NNE,19,0.0,0.0,68,0.00,,,0.00,0.00,VWS V14.00,2013-02-21 09:08:00,
2013-02-21 03:09:00,47.1,36.7,29.92,NNE,19,0.0,0.0,67,0.00,,,0.00,0.00,VWS V14.00,2013-02-21 09:09:00,
2013-02-21 03:10:00,47.1,36.7,29.92,NNE,19,0.0,0.0,67,0.00,,,0.00,0.00,VWS V14.00,2013-02-21 09:10:00,
2013-02-21 03:11:00,47.1,36.7,29.92,NNE,19,0.0,0.0,67,0.00,,,0.00,0.00,VWS V14.00,2013-02-21 09:11:00,
2013-02-21 03:12:00,47.1,37.1,29.92,NNE,19,0.0,0.0,68,0.00,,,0.00,0.00,VWS V14.00,2013-02-21 09:12:00,
2013-02-21 03:13:00,47.1,37.1,29.92,NNE,19,0.0,0.0,68,0.00,,,0.00,0.00,VWS V14.00,2013-02-21 09:13:00,
2013-02-21 03:14:00,47.1,36.7,29.92,NNE,19,0.0,0.0,67,0.00,,,0.00,0.00,VWS V14.00,2013-02-21 09:14:00,
2013-02-21 03:15:00,47.1,36.7,29.92,NNE,19,0.0,0.0,67,0.00,,,0.00,0.00,VWS V14.00,2013-02-21 09:15:00,
2013-02-21 03:16:00,47.1,36.7,29.92,NNE,18,0.0,0.0,67,0.00,,,0.00,0.00,VWS V14.00,2013-02-21 09:16:00,
2013-02-21 03:17:00,47.1,36.7,29.92,NNE,18,0.0,0.0,67,0.00,,,0.00,0.00,VWS V14.00,2013-02-21 09:17:00,
2013-02-21 03:18:00,47.1,36.7,29.92,NNE,18,0.0,0.0,67,0.00,,,0.00,0.00,VWS V14.00,2013-02-21 09:18:00,
2013-02-21 03:19:00,47.1,36.7,29.92,NNE,18,0.0,0.0,67,0.00,,,0.00,0.00,VWS V14.00,2013-02-21 09:19:00,
2013-02-21 03:20:00,47.1,36.7,29.92,NNE,18,0.0,0.0,67,0.00,,,0.00,0.00,VWS V14.00,2013-02-21 09:20:00,
2013-02-21 03:21:00,47.1,36.7,29.92,NNE,18,0.0,0.0,67,0.00,,,0.00,0.00,VWS V14.00,2013-02-21 09:21:00,
2013-02-21 03:22:00,47.1,36.7,29.92,NNE,18,0.0,0.0,67,0.00,,,0.00,0.00,VWS V14.00,2013-02-21 09:22:00,
2013-02-21 03:23:00,47.1,36.7,29.92,NNE,18,0.0,0.0,67,0.00,,,0.00,0.00,VWS V14.00,2013-02-21 09:23:00,
2013-02-21 03:24:00,47.1,36.7,29.92,NNE,18,0.0,0.0,67,0.00,,,0.00,0.00,VWS V14.00,2013-02-21 09:24:00,
2013-02-21 03:25:00,47.1,36.7,29.92,NNE,19,0.0,0.0,67,0.00,,,0.00,0.00,VWS V14.00,2013-02-21 09:25:00,
2013-02-21 03:26:00,47.0,36.6,29.92,NNE,19,0.0,0.0,67,0.00,,,0.00,0.00,VWS V14.00,2013-02-21 09:26:00,
2013-02-21 03:27:00,47.0,36.6,29.92,NNE,19,0.0,0.0,67,0.00,,,0.00,0.00,VWS V14.00,2013-02-21 09:27:00,
2013-02-21 03:28:00,47.0,36.6,29.92,NNE,19,0.0,0.0,67,0.00,,,0.00,0.00,VWS V14.00,2013-02-21 09:28:00,
2013-02-21 03:29:00,47.0,36.6,29.92,NNE,19,0.0,0.0,67,0.00,,,0.00,0.00,VWS V14.00,2013-02-21 09:29:00,
2013-02-21 03:30:00,47.0,36.6,29.92,NNE,19,0.0,0.0,67,0.00,,,0.00,0.00,VWS V14.00,2013-02-21 09:30:00,
2013-02-21 03:31:00,47.0,36.6,29.92,NNE,19,0.0,0.0,67,0.00,,,0.00,0.00,VWS V14.00,2013-02-21 09:31:00,
2013-02-21 03:32:00,47.0,36.6,29.92,NNE,13,0.0,0.0,67,0.00,,,0.00,0.00,VWS V14.00,2013-02-21 09:32:00,
2013-02-21 03:33:00,47.0,36.6,29.92,NNE,13,0.0,0.0,67,0.00,,,0.00,0.00,VWS V14.00,2013-02-21 09:33:00,
2013-02-21 03:34:00,47.0,36.6,29.92,NNE,13,0.0,0.0,67,0.00,,,0.00,0.00,VWS V14.00,2013-02-21 09:34:00,
2013-02-21 03:35:00,47.0,36.6,29.92,NNE,13,0.0,0.0,67,0.00,,,0.00,0.00,VWS V14.00,2013-02-21 09:35:00,
2013-02-21 03:36:00,47.0,36.6,29.92,NNE,13,0.0,0.0,67,0.00,,,0.00,0.00,VWS V14.00,2013-02-21 09:36:00,
2013-02-21 03:37:00,47.0,36.6,29.92,NNE,13,0.0,0.0,67,0.00,,,0.00,0.00,VWS V14.00,2013-02-21 09:37:00,
2013-02-21 03:38:00,47.0,36.6,29.92,NNE,13,0.0,0.0,67,0.00,,,0.00,0.00,VWS V14.00,2013-02-21 09:38:00,
2013-02-21 03:39:00,47.0,36.6,29.92,NNE,13,0.0,0.0,67,0.00,,,0.00,0.00,VWS V14.00,2013-02-21 09:39:00,
2013-02-21 03:40:00,47.0,36.6,29.92,NNE,13,0.0,0.0,67,0.00,,,0.00,0.00,VWS V14.00,2013-02-21 09:40:00,
2013-02-21 03:41:00,47.0,36.6,29.92,NNE,12,0.0,0.0,67,0.00,,,0.00,0.00,VWS V14.00,2013-02-21 09:41:00,
2013-02-21 03:42:00,47.0,36.6,29.92,NNE,13,0.0,0.0,67,0.00,,,0.00,0.00,VWS V14.00,2013-02-21 09:42:00,
2013-02-21 03:43:00,47.0,36.6,29.92,NNE,13,0.0,0.0,67,0.00,,,0.00,0.00,VWS V14.00,2013-02-21 09:43:00,
2013-02-21 03:44:00,47.0,36.6,29.92,NNE,14,0.0,0.0,67,0.00,,,0.00,0.00,VWS V14.00,2013-02-21 09:44:00,
2013-02-21 03:45:00,47.0,36.6,29.92,NNE,15,0.0,0.0,67,0.00,,,0.00,0.00,VWS V14.00,2013-02-21 09:45:00,
2013-02-21 03:46:00,47.0,36.6,29.92,NNE,15,0.0,0.0,67,0.00,,,0.00,0.00,VWS V14.00,2013-02-21 09:46:00,
2013-02-21 03:47:00,47.0,36.6,29.92,NNE,15,0.0,0.0,67,0.00,,,0.00,0.00,VWS V14.00,2013-02-21 09:47:00,
2013-02-21 03:48:00,47.0,36.6,29.92,NNE,15,0.0,0.0,67,0.00,,,0.00,0.00,VWS V14.00,2013-02-21 09:48:00,
2013-02-21 03:49:00,47.0,36.6,29.92,NNE,15,0.0,0.0,67,0.00,,,0.00,0.00,VWS V14.00,2013-02-21 09:49:00,
2013-02-21 03:50:00,47.0,36.6,29.92,NNE,15,0.0,0.0,67,0.00,,,0.00,0.00,VWS V14.00,2013-02-21 09:50:00,
2013-02-21 03:51:00,47.0,36.6,29.92,NNE,15,0.0,0.0,67,0.00,,,0.00,0.00,VWS V14.00,2013-02-21 09:51:00,
2013-02-21 03:52:00,47.0,36.6,29.92,NNE,16,0.0,0.0,67,0.00,,,0.00,0.00,VWS V14.00,2013-02-21 09:52:00,
2013-02-21 03:53:00,47.0,36.6,29.92,NNE,16,0.0,0.0,67,0.00,,,0.00,0.00,VWS V14.00,2013-02-21 09:53:00,
2013-02-21 03:54:00,47.0,36.6,29.92,NNE,16,0.0,0.0,67,0.00,,,0.00,0.00,VWS V14.00,2013-02-21 09:54:00,
2013-02-21 03:55:00,47.0,36.6,29.92,NNE,17,0.0,0.0,67,0.00,,,0.00,0.00,VWS V14.00,2013-02-21 09:55:00,
2013-02-21 03:56:00,47.0,36.6,29.92,NNE,17,0.0,0.0,67,0.00,,,0.00,0.00,VWS V14.00,2013-02-21 09:56:00,
2013-02-21 03:57:00,47.0,36.6,29.92,North,355,0.0,0.0,67,0.00,,,0.00,0.00,VWS V14.00,2013-02-21 09:57:00,
2013-02-21 03:58:00,47.0,36.6,29.92,North,355,0.0,0.0,67,0.00,,,0.00,0.00,VWS V14.00,2013-02-21 09:58:00,
2013-02-21 03:59:00,47.0,36.6,29.92,NE,54,0.0,0.0,67,0.00,,,0.00,0.00,VWS V14.00,2013-02-21 09:59:00,
2013-02-21 04:00:00,47.0,36.6,29.92,NE,42,0.0,0.0,67,0.00,,,0.00,0.00,VWS V14.00,2013-02-21 10:00:00,
2013-02-21 04:01:00,47.1,36.7,29.92,NE,42,0.0,0.0,67,0.00,,,0.00,0.00,VWS V14.00,2013-02-21 10:01:00,
2013-02-21 04:02:00,47.1,36.7,29.92,NNE,17,0.0,0.0,67,0.00,,,0.00,0.00,VWS V14.00,2013-02-21 10:02:00,
2013-02-21 04:03:00,47.1,36.7,29.92,NNE,17,0.0,0.0,67,0.00,,,0.00,0.00,VWS V14.00,2013-02-21 10:03:00,
2013-02-21 04:04:00,47.1,36.7,29.92,NNE,28,0.0,0.0,67,0.00,,,0.00,0.00,VWS V14.00,2013-02-21 10:04:00,
2013-02-21 04:05:00,47.1,36.7,29.92,NNE,28,0.0,0.0,67,0.00,,,0.00,0.00,VWS V14.00,2013-02-21 10:05:00,
2013-02-21 04:06:00,47.1,36.7,29.92,NE,42,0.0,0.0,67,0.00,,,0.00,0.00,VWS V14.00,2013-02-21 10:06:00,
2013-02-21 04:07:00,47.1,36.3,29.92,NE,40,0.0,0.0,66,0.00,,,0.00,0.00,VWS V14.00,2013-02-21 10:07:00,
2013-02-21 04:08:00,47.1,36.3,29.92,NE,37,0.0,0.0,66,0.00,,,0.00,0.00,VWS V14.00,2013-02-21 10:08:00,
2013-02-21 04:09:00,47.1,36.3,29.92,NE,37,0.0,0.0,66,0.00,,,0.00,0.00,VWS V14.00,2013-02-21 10:09:00,
2013-02-21 04:10:00,47.1,36.3,29.92,NE,37,0.0,0.0,66,0.00,,,0.00,0.00,VWS V14.00,2013-02-21 10:10:00,
2013-02-21 04:11:00,47.1,36.7,29.92,North,5,0.0,0.0,67,0.00,,,0.00,0.00,VWS V14.00,2013-02-21 10:11:00,
2013-02-21 04:12:00,47.1,36.3,29.92,North,5,0.0,0.0,66,0.00,,,0.00,0.00,VWS V14.00,2013-02-21 10:12:00,
2013-02-21 04:13:00,47.1,36.3,29.92,North,5,0.0,0.0,66,0.00,,,0.00,0.00,VWS V14.00,2013-02-21 10:13:00,
2013-02-21 04:14:00,47.1,36.3,29.92,North,5,0.0,0.0,66,0.00,,,0.00,0.00,VWS V14.00,2013-02-21 10:14:00,
2013-02-21 04:15:00,47.1,36.3,29.92,North,5,0.0,0.0,66,0.00,,,0.00,0.00,VWS V14.00,2013-02-21 10:15:00,
2013-02-21 04:16:00,47.3,36.9,29.92,North,5,0.0,0.0,67,0.00,,,0.00,0.00,VWS V14.00,2013-02-21 10:16:00,
2013-02-21 04:17:00,47.3,36.9,29.92,North,5,0.0,0.0,67,0.00,,,0.00,0.00,VWS V14.00,2013-02-21 10:17:00,
2013-02-21 04:18:00,47.3,36.5,29.92,North,5,0.0,0.0,66,0.00,,,0.00,0.00,VWS V14.00,2013-02-21 10:18:00,
2013-02-21 04:19:00,47.3,36.5,29.92,North,5,0.0,0.0,66,0.00,,,0.00,0.00,VWS V14.00,2013-02-21 10:19:00,
2013-02-21 04:20:00,47.3,36.5,29.92,North,5,0.0,0.0,66,0.00,,,0.00,0.00,VWS V14.00,2013-02-21 10:20:00,
2013-02-21 04:21:00,47.3,36.5,29.92,ENE,77,0.0,0.0,66,0.00,,,0.00,0.00,VWS V14.00,2013-02-21 10:21:00,
2013-02-21 04:22:00,47.3,36.5,29.92,NNE,30,0.0,0.0,66,0.00,,,0.00,0.00,VWS V14.00,2013-02-21 10:22:00,
2013-02-21 04:23:00,47.3,36.5,29.92,NNE,30,0.0,0.0,66,0.00,,,0.00,0.00,VWS V14.00,2013-02-21 10:23:00,
2013-02-21 04:24:00,47.3,36.5,29.92,NNE,30,0.0,0.0,66,0.00,,,0.00,0.00,VWS V14.00,2013-02-21 10:24:00,
2013-02-21 04:25:00,47.3,36.5,29.92,North,9,0.0,0.0,66,0.00,,,0.00,0.00,VWS V14.00,2013-02-21 10:25:00,
2013-02-21 04:26:00,47.3,36.5,29.92,NNE,17,0.0,0.0,66,0.00,,,0.00,0.00,VWS V14.00,2013-02-21 10:26:00,
2013-02-21 04:27:00,47.3,36.5,29.92,ESE,105,0.0,0.0,66,0.00,,,0.00,0.00,VWS V14.00,2013-02-21 10:27:00,
2013-02-21 04:28:00,47.3,36.5,29.92,North,5,0.0,0.0,66,0.00,,,0.00,0.00,VWS V14.00,2013-02-21 10:28:00,
2013-02-21 04:29:00,47.3,36.5,29.92,NNE,15,0.0,0.0,66,0.00,,,0.00,0.00,VWS V14.00,2013-02-21 10:29:00,
2013-02-21 04:30:00,47.3,36.5,29.92,North,5,0.0,0.0,66,0.00,,,0.00,0.00,VWS V14.00,2013-02-21 10:30:00,
2013-02-21 04:31:00,47.3,36.9,29.92,North,9,0.0,0.0,67,0.00,,,0.00,0.00,VWS V14.00,2013-02-21 10:31:00,
2013-02-21 04:32:00,47.3,36.5,29.92,NNE,15,0.0,0.0,66,0.00,,,0.00,0.00,VWS V14.00,2013-02-21 10:32:00,
2013-02-21 04:33:00,47.3,36.5,29.92,East,84,0.0,0.0,66,0.00,,,0.00,0.00,VWS V14.00,2013-02-21 10:33:00,
2013-02-21 04:34:00,47.3,36.5,29.92,East,84,0.0,0.0,66,0.00,,,0.00,0.00,VWS V14.00,2013-02-21 10:34:00,
2013-02-21 04:35:00,47.3,36.5,29.92,ENE,57,0.0,0.0,66,0.00,,,0.00,0.00,VWS V14.00,2013-02-21 10:35:00,
2013-02-21 04:36:00,47.3,36.9,29.92,NE,54,0.0,0.0,67,0.00,,,0.00,0.00,VWS V14.00,2013-02-21 10:36:00,
2013-02-21 04:37:00,47.3,36.5,29.92,East,89,0.0,0.0,66,0.00,,,0.00,0.00,VWS V14.00,2013-02-21 10:37:00,
2013-02-21 04:38:00,47.3,36.5,29.92,ENE,63,0.0,0.0,66,0.00,,,0.00,0.00,VWS V14.00,2013-02-21 10:38:00,
2013-02-21 04:39:00,47.3,36.5,29.92,ENE,64,0.0,0.0,66,0.00,,,0.00,0.00,VWS V14.00,2013-02-21 10:39:00,
2013-02-21 04:40:00,47.3,36.5,29.92,East,85,0.0,0.0,66,0.00,,,0.00,0.00,VWS V14.00,2013-02-21 10:40:00,
2013-02-21 04:41:00,47.3,36.9,29.92,ENE,61,0.0,0.0,67,0.00,,,0.00,0.00,VWS V14.00,2013-02-21 10:41:00,
2013-02-21 04:42:00,47.3,36.9,29.92,ENE,66,0.0,0.0,67,0.00,,,0.00,0.00,VWS V14.00,2013-02-21 10:42:00,
2013-02-21 04:43:00,47.3,36.9,29.92,East,93,0.0,0.0,67,0.00,,,0.00,0.00,VWS V14.00,2013-02-21 10:43:00,
2013-02-21 04:44:00,47.3,36.9,29.91,East,93,0.0,0.0,67,0.00,,,0.00,0.00,VWS V14.00,2013-02-21 10:44:00,
2013-02-21 04:45:00,47.3,36.9,29.91,East,96,0.0,0.0,67,0.00,,,0.00,0.00,VWS V14.00,2013-02-21 10:45:00,
2013-02-21 04:46:00,47.3,36.9,29.91,NW,317,0.0,0.0,67,0.00,,,0.00,0.00,VWS V14.00,2013-02-21 10:46:00,
2013-02-21 04:47:00,47.3,36.9,29.91,NW,317,0.0,0.0,67,0.00,,,0.00,0.00,VWS V14.00,2013-02-21 10:47:00,
2013-02-21 04:48:00,47.3,36.9,29.91,ENE,74,0.0,0.0,67,0.00,,,0.00,0.00,VWS V14.00,2013-02-21 10:48:00,
2013-02-21 04:49:00,47.4,37.0,29.91,NE,53,0.0,0.0,67,0.00,,,0.00,0.00,VWS V14.00,2013-02-21 10:49:00,
2013-02-21 04:50:00,47.4,37.0,29.91,NNE,12,0.0,0.0,67,0.00,,,0.00,0.00,VWS V14.00,2013-02-21 10:50:00,
2013-02-21 04:51:00,47.4,37.0,29.91,NNE,15,0.0,0.0,67,0.00,,,0.00,0.00,VWS V14.00,2013-02-21 10:51:00,
2013-02-21 04:52:00,47.4,37.0,29.91,NE,36,0.0,0.0,67,0.00,,,0.00,0.00,VWS V14.00,2013-02-21 10:52:00,
2013-02-21 04:53:00,47.4,37.0,29.91,North,355,0.0,0.0,67,0.00,,,0.00,0.00,VWS V14.00,2013-02-21 10:53:00,
2013-02-21 04:54:00,47.6,37.2,29.91,North,355,0.0,0.0,67,0.00,,,0.00,0.00,VWS V14.00,2013-02-21 10:54:00,
2013-02-21 04:55:00,47.6,37.2,29.91,NNE,26,0.0,0.0,67,0.00,,,0.00,0.00,VWS V14.00,2013-02-21 10:55:00,
2013-02-21 04:56:00,47.6,37.2,29.91,ENE,72,0.0,0.0,67,0.00,,,0.00,0.00,VWS V14.00,2013-02-21 10:56:00,
2013-02-21 04:57:00,47.6,37.2,29.91,ENE,72,0.0,0.0,67,0.00,,,0.00,0.00,VWS V14.00,2013-02-21 10:57:00,
2013-02-21 04:58:00,47.6,37.2,29.91,ENE,72,0.0,0.0,67,0.00,,,0.00,0.00,VWS V14.00,2013-02-21 10:58:00,
2013-02-21 04:59:00,47.7,37.3,29.91,ENE,72,0.0,0.0,67,0.00,,,0.00,0.00,VWS V14.00,2013-02-21 10:59:00,
2013-02-21 05:00:00,47.7,37.3,29.91,ENE,72,0.0,0.0,67,0.00,,,0.00,0.00,VWS V14.00,2013-02-21 11:00:00,
2013-02-21 05:01:00,47.7,37.3,29.91,ENE,66,0.0,0.0,67,0.00,,,0.00,0.00,VWS V14.00,2013-02-21 11:01:00,
2013-02-21 05:02:00,47.7,37.3,29.91,ENE,70,0.0,0.0,67,0.00,,,0.00,0.00,VWS V14.00,2013-02-21 11:02:00,
2013-02-21 05:03:00,47.7,37.3,29.91,ENE,70,0.0,0.0,67,0.00,,,0.00,0.00,VWS V14.00,2013-02-21 11:03:00,
2013-02-21 05:04:00,47.7,37.3,29.91,ENE,69,0.0,0.0,67,0.00,,,0.00,0.00,VWS V14.00,2013-02-21 11:04:00,
2013-02-21 05:05:00,47.9,37.5,29.91,ENE,69,0.0,0.0,67,0.00,,,0.00,0.00,VWS V14.00,2013-02-21 11:05:00,
2013-02-21 05:06:00,47.9,37.5,29.91,ENE,78,0.0,0.0,67,0.00,,,0.00,0.00,VWS V14.00,2013-02-21 11:06:00,
2013-02-21 05:07:00,47.9,37.5,29.91,ENE,78,0.0,0.0,67,0.00,,,0.00,0.00,VWS V14.00,2013-02-21 11:07:00,
2013-02-21 05:08:00,47.9,37.5,29.91,East,90,0.0,0.0,67,0.00,,,0.00,0.00,VWS V14.00,2013-02-21 11:08:00,
2013-02-21 05:09:00,47.9,37.5,29.91,NE,44,0.0,0.0,67,0.00,,,0.00,0.00,VWS V14.00,2013-02-21 11:09:00,
2013-02-21 05:10:00,47.9,37.5,29.91,NE,44,0.0,0.0,67,0.00,,,0.00,0.00,VWS V14.00,2013-02-21 11:10:00,
2013-02-21 05:11:00,48.0,37.6,29.91,North,9,0.0,0.0,67,0.00,,,0.00,0.00,VWS V14.00,2013-02-21 11:11:00,
2013-02-21 05:12:00,48.0,37.6,29.91,ENE,65,0.0,0.0,67,0.00,,,0.00,0.00,VWS V14.00,2013-02-21 11:12:00,
2013-02-21 05:13:00,48.0,37.6,29.91,NE,49,0.0,0.0,67,0.00,,,0.00,0.00,VWS V14.00,2013-02-21 11:13:00,
2013-02-21 05:14:00,48.0,37.6,29.91,NE,49,0.0,0.0,67,0.00,,,0.00,0.00,VWS V14.00,2013-02-21 11:14:00,
2013-02-21 05:15:00,48.0,37.6,29.91,NE,49,0.0,0.0,67,0.00,,,0.00,0.00,VWS V14.00,2013-02-21 11:15:00,
2013-02-21 05:16:00,48.0,37.6,29.91,NE,53,0.0,0.0,67,0.00,,,0.00,0.00,VWS V14.00,2013-02-21 11:16:00,
2013-02-21 05:17:00,48.0,37.6,29.91,NE,53,0.0,0.0,67,0.00,,,0.00,0.00,VWS V14.00,2013-02-21 11:17:00,
2013-02-21 05:18:00,48.0,37.6,29.91,NE,54,0.0,0.0,67,0.00,,,0.00,0.00,VWS V14.00,2013-02-21 11:18:00,
2013-02-21 05:19:00,48.0,37.6,29.91,NE,56,0.0,0.0,67,0.00,,,0.00,0.00,VWS V14.00,2013-02-21 11:19:00,
2013-02-21 05:20:00,48.0,37.6,29.91,NE,56,0.0,0.0,67,0.00,,,0.00,0.00,VWS V14.00,2013-02-21 11:20:00,
2013-02-21 05:21:00,48.0,37.6,29.91,North,10,0.0,0.0,67,0.00,,,0.00,0.00,VWS V14.00,2013-02-21 11:21:00,
2013-02-21 05:22:00,48.2,37.8,29.91,East,86,0.0,0.0,67,0.00,,,0.00,0.00,VWS V14.00,2013-02-21 11:22:00,
2013-02-21 05:23:00,48.2,37.8,29.91,East,85,0.0,0.0,67,0.00,,,0.00,0.00,VWS V14.00,2013-02-21 11:23:00,
2013-02-21 05:24:00,48.2,37.8,29.91,East,86,0.0,0.0,67,0.00,,,0.00,0.00,VWS V14.00,2013-02-21 11:24:00,
2013-02-21 05:25:00,48.2,37.8,29.91,East,86,0.0,0.0,67,0.00,,,0.00,0.00,VWS V14.00,2013-02-21 11:25:00,
2013-02-21 05:26:00,48.2,37.8,29.91,ENE,74,0.0,0.0,67,0.00,,,0.00,0.00,VWS V14.00,2013-02-21 11:26:00,
2013-02-21 05:27:00,48.3,38.2,29.91,ENE,76,0.0,0.0,68,0.00,,,0.00,0.00,VWS V14.00,2013-02-21 11:27:00,
2013-02-21 05:28:00,48.3,37.9,29.91,ENE,62,0.0,0.0,67,0.00,,,0.00,0.00,VWS V14.00,2013-02-21 11:28:00,
2013-02-21 05:29:00,48.3,37.9,29.91,ENE,65,0.0,0.0,67,0.00,,,0.00,0.00,VWS V14.00,2013-02-21 11:29:00,
2013-02-21 05:30:00,48.3,37.9,29.91,ENE,58,0.0,0.0,67,0.00,,,0.00,0.00,VWS V14.00,2013-02-21 11:30:00,
2013-02-21 05:31:00,48.3,38.2,29.91,ENE,59,0.0,0.0,68,0.00,,,0.00,0.00,VWS V14.00,2013-02-21 11:31:00,
2013-02-21 05:32:00,48.5,38.1,29.91,ENE,59,0.0,0.0,67,0.00,,,0.00,0.00,VWS V14.00,2013-02-21 11:32:00,
2013-02-21 05:33:00,48.5,38.4,29.91,ENE,59,0.0,0.0,68,0.00,,,0.00,0.00,VWS V14.00,2013-02-21 11:33:00,
2013-02-21 05:34:00,48.5,38.4,29.91,ENE,59,0.0,0.0,68,0.00,,,0.00,0.00,VWS V14.00,2013-02-21 11:34:00,
2013-02-21 05:35:00,48.5,38.4,29.91,NNE,22,0.0,0.0,68,0.00,,,0.00,0.00,VWS V14.00,2013-02-21 11:35:00,
2013-02-21 05:36:00,48.5,38.4,29.91,ENE,76,0.0,0.0,68,0.00,,,0.00,0.00,VWS V14.00,2013-02-21 11:36:00,
2013-02-21 05:37:00,48.5,38.1,29.91,ENE,76,0.0,0.0,67,0.00,,,0.00,0.00,VWS V14.00,2013-02-21 11:37:00,
2013-02-21 05:38:00,48.5,38.1,29.91,ENE,74,0.0,0.0,67,0.00,,,0.00,0.00,VWS V14.00,2013-02-21 11:38:00,
2013-02-21 05:39:00,48.5,38.4,29.91,ENE,74,0.0,0.0,68,0.00,,,0.00,0.00,VWS V14.00,2013-02-21 11:39:00,
2013-02-21 05:40:00,48.6,38.5,29.91,ENE,72,0.0,0.0,68,0.00,,,0.00,0.00,VWS V14.00,2013-02-21 11:40:00,
2013-02-21 05:41:00,48.6,38.5,29.91,ENE,72,0.0,0.0,68,0.00,,,0.00,0.00,VWS V14.00,2013-02-21 11:41:00,
2013-02-21 05:42:00,48.6,38.5,29.91,ENE,71,0.0,0.0,68,0.00,,,0.00,0.00,VWS V14.00,2013-02-21 11:42:00,
2013-02-21 05:43:00,48.6,38.5,29.91,ENE,71,0.0,0.0,68,0.00,,,0.00,0.00,VWS V14.00,2013-02-21 11:43:00,
2013-02-21 05:44:00,48.6,38.5,29.92,ENE,71,0.0,0.0,68,0.00,,,0.00,0.00,VWS V14.00,2013-02-21 11:44:00,
2013-02-21 05:45:00,48.6,38.5,29.92,East,90,0.0,0.0,68,0.00,,,0.00,0.00,VWS V14.00,2013-02-21 11:45:00,
2013-02-21 05:46:00,48.6,38.5,29.92,East,90,0.0,0.0,68,0.00,,,0.00,0.00,VWS V14.00,2013-02-21 11:46:00,
2013-02-21 05:47:00,48.6,38.5,29.92,ENE,70,0.0,0.0,68,0.00,,,0.00,0.00,VWS V14.00,2013-02-21 11:47:00,
2013-02-21 05:48:00,48.6,38.5,29.92,NE,36,0.0,0.0,68,0.00,,,0.00,0.00,VWS V14.00,2013-02-21 11:48:00,
2013-02-21 05:49:00,48.6,38.5,29.92,NE,36,0.0,0.0,68,0.00,,,0.00,0.00,VWS V14.00,2013-02-21 11:49:00,
2013-02-21 05:50:00,48.6,38.5,29.92,NE,38,0.0,0.0,68,0.00,,,0.00,0.00,VWS V14.00,2013-02-21 11:50:00,
2013-02-21 05:51:00,48.6,38.5,29.92,NE,38,0.0,0.0,68,0.00,,,0.00,0.00,VWS V14.00,2013-02-21 11:51:00,
2013-02-21 05:52:00,48.6,38.5,29.92,NE,38,0.0,0.0,68,0.00,,,0.00,0.00,VWS V14.00,2013-02-21 11:52:00,
2013-02-21 05:53:00,48.6,38.5,29.92,NE,38,0.0,0.0,68,0.00,,,0.00,0.00,VWS V14.00,2013-02-21 11:53:00,
2013-02-21 05:54:00,48.6,38.5,29.92,NE,38,0.0,0.0,68,0.00,,,0.00,0.00,VWS V14.00,2013-02-21 11:54:00,
2013-02-21 05:55:00,48.6,38.5,29.92,NE,38,0.0,0.0,68,0.00,,,0.00,0.00,VWS V14.00,2013-02-21 11:55:00,
2013-02-21 05:56:00,48.6,38.5,29.92,NE,38,0.0,0.0,68,0.00,,,0.00,0.00,VWS V14.00,2013-02-21 11:56:00,
2013-02-21 05:57:00,48.6,38.5,29.92,NE,38,0.0,0.0,68,0.00,,,0.00,0.00,VWS V14.00,2013-02-21 11:57:00,
2013-02-21 05:58:00,48.6,38.5,29.92,NE,38,0.0,0.0,68,0.00,,,0.00,0.00,VWS V14.00,2013-02-21 11:58:00,
2013-02-21 05:59:00,48.6,38.5,29.93,NE,39,0.0,0.0,68,0.00,,,0.00,0.00,VWS V14.00,2013-02-21 11:59:00,
2013-02-21 06:00:00,48.6,38.5,29.93,NE,38,0.0,0.0,68,0.00,,,0.00,0.00,VWS V14.00,2013-02-21 12:00:00,
2013-02-21 06:01:00,48.6,38.5,29.93,NE,55,0.0,0.0,68,0.00,,,0.00,0.00,VWS V14.00,2013-02-21 12:01:00,
2013-02-21 06:02:00,48.8,38.7,29.93,ENE,57,0.0,0.0,68,0.00,,,0.00,0.00,VWS V14.00,2013-02-21 12:02:00,
2013-02-21 06:03:00,48.8,38.7,29.93,NE,45,0.0,0.0,68,0.00,,,0.00,0.00,VWS V14.00,2013-02-21 12:03:00,
2013-02-21 06:04:00,48.8,38.7,29.93,NE,45,0.0,0.0,68,0.00,,,0.00,0.00,VWS V14.00,2013-02-21 12:04:00,
2013-02-21 06:05:00,48.8,38.7,29.93,NE,52,0.0,0.0,68,0.00,,,0.00,0.00,VWS V14.00,2013-02-21 12:05:00,
2013-02-21 06:06:00,48.8,38.7,29.93,NE,51,0.0,0.0,68,0.00,,,0.00,0.00,VWS V14.00,2013-02-21 12:06:00,
2013-02-21 06:07:00,48.8,38.7,29.93,NE,51,0.0,0.0,68,0.00,,,0.00,0.00,VWS V14.00,2013-02-21 12:07:00,
2013-02-21 06:08:00,48.8,38.7,29.93,East,84,0.0,0.0,68,0.00,,,0.00,0.00,VWS V14.00,2013-02-21 12:08:00,
2013-02-21 06:09:00,48.8,38.7,29.93,NNE,24,0.0,0.0,68,0.00,,,0.00,0.00,VWS V14.00,2013-02-21 12:09:00,
2013-02-21 06:10:00,48.8,38.7,29.93,NNE,24,0.0,0.0,68,0.00,,,0.00,0.00,VWS V14.00,2013-02-21 12:10:00,
2013-02-21 06:11:00,48.8,38.7,29.93,NNE,24,0.0,0.0,68,0.00,,,0.00,0.00,VWS V14.00,2013-02-21 12:11:00,
2013-02-21 06:12:00,48.8,39.1,29.93,East,85,0.0,0.0,69,0.00,,,0.00,0.00,VWS V14.00,2013-02-21 12:12:00,
2013-02-21 06:13:00,48.8,39.1,29.93,East,88,0.0,0.0,69,0.00,,,0.00,0.00,VWS V14.00,2013-02-21 12:13:00,
2013-02-21 06:14:00,48.8,39.1,29.93,North,355,0.0,0.0,69,0.00,,,0.00,0.00,VWS V14.00,2013-02-21 12:14:00,
2013-02-21 06:15:00,48.8,39.1,29.93,North,350,0.0,0.0,69,0.00,,,0.00,0.00,VWS V14.00,2013-02-21 12:15:00,
2013-02-21 06:16:00,48.8,39.1,29.93,NNW,348,0.0,0.0,69,0.00,,,0.00,0.00,VWS V14.00,2013-02-21 12:16:00,
2013-02-21 06:17:00,48.9,39.2,29.93,North,360,0.0,0.0,69,0.00,,,0.00,0.00,VWS V14.00,2013-02-21 12:17:00,
2013-02-21 06:18:00,48.9,39.2,29.93,NNE,27,0.0,0.0,69,0.00,,,0.00,0.00,VWS V14.00,2013-02-21 12:18:00,
2013-02-21 06:19:00,48.9,39.2,29.93,NNE,27,0.0,0.0,69,0.00,,,0.00,5.00,VWS V14.00,2013-02-21 12:19:00,
2013-02-21 06:20:00,48.9,39.2,29.93,ENE,61,0.0,0.0,69,0.00,,,0.00,5.00,VWS V14.00,2013-02-21 12:20:00,
2013-02-21 06:21:00,48.9,39.2,29.93,ENE,61,0.0,0.0,69,0.00,,,0.00,5.00,VWS V14.00,2013-02-21 12:21:00,
2013-02-21 06:22:00,48.9,39.2,29.93,ENE,67,0.0,0.0,69,0.00,,,0.00,5.00,VWS V14.00,2013-02-21 12:22:00,
2013-02-21 06:23:00,48.9,39.2,29.93,East,82,0.0,0.0,69,0.00,,,0.00,7.00,VWS V14.00,2013-02-21 12:23:00,
2013-02-21 06:24:00,48.9,39.2,29.93,East,82,0.0,0.0,69,0.00,,,0.00,7.00,VWS V14.00,2013-02-21 12:24:00,
2013-02-21 06:25:00,48.9,39.2,29.93,ENE,77,0.0,0.0,69,0.00,,,0.00,7.00,VWS V14.00,2013-02-21 12:25:00,
2013-02-21 06:26:00,48.9,39.2,29.93,ENE,76,0.0,0.0,69,0.00,,,0.00,7.00,VWS V14.00,2013-02-21 12:26:00,
2013-02-21 06:27:00,49.1,39.4,29.93,East,80,0.0,0.0,69,0.00,,,0.00,7.00,VWS V14.00,2013-02-21 12:27:00,
2013-02-21 06:28:00,49.1,39.4,29.93,East,80,0.0,0.0,69,0.00,,,0.00,9.00,VWS V14.00,2013-02-21 12:28:00,
2013-02-21 06:29:00,49.1,39.4,29.94,East,80,0.0,0.0,69,0.00,,,0.00,9.00,VWS V14.00,2013-02-21 12:29:00,
2013-02-21 06:30:00,49.1,39.8,29.94,East,80,0.0,0.0,70,0.00,,,0.00,9.00,VWS V14.00,2013-02-21 12:30:00,
2013-02-21 06:31:00,49.1,39.8,29.94,East,80,0.0,0.0,70,0.00,,,0.00,11.00,VWS V14.00,2013-02-21 12:31:00,
2013-02-21 06:32:00,49.1,39.8,29.94,East,80,0.0,0.0,70,0.00,,,0.00,11.00,VWS V14.00,2013-02-21 12:32:00,
2013-02-21 06:33:00,49.2,39.8,29.94,East,80,0.0,0.0,70,0.00,,,0.00,11.00,VWS V14.00,2013-02-21 12:33:00,
2013-02-21 06:34:00,49.2,39.8,29.94,East,80,0.0,0.0,70,0.00,,,0.00,11.00,VWS V14.00,2013-02-21 12:34:00,
2013-02-21 06:35:00,49.2,39.8,29.94,ENE,76,0.0,0.0,70,0.00,,,0.00,12.00,VWS V14.00,2013-02-21 12:35:00,
2013-02-21 06:36:00,49.2,39.8,29.94,ENE,76,0.0,0.0,70,0.00,,,0.00,12.00,VWS V14.00,2013-02-21 12:36:00,
2013-02-21 06:37:00,49.2,39.8,29.94,ENE,75,0.0,0.0,70,0.00,,,0.00,12.00,VWS V14.00,2013-02-21 12:37:00,
2013-02-21 06:38:00,49.2,39.8,29.94,ENE,75,0.0,0.0,70,0.00,,,0.00,14.00,VWS V14.00,2013-02-21 12:38:00,
2013-02-21 06:39:00,49.4,40.0,29.94,ENE,75,0.0,0.0,70,0.00,,,0.00,14.00,VWS V14.00,2013-02-21 12:39:00,
2013-02-21 06:40:00,49.4,40.0,29.94,ENE,75,0.0,0.0,70,0.00,,,0.00,16.00,VWS V14.00,2013-02-21 12:40:00,
2013-02-21 06:41:00,49.4,40.0,29.94,ENE,75,0.0,0.0,70,0.00,,,0.00,18.00,VWS V14.00,2013-02-21 12:41:00,
2013-02-21 06:42:00,49.4,40.0,29.94,ENE,60,0.0,0.0,70,0.00,,,0.00,19.00,VWS V14.00,2013-02-21 12:42:00,
2013-02-21 06:43:00,49.4,40.0,29.94,ENE,60,0.0,0.0,70,0.00,,,0.00,19.00,VWS V14.00,2013-02-21 12:43:00,
2013-02-21 06:44:00,49.4,40.0,29.94,ENE,68,0.0,0.0,70,0.00,,,0.00,19.00,VWS V14.00,2013-02-21 12:44:00,
2013-02-21 06:45:00,49.4,40.0,29.94,East,80,0.0,0.0,70,0.00,,,0.00,21.00,VWS V14.00,2013-02-21 12:45:00,
2013-02-21 06:46:00,49.5,40.1,29.94,ENE,78,0.0,0.0,70,0.00,,,0.00,23.00,VWS V14.00,2013-02-21 12:46:00,
2013-02-21 06:47:00,49.5,40.1,29.94,ENE,78,0.0,0.0,70,0.00,,,0.00,23.00,VWS V14.00,2013-02-21 12:47:00,
2013-02-21 06:48:00,49.5,40.1,29.94,ENE,78,0.0,0.0,70,0.00,,,0.00,25.00,VWS V14.00,2013-02-21 12:48:00,
2013-02-21 06:49:00,49.5,40.1,29.94,East,90,0.0,0.0,70,0.00,,,0.00,26.00,VWS V14.00,2013-02-21 12:49:00,
2013-02-21 06:50:00,49.5,40.1,29.94,East,83,0.0,0.0,70,0.00,,,0.00,25.00,VWS V14.00,2013-02-21 12:50:00,
2013-02-21 06:51:00,49.5,40.1,29.94,ENE,74,0.0,0.0,70,0.00,,,0.00,25.00,VWS V14.00,2013-02-21 12:51:00,
2013-02-21 06:52:00,49.6,40.2,29.94,ENE,74,0.0,0.0,70,0.00,,,0.00,23.00,VWS V14.00,2013-02-21 12:52:00,
2013-02-21 06:53:00,49.6,40.2,29.94,ENE,74,0.0,0.0,70,0.00,,,0.00,23.00,VWS V14.00,2013-02-21 12:53:00,
2013-02-21 06:54:00,49.6,40.2,29.94,North,355,0.0,0.0,70,0.00,,,0.00,21.00,VWS V14.00,2013-02-21 12:54:00,
2013-02-21 06:55:00,49.6,40.2,29.94,North,355,0.0,0.0,70,0.00,,,0.00,21.00,VWS V14.00,2013-02-21 12:55:00,
2013-02-21 06:56:00,49.6,40.2,29.94,East,82,0.0,0.0,70,0.00,,,0.00,23.00,VWS V14.00,2013-02-21 12:56:00,
2013-02-21 06:57:00,49.6,40.2,29.94,East,81,0.0,0.0,70,0.00,,,0.00,26.00,VWS V14.00,2013-02-21 12:57:00,
2013-02-21 06:58:00,49.8,40.4,29.94,ENE,74,0.0,0.0,70,0.00,,,0.00,28.00,VWS V14.00,2013-02-21 12:58:00,
2013-02-21 06:59:00,49.8,40.4,29.94,ENE,76,0.0,0.0,70,0.00,,,0.00,30.00,VWS V14.00,2013-02-21 12:59:00,
2013-02-21 07:00:00,49.8,40.4,29.94,ENE,76,0.0,0.0,70,0.00,,,0.00,33.00,VWS V14.00,2013-02-21 13:00:00,
2013-02-21 07:01:00,49.8,40.4,29.94,ENE,73,0.0,0.0,70,0.00,,,0.00,33.00,VWS V14.00,2013-02-21 13:01:00,
2013-02-21 07:02:00,49.8,40.4,29.94,ENE,74,0.0,0.0,70,0.00,,,0.00,35.00,VWS V14.00,2013-02-21 13:02:00,
2013-02-21 07:03:00,49.9,40.5,29.94,ENE,66,0.0,0.0,70,0.00,,,0.00,35.00,VWS V14.00,2013-02-21 13:03:00,
2013-02-21 07:04:00,49.9,40.5,29.94,North,360,0.0,0.0,70,0.00,,,0.00,33.00,VWS V14.00,2013-02-21 13:04:00,
2013-02-21 07:05:00,49.9,40.5,29.94,North,360,0.0,0.0,70,0.00,,,0.00,33.00,VWS V14.00,2013-02-21 13:05:00,
2013-02-21 07:06:00,49.9,40.5,29.94,North,360,0.0,0.0,70,0.00,,,0.00,33.00,VWS V14.00,2013-02-21 13:06:00,
2013-02-21 07:07:00,50.1,40.7,29.94,North,360,0.0,0.0,70,0.00,,,0.00,33.00,VWS V14.00,2013-02-21 13:07:00,
2013-02-21 07:08:00,50.1,40.7,29.94,North,360,0.0,0.0,70,0.00,,,0.00,35.00,VWS V14.00,2013-02-21 13:08:00,
2013-02-21 07:09:00,50.1,40.7,29.94,North,360,0.0,0.0,70,0.00,,,0.00,35.00,VWS V14.00,2013-02-21 13:09:00,
2013-02-21 07:10:00,50.1,40.7,29.94,North,360,0.0,0.0,70,0.00,,,0.00,35.00,VWS V14.00,2013-02-21 13:10:00,
2013-02-21 07:11:00,50.1,40.7,29.94,ENE,69,0.0,0.0,70,0.00,,,0.00,37.00,VWS V14.00,2013-02-21 13:11:00,
2013-02-21 07:12:00,50.1,40.7,29.94,ENE,68,0.0,0.0,70,0.00,,,0.00,39.00,VWS V14.00,2013-02-21 13:12:00,
2013-02-21 07:13:00,50.2,40.8,29.94,NE,49,0.0,0.0,70,0.00,,,0.00,40.00,VWS V14.00,2013-02-21 13:13:00,
2013-02-21 07:14:00,50.2,40.8,29.94,NE,49,0.0,0.0,70,0.00,,,0.00,40.00,VWS V14.00,2013-02-21 13:14:00,
2013-02-21 07:15:00,50.2,40.8,29.94,NNE,12,0.0,0.0,70,0.00,,,0.00,46.00,VWS V14.00,2013-02-21 13:15:00,
2013-02-21 07:16:00,50.2,40.8,29.94,NNE,12,0.0,0.0,70,0.00,,,0.00,49.00,VWS V14.00,2013-02-21 13:16:00,
2013-02-21 07:17:00,50.2,40.8,29.94,NNE,12,0.0,0.0,70,0.00,,,0.00,56.00,VWS V14.00,2013-02-21 13:17:00,
2013-02-21 07:18:00,50.4,41.0,29.94,NNE,12,0.0,0.0,70,0.00,,,0.00,67.00,VWS V14.00,2013-02-21 13:18:00,
2013-02-21 07:19:00,50.4,41.0,29.94,NNE,12,0.0,0.0,70,0.00,,,0.00,76.00,VWS V14.00,2013-02-21 13:19:00,
2013-02-21 07:20:00,50.4,41.0,29.94,NNE,12,0.0,0.0,70,0.00,,,0.00,79.00,VWS V14.00,2013-02-21 13:20:00,
2013-02-21 07:21:00,50.4,41.0,29.94,NNE,12,0.0,0.0,70,0.00,,,0.00,86.00,VWS V14.00,2013-02-21 13:21:00,
2013-02-21 07:22:00,50.4,41.4,29.94,NNE,12,0.0,0.0,71,0.00,,,0.00,90.00,VWS V14.00,2013-02-21 13:22:00,
2013-02-21 07:23:00,50.5,41.5,29.94,NNE,15,0.0,0.0,71,0.00,,,0.00,95.00,VWS V14.00,2013-02-21 13:23:00,
2013-02-21 07:24:00,50.5,41.5,29.94,ENE,61,0.0,0.0,71,0.00,,,0.00,105.00,VWS V14.00,2013-02-21 13:24:00,
2013-02-21 07:25:00,50.5,41.1,29.94,ENE,63,0.0,0.0,70,0.00,,,0.00,167.00,VWS V14.00,2013-02-21 13:25:00,
2013-02-21 07:26:00,50.5,41.1,29.94,ENE,64,0.0,0.0,70,0.00,,,0.00,174.00,VWS V14.00,2013-02-21 13:26:00,
2013-02-21 07:27:00,50.7,41.3,29.94,ENE,67,0.0,0.0,70,0.00,,,0.00,148.00,VWS V14.00,2013-02-21 13:27:00,
2013-02-21 07:28:00,50.7,41.3,29.94,ENE,67,0.0,0.0,70,0.00,,,0.00,142.00,VWS V14.00,2013-02-21 13:28:00,
2013-02-21 07:29:00,50.7,41.3,29.95,ENE,67,0.0,0.0,70,0.00,,,0.00,163.00,VWS V14.00,2013-02-21 13:29:00,
2013-02-21 07:30:00,50.8,41.8,29.95,NE,41,0.0,0.0,71,0.00,,,0.00,204.00,VWS V14.00,2013-02-21 13:30:00,
2013-02-21 07:31:00,51.0,41.9,29.95,East,88,0.0,0.0,71,0.00,,,0.00,151.00,VWS V14.00,2013-02-21 13:31:00,
2013-02-21 07:32:00,51.0,41.9,29.95,East,82,0.0,0.0,71,0.00,,,0.00,125.00,VWS V14.00,2013-02-21 13:32:00,
2013-02-21 07:33:00,51.1,42.0,29.95,North,10,0.0,0.0,71,0.00,,,0.00,120.00,VWS V14.00,2013-02-21 13:33:00,
2013-02-21 07:34:00,51.3,42.2,29.95,ENE,64,0.0,0.0,71,0.00,,,0.00,116.00,VWS V14.00,2013-02-21 13:34:00,
2013-02-21 07:35:00,51.4,42.3,29.95,ENE,75,0.0,0.0,71,0.00,,,0.00,116.00,VWS V14.00,2013-02-21 13:35:00,
2013-02-21 07:36:00,51.6,42.2,29.95,ENE,63,0.0,0.0,70,0.00,,,0.00,116.00,VWS V14.00,2013-02-21 13:36:00,
2013-02-21 07:37:00,51.6,42.2,29.95,NNE,22,0.0,0.0,70,0.00,,,0.00,118.00,VWS V14.00,2013-02-21 13:37:00,
2013-02-21 07:38:00,51.7,42.2,29.95,NNE,32,0.0,0.0,70,0.00,,,0.00,116.00,VWS V14.00,2013-02-21 13:38:00,
2013-02-21 07:39:00,51.9,42.4,29.95,NNW,334,0.0,0.0,70,0.00,,,0.00,116.00,VWS V14.00,2013-02-21 13:39:00,
2013-02-21 07:40:00,51.9,42.8,29.95,NNW,334,0.0,0.0,71,0.00,,,0.00,121.00,VWS V14.00,2013-02-21 13:40:00,
2013-02-21 07:41:00,52.0,42.9,29.95,North,360,0.0,0.0,71,0.00,,,0.00,127.00,VWS V14.00,2013-02-21 13:41:00,
2013-02-21 07:42:00,52.0,42.9,29.95,NNE,28,0.0,0.0,71,0.00,,,0.00,128.00,VWS V14.00,2013-02-21 13:42:00,
2013-02-21 07:43:00,52.2,43.1,29.95,NNE,27,0.0,0.0,71,0.00,,,0.00,121.00,VWS V14.00,2013-02-21 13:43:00,
2013-02-21 07:44:00,52.2,43.1,29.95,NNE,30,0.0,0.0,71,0.00,,,0.00,121.00,VWS V14.00,2013-02-21 13:44:00,
2013-02-21 07:45:00,52.3,43.2,29.95,NE,46,0.0,0.0,71,0.00,,,0.00,125.00,VWS V14.00,2013-02-21 13:45:00,
2013-02-21 07:46:00,52.3,42.8,29.95,ENE,74,0.0,0.0,70,0.00,,,0.00,120.00,VWS V14.00,2013-02-21 13:46:00,
2013-02-21 07:47:00,52.5,43.0,29.95,ENE,72,0.0,0.0,70,0.00,,,0.00,118.00,VWS V14.00,2013-02-21 13:47:00,
2013-02-21 07:48:00,52.5,43.0,29.95,ENE,61,0.0,0.0,70,0.00,,,0.00,118.00,VWS V14.00,2013-02-21 13:48:00,
2013-02-21 07:49:00,52.6,43.1,29.95,NNE,17,0.0,0.0,70,0.00,,,0.00,135.00,VWS V14.00,2013-02-21 13:49:00,
2013-02-21 07:50:00,52.6,43.5,29.95,NNE,17,0.0,0.0,71,0.00,,,0.00,134.00,VWS V14.00,2013-02-21 13:50:00,
2013-02-21 07:51:00,52.8,43.3,29.95,NNE,17,0.0,0.0,70,0.00,,,0.00,134.00,VWS V14.00,2013-02-21 13:51:00,
2013-02-21 07:52:00,52.8,43.7,29.95,East,80,0.0,0.0,71,0.00,,,0.00,127.00,VWS V14.00,2013-02-21 13:52:00,
2013-02-21 07:53:00,52.9,43.4,29.95,NE,38,0.0,0.0,70,0.00,,,0.00,134.00,VWS V14.00,2013-02-21 13:53:00,
2013-02-21 07:54:00,53.1,43.6,29.95,NE,35,0.0,0.0,70,0.00,,,0.00,121.00,VWS V14.00,2013-02-21 13:54:00,
2013-02-21 07:55:00,53.1,44.0,29.95,NE,36,0.0,0.0,71,0.00,,,0.00,123.00,VWS V14.00,2013-02-21 13:55:00,
2013-02-21 07:56:00,53.2,44.0,29.95,ESE,115,0.0,0.0,71,0.00,,,0.00,130.00,VWS V14.00,2013-02-21 13:56:00,
2013-02-21 07:57:00,53.3,44.2,29.95,East,92,0.0,0.0,71,0.00,,,0.00,128.00,VWS V14.00,2013-02-21 13:57:00,
2013-02-21 07:58:00,53.3,44.2,29.95,East,91,0.0,0.0,71,0.00,,,0.00,121.00,VWS V14.00,2013-02-21 13:58:00,
2013-02-21 07:59:00,53.5,44.3,29.95,East,101,0.0,0.0,71,0.00,,,0.00,113.00,VWS V14.00,2013-02-21 13:59:00,
2013-02-21 08:00:00,53.6,44.4,29.95,East,94,0.0,0.0,71,0.00,,,0.00,105.00,VWS V14.00,2013-02-21 14:00:00,
2013-02-21 08:01:00,53.6,44.8,29.95,ENE,71,0.0,0.0,72,0.00,,,0.00,102.00,VWS V14.00,2013-02-21 14:01:00,
2013-02-21 08:02:00,53.8,45.0,29.95,ENE,71,0.0,0.0,72,0.00,,,0.00,107.00,VWS V14.00,2013-02-21 14:02:00,
2013-02-21 08:03:00,53.8,45.0,29.95,ENE,71,0.0,0.0,72,0.00,,,0.00,114.00,VWS V14.00,2013-02-21 14:03:00,
2013-02-21 08:04:00,53.9,45.1,29.95,East,81,0.0,0.0,72,0.00,,,0.00,132.00,VWS V14.00,2013-02-21 14:04:00,
2013-02-21 08:05:00,54.1,45.7,29.95,ENE,60,0.0,0.0,73,0.00,,,0.00,142.00,VWS V14.00,2013-02-21 14:05:00,
2013-02-21 08:06:00,54.2,45.8,29.95,East,81,0.0,0.0,73,0.00,,,0.00,142.00,VWS V14.00,2013-02-21 14:06:00,
2013-02-21 08:07:00,54.4,45.9,29.95,ENE,61,0.0,0.0,73,0.00,,,0.00,155.00,VWS V14.00,2013-02-21 14:07:00,
2013-02-21 08:08:00,54.5,46.0,29.95,ENE,63,0.0,0.0,73,0.00,,,0.00,160.00,VWS V14.00,2013-02-21 14:08:00,
2013-02-21 08:09:00,54.7,46.2,29.95,ESE,107,0.0,0.0,73,0.00,,,0.00,167.00,VWS V14.00,2013-02-21 14:09:00,
2013-02-21 08:10:00,54.7,46.2,29.95,East,86,0.0,0.0,73,0.00,,,0.00,174.00,VWS V14.00,2013-02-21 14:10:00,
2013-02-21 08:11:00,54.8,46.7,29.95,East,86,0.0,0.0,74,0.00,,,0.00,172.00,VWS V14.00,2013-02-21 14:11:00,
2013-02-21 08:12:00,55.0,46.9,29.95,East,86,0.0,0.0,74,0.00,,,0.00,227.00,VWS V14.00,2013-02-21 14:12:00,
2013-02-21 08:13:00,55.1,47.0,29.95,ENE,74,0.0,0.0,74,0.00,,,0.00,348.00,VWS V14.00,2013-02-21 14:13:00,
2013-02-21 08:14:00,55.3,47.2,29.95,SE,133,0.0,0.0,74,0.00,,,0.00,355.00,VWS V14.00,2013-02-21 14:14:00,
2013-02-21 08:15:00,55.4,47.3,29.95,SE,137,0.0,0.0,74,0.00,,,0.00,355.00,VWS V14.00,2013-02-21 14:15:00,
2013-02-21 08:16:00,55.6,47.5,29.95,ESE,121,0.0,0.0,74,0.00,,,0.00,360.00,VWS V14.00,2013-02-21 14:16:00,
2013-02-21 08:17:00,55.7,47.5,29.95,SE,136,0.0,0.0,74,0.00,,,0.00,362.00,VWS V14.00,2013-02-21 14:17:00,
2013-02-21 08:18:00,55.9,47.7,29.95,SE,136,0.0,0.0,74,0.00,,,0.00,352.00,VWS V14.00,2013-02-21 14:18:00,
2013-02-21 08:19:00,56.0,47.8,29.95,NE,54,0.0,0.0,74,0.00,,,0.00,294.00,VWS V14.00,2013-02-21 14:19:00,
2013-02-21 08:20:00,56.2,47.7,29.95,East,85,0.0,0.0,73,0.00,,,0.00,290.00,VWS V14.00,2013-02-21 14:20:00,
2013-02-21 08:21:00,56.3,47.8,29.95,East,88,0.0,0.0,73,0.00,,,0.00,250.00,VWS V14.00,2013-02-21 14:21:00,
2013-02-21 08:22:00,56.5,48.0,29.95,ESE,113,0.0,0.0,73,0.00,,,0.00,199.00,VWS V14.00,2013-02-21 14:22:00,
2013-02-21 08:23:00,56.6,48.1,29.95,ENE,63,0.0,0.0,73,0.00,,,0.00,236.00,VWS V14.00,2013-02-21 14:23:00,
2013-02-21 08:24:00,56.7,48.2,29.95,East,90,0.0,0.0,73,0.00,,,0.00,174.00,VWS V14.00,2013-02-21 14:24:00,
2013-02-21 08:25:00,56.9,48.0,29.95,ENE,64,0.0,0.0,72,0.00,,,0.00,158.00,VWS V14.00,2013-02-21 14:25:00,
2013-02-21 08:26:00,56.9,48.0,29.95,ENE,71,0.0,0.0,72,0.00,,,0.00,135.00,VWS V14.00,2013-02-21 14:26:00,
2013-02-21 08:27:00,56.9,48.0,29.95,ENE,68,0.0,0.0,72,0.00,,,0.00,113.00,VWS V14.00,2013-02-21 14:27:00,
2013-02-21 08:28:00,57.0,48.1,29.95,East,84,0.0,0.0,72,0.00,,,0.00,98.00,VWS V14.00,2013-02-21 14:28:00,
2013-02-21 08:29:00,57.0,48.1,29.95,East,94,0.0,0.0,72,0.00,,,0.00,100.00,VWS V14.00,2013-02-21 14:29:00,
2013-02-21 08:30:00,57.0,48.1,29.95,NE,54,0.0,0.0,72,0.00,,,0.00,100.00,VWS V14.00,2013-02-21 14:30:00,
2013-02-21 08:31:00,57.0,48.1,29.95,East,95,0.0,0.0,72,0.00,,,0.00,113.00,VWS V14.00,2013-02-21 14:31:00,
2013-02-21 08:32:00,57.0,48.4,29.95,ENE,74,0.0,0.0,73,0.00,,,0.00,98.00,VWS V14.00,2013-02-21 14:32:00,
2013-02-21 08:33:00,57.0,48.4,29.95,East,82,0.0,0.0,73,0.00,,,0.00,84.00,VWS V14.00,2013-02-21 14:33:00,
2013-02-21 08:34:00,57.0,48.4,29.95,ESE,109,0.0,0.0,73,0.00,,,0.00,95.00,VWS V14.00,2013-02-21 14:34:00,
2013-02-21 08:35:00,57.0,48.4,29.95,ENE,67,0.0,0.0,73,0.00,,,0.00,95.00,VWS V14.00,2013-02-21 14:35:00,
2013-02-21 08:36:00,57.0,48.4,29.95,East,84,0.0,0.0,73,0.00,,,0.00,97.00,VWS V14.00,2013-02-21 14:36:00,
2013-02-21 08:37:00,57.0,48.4,29.95,ENE,74,0.0,0.0,73,0.00,,,0.00,97.00,VWS V14.00,2013-02-21 14:37:00,
2013-02-21 08:38:00,56.9,48.7,29.95,ENE,69,0.0,0.0,74,0.00,,,0.00,123.00,VWS V14.00,2013-02-21 14:38:00,
2013-02-21 08:39:00,56.9,48.7,29.95,North,5,0.0,0.0,74,0.00,,,0.00,120.00,VWS V14.00,2013-02-21 14:39:00,
2013-02-21 08:40:00,56.9,48.7,29.95,East,101,0.0,0.0,74,0.00,,,0.00,125.00,VWS V14.00,2013-02-21 14:40:00,
2013-02-21 08:41:00,56.9,48.7,29.95,ESE,103,0.0,0.0,74,0.00,,,0.00,148.00,VWS V14.00,2013-02-21 14:41:00,
2013-02-21 08:42:00,56.9,48.7,29.95,ENE,77,0.0,0.0,74,0.00,,,0.00,192.00,VWS V14.00,2013-02-21 14:42:00,
2013-02-21 08:43:00,56.9,49.1,29.95,ENE,77,0.0,0.0,75,0.00,,,0.00,223.00,VWS V14.00,2013-02-21 14:43:00,
2013-02-21 08:44:00,56.9,49.1,29.95,East,88,0.0,0.0,75,0.00,,,0.00,202.00,VWS V14.00,2013-02-21 14:44:00,
2013-02-21 08:45:00,56.9,49.1,29.95,East,82,0.0,0.0,75,0.00,,,0.00,211.00,VWS V14.00,2013-02-21 14:45:00,
2013-02-21 08:46:00,56.9,49.1,29.95,East,84,0.0,0.0,75,0.00,,,0.00,211.00,VWS V14.00,2013-02-21 14:46:00,
2013-02-21 08:47:00,56.9,49.1,29.95,East,80,0.0,0.0,75,0.00,,,0.00,195.00,VWS V14.00,2013-02-21 14:47:00,
2013-02-21 08:48:00,56.9,49.1,29.95,East,84,0.0,0.0,75,0.00,,,0.00,186.00,VWS V14.00,2013-02-21 14:48:00,
2013-02-21 08:49:00,56.9,49.1,29.95,NE,52,0.0,0.0,75,0.00,,,0.00,176.00,VWS V14.00,2013-02-21 14:49:00,
2013-02-21 08:50:00,56.9,49.1,29.95,East,100,0.0,0.0,75,0.00,,,0.00,171.00,VWS V14.00,2013-02-21 14:50:00,
2013-02-21 08:51:00,56.9,49.1,29.95,ENE,65,0.0,0.0,75,0.00,,,0.00,171.00,VWS V14.00,2013-02-21 14:51:00,
2013-02-21 08:52:00,57.0,49.2,29.95,NE,53,0.0,0.0,75,0.00,,,0.00,176.00,VWS V14.00,2013-02-21 14:52:00,
2013-02-21 08:53:00,57.0,49.2,29.95,East,82,0.0,0.0,75,0.00,,,0.00,171.00,VWS V14.00,2013-02-21 14:53:00,
2013-02-21 08:54:00,57.0,49.2,29.95,ENE,67,0.0,0.0,75,0.00,,,0.00,171.00,VWS V14.00,2013-02-21 14:54:00,
2013-02-21 08:55:00,57.0,49.2,29.95,ENE,78,0.0,0.0,75,0.00,,,0.00,162.00,VWS V14.00,2013-02-21 14:55:00,
2013-02-21 08:56:00,57.0,49.2,29.95,NE,51,0.0,0.0,75,0.00,,,0.00,160.00,VWS V14.00,2013-02-21 14:56:00,
2013-02-21 08:57:00,57.0,49.2,29.95,East,93,0.0,0.0,75,0.00,,,0.00,153.00,VWS V14.00,2013-02-21 14:57:00,
2013-02-21 08:58:00,57.0,49.2,29.95,ENE,65,0.0,0.0,75,0.00,,,0.00,151.00,VWS V14.00,2013-02-21 14:58:00,
2013-02-21 08:59:00,57.0,49.2,29.94,East,95,0.0,0.0,75,0.00,,,0.00,171.00,VWS V14.00,2013-02-21 14:59:00,
2013-02-21 09:00:00,57.0,49.2,29.94,East,94,0.0,0.0,75,0.00,,,0.00,179.00,VWS V14.00,2013-02-21 15:00:00,
2013-02-21 09:01:00,57.0,49.5,29.94,SE,134,0.0,0.0,76,0.00,,,0.00,188.00,VWS V14.00,2013-02-21 15:01:00,
2013-02-21 09:02:00,57.0,49.5,29.94,SE,139,0.0,0.0,76,0.00,,,0.00,213.00,VWS V14.00,2013-02-21 15:02:00,
2013-02-21 09:03:00,57.2,49.7,29.94,East,82,0.0,0.0,76,0.00,,,0.00,308.00,VWS V14.00,2013-02-21 15:03:00,
2013-02-21 09:04:00,57.2,49.7,29.94,East,90,0.0,0.0,76,0.00,,,0.00,274.00,VWS V14.00,2013-02-21 15:04:00,
2013-02-21 09:05:00,57.3,49.8,29.94,NE,52,0.0,0.0,76,0.00,,,0.00,271.00,VWS V14.00,2013-02-21 15:05:00,
2013-02-21 09:06:00,57.3,49.8,29.94,NE,51,0.0,0.0,76,0.00,,,0.00,248.00,VWS V14.00,2013-02-21 15:06:00,
2013-02-21 09:07:00,57.3,49.8,29.94,SSW,207,0.0,0.0,76,0.00,,,0.00,214.00,VWS V14.00,2013-02-21 15:07:00,
2013-02-21 09:08:00,57.5,50.0,29.94,NE,38,0.0,0.0,76,0.00,,,0.00,192.00,VWS V14.00,2013-02-21 15:08:00,
2013-02-21 09:09:00,57.5,50.0,29.94,SE,134,0.0,0.0,76,0.00,,,0.00,176.00,VWS V14.00,2013-02-21 15:09:00,
2013-02-21 09:10:00,57.5,49.7,29.94,NE,36,0.0,0.0,75,0.00,,,0.00,171.00,VWS V14.00,2013-02-21 15:10:00,
2013-02-21 09:11:00,57.6,50.1,29.94,East,97,0.0,0.0,76,0.00,,,0.00,188.00,VWS V14.00,2013-02-21 15:11:00,
2013-02-21 09:12:00,57.6,49.8,29.94,East,96,0.0,0.0,75,0.00,,,0.00,209.00,VWS V14.00,2013-02-21 15:12:00,
2013-02-21 09:13:00,57.6,50.1,29.94,East,86,0.0,0.0,76,0.00,,,0.00,243.00,VWS V14.00,2013-02-21 15:13:00,
2013-02-21 09:14:00,57.6,49.8,29.94,SE,146,0.0,0.0,75,0.00,,,0.00,223.00,VWS V14.00,2013-02-21 15:14:00,
2013-02-21 09:15:00,57.6,50.1,29.94,SE,136,0.0,0.0,76,0.00,,,0.00,220.00,VWS V14.00,2013-02-21 15:15:00,
2013-02-21 09:16:00,57.6,49.8,29.94,ESE,120,0.0,0.0,75,0.00,,,0.00,229.00,VWS V14.00,2013-02-21 15:16:00,
2013-02-21 09:17:00,57.6,49.8,29.94,South,175,0.0,0.0,75,0.00,,,0.00,232.00,VWS V14.00,2013-02-21 15:17:00,
2013-02-21 09:18:00,57.6,49.8,29.94,SE,136,0.0,0.0,75,0.00,,,0.00,199.00,VWS V14.00,2013-02-21 15:18:00,
2013-02-21 09:19:00,57.6,49.8,29.94,East,82,0.0,0.0,75,0.00,,,0.00,165.00,VWS V14.00,2013-02-21 15:19:00,
2013-02-21 09:20:00,57.5,49.7,29.94,East,94,0.0,0.0,75,0.00,,,0.00,158.00,VWS V14.00,2013-02-21 15:20:00,
2013-02-21 09:21:00,57.5,50.0,29.94,NE,49,0.0,0.0,76,0.00,,,0.00,151.00,VWS V14.00,2013-02-21 15:21:00,
2013-02-21 09:22:00,57.5,50.0,29.94,ENE,71,0.0,0.0,76,0.00,,,0.00,156.00,VWS V14.00,2013-02-21 15:22:00,
2013-02-21 09:23:00,57.5,50.0,29.94,ENE,71,0.0,0.0,76,0.00,,,0.00,171.00,VWS V14.00,2013-02-21 15:23:00,
2013-02-21 09:24:00,57.5,50.0,29.94,ENE,65,0.0,0.0,76,0.00,,,0.00,162.00,VWS V14.00,2013-02-21 15:24:00,
2013-02-21 09:25:00,57.5,50.0,29.94,East,93,0.0,0.0,76,0.00,,,0.00,153.00,VWS V14.00,2013-02-21 15:25:00,
2013-02-21 09:26:00,57.5,50.0,29.94,ENE,76,0.0,0.0,76,0.00,,,0.00,156.00,VWS V14.00,2013-02-21 15:26:00,
2013-02-21 09:27:00,57.5,50.0,29.94,East,85,0.0,0.0,76,0.00,,,0.00,163.00,VWS V14.00,2013-02-21 15:27:00,
2013-02-21 09:28:00,57.5,50.0,29.94,SE,126,0.0,0.0,76,0.00,,,0.00,156.00,VWS V14.00,2013-02-21 15:28:00,
2013-02-21 09:29:00,57.5,50.0,29.94,ENE,67,0.0,0.0,76,0.00,,,0.00,156.00,VWS V14.00,2013-02-21 15:29:00,
2013-02-21 09:30:00,57.5,50.4,29.94,ENE,57,0.0,0.0,77,0.00,,,0.00,197.00,VWS V14.00,2013-02-21 15:30:00,
2013-02-21 09:31:00,57.5,50.4,29.94,SE,133,0.0,0.0,77,0.00,,,0.00,179.00,VWS V14.00,2013-02-21 15:31:00,
2013-02-21 09:32:00,57.5,50.4,29.94,SSE,164,0.0,0.0,77,0.00,,,0.00,169.00,VWS V14.00,2013-02-21 15:32:00,
2013-02-21 09:33:00,57.5,50.4,29.94,NNE,24,0.0,0.0,77,0.00,,,0.00,167.00,VWS V14.00,2013-02-21 15:33:00,
2013-02-21 09:34:00,57.5,50.7,29.94,ESE,109,0.0,0.0,78,0.00,,,0.00,174.00,VWS V14.00,2013-02-21 15:34:00,
2013-02-21 09:35:00,57.5,50.7,29.94,ENE,65,0.0,0.0,78,0.00,,,0.00,193.00,VWS V14.00,2013-02-21 15:35:00,
2013-02-21 09:36:00,57.5,50.7,29.94,East,90,0.0,0.0,78,0.00,,,0.00,134.00,VWS V14.00,2013-02-21 15:36:00,
2013-02-21 09:37:00,57.5,50.7,29.94,ESE,122,0.0,0.0,78,0.00,,,0.00,135.00,VWS V14.00,2013-02-21 15:37:00,
2013-02-21 09:38:00,57.5,50.7,29.94,ESE,122,0.0,0.0,78,0.00,,,0.00,151.00,VWS V14.00,2013-02-21 15:38:00,
2013-02-21 09:39:00,57.5,50.7,29.94,East,101,0.0,0.0,78,0.00,,,0.00,155.00,VWS V14.00,2013-02-21 15:39:00,
2013-02-21 09:40:00,57.5,50.7,29.94,East,90,0.0,0.0,78,0.00,,,0.00,139.00,VWS V14.00,2013-02-21 15:40:00,
2013-02-21 09:41:00,57.5,50.7,29.94,East,92,0.0,0.0,78,0.00,,,0.00,130.00,VWS V14.00,2013-02-21 15:41:00,
2013-02-21 09:42:00,57.5,50.7,29.94,East,96,0.0,0.0,78,0.00,,,0.00,116.00,VWS V14.00,2013-02-21 15:42:00,
2013-02-21 09:43:00,57.5,50.7,29.94,SSE,148,0.0,0.0,78,0.00,,,0.00,102.00,VWS V14.00,2013-02-21 15:43:00,
2013-02-21 09:44:00,57.5,50.7,29.94,ENE,71,0.0,0.0,78,0.00,,,0.00,91.00,VWS V14.00,2013-02-21 15:44:00,
2013-02-21 09:45:00,57.5,50.7,29.94,ENE,76,0.0,0.0,78,0.00,,,0.00,97.00,VWS V14.00,2013-02-21 15:45:00,
2013-02-21 09:46:00,57.5,50.7,29.94,ENE,78,0.0,0.0,78,0.00,,,0.00,104.00,VWS V14.00,2013-02-21 15:46:00,
2013-02-21 09:47:00,57.5,50.7,29.94,ESE,105,0.0,0.0,78,0.00,,,0.00,121.00,VWS V14.00,2013-02-21 15:47:00,
2013-02-21 09:48:00,57.5,50.7,29.94,ESE,105,0.0,0.0,78,0.00,,,0.00,114.00,VWS V14.00,2013-02-21 15:48:00,
2013-02-21 09:49:00,57.3,50.8,29.94,ENE,68,0.0,0.0,79,0.00,,,0.00,104.00,VWS V14.00,2013-02-21 15:49:00,
2013-02-21 09:50:00,57.3,50.8,29.94,ENE,68,0.0,0.0,79,0.00,,,0.00,97.00,VWS V14.00,2013-02-21 15:50:00,
2013-02-21 09:51:00,57.3,50.8,29.94,East,87,0.0,0.0,79,0.00,,,0.00,97.00,VWS V14.00,2013-02-21 15:51:00,
2013-02-21 09:52:00,57.3,50.8,29.94,East,92,0.0,0.0,79,0.00,,,0.00,88.00,VWS V14.00,2013-02-21 15:52:00,
2013-02-21 09:53:00,57.3,50.8,29.94,ENE,63,0.0,0.0,79,0.00,,,0.00,123.00,VWS V14.00,2013-02-21 15:53:00,
2013-02-21 09:54:00,57.3,50.8,29.94,ESE,109,0.0,0.0,79,0.00,,,0.00,104.00,VWS V14.00,2013-02-21 15:54:00,
2013-02-21 09:55:00,57.3,50.8,29.94,ENE,60,0.0,0.0,79,0.00,,,0.00,81.00,VWS V14.00,2013-02-21 15:55:00,
2013-02-21 09:56:00,57.2,51.1,29.94,SSE,157,0.0,0.0,80,0.00,,,0.00,86.00,VWS V14.00,2013-02-21 15:56:00,
2013-02-21 09:57:00,57.2,51.1,29.94,ENE,64,0.0,0.0,80,0.00,,,0.00,98.00,VWS V14.00,2013-02-21 15:57:00,
2013-02-21 09:58:00,57.2,51.1,29.94,East,79,0.0,0.0,80,0.00,,,0.00,97.00,VWS V14.00,2013-02-21 15:58:00,
2013-02-21 09:59:00,57.2,51.1,29.94,SE,144,0.0,0.0,80,0.00,,,0.00,116.00,VWS V14.00,2013-02-21 15:59:00,
2013-02-21 10:00:00,57.2,51.1,29.94,East,86,0.0,0.0,80,0.00,,,0.00,128.00,VWS V14.00,2013-02-21 16:00:00,
2013-02-21 10:01:00,57.2,51.1,29.94,NE,49,0.0,0.0,80,0.00,,,0.00,141.00,VWS V14.00,2013-02-21 16:01:00,
2013-02-21 10:02:00,57.2,51.1,29.94,ESE,109,0.0,0.0,80,0.00,,,0.00,197.00,VWS V14.00,2013-02-21 16:02:00,
2013-02-21 10:03:00,57.2,51.4,29.94,ESE,109,0.0,0.0,81,0.00,,,0.00,250.00,VWS V14.00,2013-02-21 16:03:00,
2013-02-21 10:04:00,57.2,51.1,29.94,East,82,0.0,0.0,80,0.00,,,0.00,178.00,VWS V14.00,2013-02-21 16:04:00,
2013-02-21 10:05:00,57.2,51.4,29.94,East,83,0.0,0.0,81,0.00,,,0.00,144.00,VWS V14.00,2013-02-21 16:05:00,
2013-02-21 10:06:00,57.2,51.4,29.94,NE,56,0.0,0.0,81,0.00,,,0.00,144.00,VWS V14.00,2013-02-21 16:06:00,
2013-02-21 10:07:00,57.2,51.4,29.94,ENE,67,0.0,0.0,81,0.00,,,0.00,134.00,VWS V14.00,2013-02-21 16:07:00,
2013-02-21 10:08:00,57.2,51.4,29.94,East,88,0.0,0.0,81,0.00,,,0.00,134.00,VWS V14.00,2013-02-21 16:08:00,
2013-02-21 10:09:00,57.2,51.4,29.94,NE,50,0.0,0.0,81,0.00,,,0.00,128.00,VWS V14.00,2013-02-21 16:09:00,
2013-02-21 10:10:00,57.2,51.4,29.94,East,79,0.0,0.0,81,0.00,,,0.00,128.00,VWS V14.00,2013-02-21 16:10:00,
2013-02-21 10:11:00,57.2,51.4,29.94,SE,130,0.0,0.0,81,0.00,,,0.00,171.00,VWS V14.00,2013-02-21 16:11:00,
2013-02-21 10:12:00,57.2,51.4,29.94,East,98,0.0,0.0,81,0.00,,,0.00,171.00,VWS V14.00,2013-02-21 16:12:00,
2013-02-21 10:13:00,57.2,51.4,29.94,ENE,71,0.0,0.0,81,0.00,,,0.00,192.00,VWS V14.00,2013-02-21 16:13:00,
2013-02-21 10:14:00,57.2,51.4,29.94,ESE,119,0.0,0.0,81,0.00,,,0.00,214.00,VWS V14.00,2013-02-21 16:14:00,
2013-02-21 10:15:00,57.2,51.4,29.93,East,92,0.0,0.0,81,0.00,,,0.00,230.00,VWS V14.00,2013-02-21 16:15:00,
2013-02-21 10:16:00,57.2,51.8,29.93,ENE,76,0.0,0.0,82,0.00,,,0.00,229.00,VWS V14.00,2013-02-21 16:16:00,
2013-02-21 10:17:00,57.2,51.8,29.93,ESE,106,0.0,0.0,82,0.00,,,0.00,181.00,VWS V14.00,2013-02-21 16:17:00,
2013-02-21 10:18:00,57.2,51.8,29.93,South,183,0.0,0.0,82,0.00,,,0.00,172.00,VWS V14.00,2013-02-21 16:18:00,
2013-02-21 10:19:00,57.2,51.8,29.93,East,86,0.0,0.0,82,0.00,,,0.00,163.00,VWS V14.00,2013-02-21 16:19:00,
2013-02-21 10:20:00,57.3,51.9,29.93,ENE,57,0.0,0.0,82,0.00,,,0.00,146.00,VWS V14.00,2013-02-21 16:20:00,
2013-02-21 10:21:00,57.3,51.9,29.93,SE,130,0.0,0.0,82,0.00,,,0.00,125.00,VWS V14.00,2013-02-21 16:21:00,
2013-02-21 10:22:00,57.3,51.9,29.93,East,90,0.0,0.0,82,0.00,,,0.00,127.00,VWS V14.00,2013-02-21 16:22:00,
2013-02-21 10:23:00,57.3,51.9,29.93,East,80,0.0,0.0,82,0.00,,,0.00,114.00,VWS V14.00,2013-02-21 16:23:00,
2013-02-21 10:24:00,57.3,51.9,29.93,East,90,0.0,0.0,82,0.00,,,0.00,127.00,VWS V14.00,2013-02-21 16:24:00,
2013-02-21 10:25:00,57.3,51.9,29.93,ENE,65,0.0,0.0,82,0.00,,,0.00,165.00,VWS V14.00,2013-02-21 16:25:00,
2013-02-21 10:26:00,57.3,51.9,29.93,East,88,0.0,0.0,82,0.00,,,0.00,199.00,VWS V14.00,2013-02-21 16:26:00,
2013-02-21 10:27:00,57.3,51.9,29.93,NE,43,0.0,0.0,82,0.00,,,0.00,214.00,VWS V14.00,2013-02-21 16:27:00,
2013-02-21 10:28:00,57.3,51.9,29.93,East,86,0.0,0.0,82,0.00,,,0.00,195.00,VWS V14.00,2013-02-21 16:28:00,
2013-02-21 10:29:00,57.3,51.9,29.93,East,91,0.0,0.0,82,0.00,,,0.00,114.00,VWS V14.00,2013-02-21 16:29:00,
2013-02-21 10:30:00,57.3,51.9,29.93,East,80,0.0,0.0,82,0.00,,,0.00,111.00,VWS V14.00,2013-02-21 16:30:00,
2013-02-21 10:31:00,57.3,51.9,29.93,East,98,0.0,0.0,82,0.00,,,0.00,127.00,VWS V14.00,2013-02-21 16:31:00,
2013-02-21 10:32:00,57.3,51.9,29.93,SE,139,0.0,0.0,82,0.00,,,0.00,123.00,VWS V14.00,2013-02-21 16:32:00,
2013-02-21 10:33:00,57.3,52.2,29.93,ENE,67,0.0,0.0,83,0.00,,,0.00,113.00,VWS V14.00,2013-02-21 16:33:00,
2013-02-21 10:34:00,57.2,52.1,29.93,ESE,121,0.0,0.0,83,0.00,,,0.00,127.00,VWS V14.00,2013-02-21 16:34:00,
2013-02-21 10:35:00,57.2,52.1,29.93,ESE,103,0.0,0.0,83,0.00,,,0.00,135.00,VWS V14.00,2013-02-21 16:35:00,
2013-02-21 10:36:00,57.2,52.1,29.93,SE,137,0.0,0.0,83,0.00,,,0.00,144.00,VWS V14.00,2013-02-21 16:36:00,
2013-02-21 10:37:00,57.2,52.1,29.93,ENE,76,0.0,0.0,83,0.00,,,0.00,151.00,VWS V14.00,2013-02-21 16:37:00,
2013-02-21 10:38:00,57.2,52.1,29.93,ESE,104,0.0,0.0,83,0.00,,,0.00,158.00,VWS V14.00,2013-02-21 16:38:00,
2013-02-21 10:39:00,57.2,52.1,29.93,ESE,120,0.0,0.0,83,0.00,,,0.00,181.00,VWS V14.00,2013-02-21 16:39:00,
2013-02-21 10:40:00,57.2,52.1,29.93,East,96,0.0,0.0,83,0.00,,,0.00,255.00,VWS V14.00,2013-02-21 16:40:00,
2013-02-21 10:41:00,57.2,52.1,29.93,ESE,105,0.0,0.0,83,0.00,,,0.00,230.00,VWS V14.00,2013-02-21 16:41:00,
2013-02-21 10:42:00,57.2,52.1,29.93,SE,125,0.0,0.0,83,0.00,,,0.00,199.00,VWS V14.00,2013-02-21 16:42:00,
2013-02-21 10:43:00,57.2,52.1,29.93,ENE,66,0.0,0.0,83,0.00,,,0.00,218.00,VWS V14.00,2013-02-21 16:43:00,
2013-02-21 10:44:00,57.2,52.4,29.92,East,80,0.0,0.0,84,0.00,,,0.00,221.00,VWS V14.00,2013-02-21 16:44:00,
2013-02-21 10:45:00,57.3,52.5,29.92,SSE,153,0.0,0.0,84,0.00,,,0.00,197.00,VWS V14.00,2013-02-21 16:45:00,
2013-02-21 10:46:00,57.3,52.5,29.92,ENE,71,0.0,0.0,84,0.00,,,0.00,185.00,VWS V14.00,2013-02-21 16:46:00,
2013-02-21 10:47:00,57.3,52.5,29.92,SE,134,0.0,0.0,84,0.00,,,0.00,172.00,VWS V14.00,2013-02-21 16:47:00,
2013-02-21 10:48:00,57.3,52.5,29.92,NE,41,0.0,0.0,84,0.00,,,0.00,165.00,VWS V14.00,2013-02-21 16:48:00,
2013-02-21 10:49:00,57.5,52.7,29.92,ENE,69,0.0,0.0,84,0.00,,,0.00,160.00,VWS V14.00,2013-02-21 16:49:00,
2013-02-21 10:50:00,57.5,52.7,29.92,South,176,0.0,0.0,84,0.00,,,0.00,163.00,VWS V14.00,2013-02-21 16:50:00,
2013-02-21 10:51:00,57.5,52.7,29.92,South,176,0.0,0.0,84,0.00,,,0.00,146.00,VWS V14.00,2013-02-21 16:51:00,
2013-02-21 10:52:00,57.5,52.7,29.92,ESE,111,0.0,0.0,84,0.00,,,0.00,114.00,VWS V14.00,2013-02-21 16:52:00,
2013-02-21 10:53:00,57.6,52.8,29.92,East,91,0.0,0.0,84,0.00,,,0.00,107.00,VWS V14.00,2013-02-21 16:53:00,
2013-02-21 10:54:00,57.6,52.8,29.92,ESE,108,0.0,0.0,84,0.00,,,0.00,132.00,VWS V14.00,2013-02-21 16:54:00,
2013-02-21 10:55:00,57.6,52.8,29.92,ENE,66,0.0,0.0,84,0.00,,,0.00,149.00,VWS V14.00,2013-02-21 16:55:00,
2013-02-21 10:56:00,57.6,52.8,29.92,SSE,148,0.0,0.0,84,0.00,,,0.00,151.00,VWS V14.00,2013-02-21 16:56:00,
2013-02-21 10:57:00,57.6,52.8,29.92,East,88,0.0,0.0,84,0.00,,,0.00,153.00,VWS V14.00,2013-02-21 16:57:00,
2013-02-21 10:58:00,57.6,52.8,29.92,ENE,72,0.0,0.0,84,0.00,,,0.00,160.00,VWS V14.00,2013-02-21 16:58:00,
2013-02-21 10:59:00,57.6,52.8,29.92,NE,56,0.0,0.0,84,0.00,,,0.00,183.00,VWS V14.00,2013-02-21 16:59:00,
2013-02-21 11:00:00,57.6,52.8,29.91,East,100,0.0,0.0,84,0.00,,,0.00,190.00,VWS V14.00,2013-02-21 17:00:00,
2013-02-21 11:01:00,57.6,52.8,29.91,SSE,155,0.0,0.0,84,0.00,,,0.00,214.00,VWS V14.00,2013-02-21 17:01:00,
2013-02-21 11:02:00,57.6,52.8,29.91,East,90,0.0,0.0,84,0.00,,,0.00,200.00,VWS V14.00,2013-02-21 17:02:00,
2013-02-21 11:03:00,57.6,52.8,29.91,ESE,109,0.0,0.0,84,0.00,,,0.00,197.00,VWS V14.00,2013-02-21 17:03:00,
2013-02-21 11:04:00,57.6,52.8,29.91,ESE,113,0.0,0.0,84,0.00,,,0.00,188.00,VWS V14.00,2013-02-21 17:04:00,
2013-02-21 11:05:00,57.6,52.8,29.91,East,101,0.0,0.0,84,0.00,,,0.00,183.00,VWS V14.00,2013-02-21 17:05:00,
2013-02-21 11:06:00,57.6,52.8,29.91,NNE,32,0.0,0.0,84,0.00,,,0.00,169.00,VWS V14.00,2013-02-21 17:06:00,
2013-02-21 11:07:00,57.6,52.8,29.91,East,80,0.0,0.0,84,0.00,,,0.00,155.00,VWS V14.00,2013-02-21 17:07:00,
2013-02-21 11:08:00,57.6,52.8,29.91,East,81,0.0,0.0,84,0.00,,,0.00,163.00,VWS V14.00,2013-02-21 17:08:00,
2013-02-21 11:09:00,57.6,52.8,29.91,East,87,0.0,0.0,84,0.00,,,0.00,185.00,VWS V14.00,2013-02-21 17:09:00,
2013-02-21 11:10:00,57.6,52.8,29.91,ENE,65,0.0,0.0,84,0.00,,,0.00,160.00,VWS V14.00,2013-02-21 17:10:00,
2013-02-21 11:11:00,57.6,52.8,29.91,East,96,0.0,0.0,84,0.00,,,0.00,116.00,VWS V14.00,2013-02-21 17:11:00,
2013-02-21 11:12:00,57.6,52.8,29.91,ENE,70,0.0,0.0,84,0.00,,,0.00,95.00,VWS V14.00,2013-02-21 17:12:00,
2013-02-21 11:13:00,57.6,52.8,29.91,ESE,115,0.0,0.0,84,0.00,,,0.00,93.00,VWS V14.00,2013-02-21 17:13:00,
2013-02-21 11:14:00,57.6,53.1,29.91,ENE,76,0.0,0.0,85,0.00,,,0.00,81.00,VWS V14.00,2013-02-21 17:14:00,
2013-02-21 11:15:00,57.6,53.1,29.91,ENE,65,0.0,0.0,85,0.00,,,0.00,86.00,VWS V14.00,2013-02-21 17:15:00,
2013-02-21 11:16:00,57.6,53.1,29.91,East,84,0.0,0.0,85,0.00,,,0.00,93.00,VWS V14.00,2013-02-21 17:16:00,
2013-02-21 11:17:00,57.6,53.1,29.91,East,81,0.0,0.0,85,0.00,,,0.00,113.00,VWS V14.00,2013-02-21 17:17:00,
2013-02-21 11:18:00,57.6,53.1,29.91,East,101,0.0,0.0,85,0.00,,,0.00,156.00,VWS V14.00,2013-02-21 17:18:00,
2013-02-21 11:19:00,57.6,53.1,29.91,East,93,0.0,0.0,85,0.00,,,0.00,193.00,VWS V14.00,2013-02-21 17:19:00,
2013-02-21 11:20:00,57.5,53.0,29.91,ENE,63,0.0,0.0,85,0.00,,,0.00,223.00,VWS V14.00,2013-02-21 17:20:00,
2013-02-21 11:21:00,57.5,53.0,29.91,ENE,60,0.0,0.0,85,0.00,,,0.00,232.00,VWS V14.00,2013-02-21 17:21:00,
2013-02-21 11:22:00,57.5,53.0,29.91,East,85,0.0,0.0,85,0.00,,,0.00,229.00,VWS V14.00,2013-02-21 17:22:00,
2013-02-21 11:23:00,57.5,53.0,29.91,East,96,0.0,0.0,85,0.00,,,0.00,202.00,VWS V14.00,2013-02-21 17:23:00,
2013-02-21 11:24:00,57.5,53.0,29.91,NE,53,0.0,0.0,85,0.00,,,0.00,183.00,VWS V14.00,2013-02-21 17:24:00,
2013-02-21 11:25:00,57.6,53.1,29.91,ENE,73,0.0,0.0,85,0.00,,,0.00,144.00,VWS V14.00,2013-02-21 17:25:00,
2013-02-21 11:26:00,57.6,53.1,29.91,ENE,74,0.0,0.0,85,0.00,,,0.00,130.00,VWS V14.00,2013-02-21 17:26:00,
2013-02-21 11:27:00,57.6,53.1,29.91,East,92,0.0,0.0,85,0.00,,,0.00,118.00,VWS V14.00,2013-02-21 17:27:00,
2013-02-21 11:28:00,57.6,53.1,29.91,East,90,0.0,0.0,85,0.00,,,0.00,95.00,VWS V14.00,2013-02-21 17:28:00,
2013-02-21 11:29:00,57.6,53.1,29.91,ESE,115,0.0,0.0,85,0.00,,,0.00,95.00,VWS V14.00,2013-02-21 17:29:00,
2013-02-21 11:30:00,57.6,53.1,29.91,SE,143,0.0,0.0,85,0.00,,,0.00,67.00,VWS V14.00,2013-02-21 17:30:00,
2013-02-21 11:31:00,57.6,53.1,29.91,ESE,112,0.0,0.0,85,0.00,,,0.00,67.00,VWS V14.00,2013-02-21 17:31:00,
2013-02-21 11:32:00,57.6,53.1,29.91,ENE,61,0.0,0.0,85,0.00,,,0.00,74.00,VWS V14.00,2013-02-21 17:32:00,
2013-02-21 11:33:00,57.6,53.1,29.91,SSE,165,0.0,0.0,85,0.00,,,0.00,79.00,VWS V14.00,2013-02-21 17:33:00,
2013-02-21 11:34:00,57.6,53.1,29.91,ESE,103,0.0,0.0,85,0.00,,,0.00,84.00,VWS V14.00,2013-02-21 17:34:00,
2013-02-21 11:35:00,57.6,53.1,29.91,ENE,71,0.0,0.0,85,0.00,,,0.00,98.00,VWS V14.00,2013-02-21 17:35:00,
2013-02-21 11:36:00,57.6,53.1,29.91,ESE,112,0.0,0.0,85,0.00,,,0.00,100.00,VWS V14.00,2013-02-21 17:36:00,
2013-02-21 11:37:00,57.6,53.1,29.91,East,95,0.0,0.0,85,0.00,,,0.00,83.00,VWS V14.00,2013-02-21 17:37:00,
2013-02-21 11:38:00,57.6,53.1,29.91,ENE,74,0.0,0.0,85,0.00,,,0.00,83.00,VWS V14.00,2013-02-21 17:38:00,
2013-02-21 11:39:00,57.6,53.1,29.91,ENE,77,0.0,0.0,85,0.00,,,0.00,72.00,VWS V14.00,2013-02-21 17:39:00,
2013-02-21 11:40:00,57.6,53.5,29.91,ENE,72,0.0,0.0,86,0.00,,,0.00,76.00,VWS V14.00,2013-02-21 17:40:00,
2013-02-21 11:41:00,57.6,53.5,29.91,ENE,66,0.0,0.0,86,0.00,,,0.00,58.00,VWS V14.00,2013-02-21 17:41:00,
2013-02-21 11:42:00,57.6,53.5,29.91,East,90,0.0,0.0,86,0.00,,,0.00,47.00,VWS V14.00,2013-02-21 17:42:00,
2013-02-21 11:43:00,57.6,53.5,29.91,ENE,65,0.0,0.0,86,0.00,,,0.00,46.00,VWS V14.00,2013-02-21 17:43:00,
2013-02-21 11:44:00,57.6,53.5,29.91,SE,131,0.0,0.0,86,0.00,,,0.00,46.00,VWS V14.00,2013-02-21 17:44:00,
2013-02-21 11:45:00,57.6,53.5,29.90,ENE,71,0.0,0.0,86,0.00,,,0.00,63.00,VWS V14.00,2013-02-21 17:45:00,
2013-02-21 11:46:00,57.6,53.8,29.90,ENE,71,0.0,0.0,87,0.00,,,0.00,72.00,VWS V14.00,2013-02-21 17:46:00,
2013-02-21 11:47:00,57.6,53.8,29.90,ESE,112,0.0,0.0,87,0.00,,,0.00,72.00,VWS V14.00,2013-02-21 17:47:00,
2013-02-21 11:48:00,57.6,53.8,29.90,ENE,75,0.0,0.0,87,0.00,,,0.00,58.00,VWS V14.00,2013-02-21 17:48:00,
2013-02-21 11:49:00,57.6,53.8,29.90,East,82,0.0,0.0,87,0.00,,,0.00,47.00,VWS V14.00,2013-02-21 17:49:00,
2013-02-21 11:50:00,57.6,53.8,29.90,East,96,0.0,0.0,87,0.00,,,0.00,42.00,VWS V14.00,2013-02-21 17:50:00,
2013-02-21 11:51:00,57.8,54.0,29.90,East,95,0.0,0.0,87,0.00,,,0.00,56.00,VWS V14.00,2013-02-21 17:51:00,
2013-02-21 11:52:00,57.8,54.0,29.90,ESE,103,0.0,0.0,87,0.00,,,0.00,67.00,VWS V14.00,2013-02-21 17:52:00,
2013-02-21 11:53:00,57.8,54.0,29.90,East,87,0.0,0.0,87,0.00,,,0.00,79.00,VWS V14.00,2013-02-21 17:53:00,
2013-02-21 11:54:00,57.8,54.0,29.90,SE,130,0.0,0.0,87,0.00,,,0.00,83.00,VWS V14.00,2013-02-21 17:54:00,
2013-02-21 11:55:00,57.8,54.3,29.90,ENE,61,0.0,0.0,88,0.00,,,0.00,95.00,VWS V14.00,2013-02-21 17:55:00,
2013-02-21 11:56:00,57.8,54.3,29.90,ENE,65,0.0,0.0,88,0.00,,,0.00,77.00,VWS V14.00,2013-02-21 17:56:00,
2013-02-21 11:57:00,58.0,54.5,29.90,ENE,60,0.0,0.0,88,0.00,,,0.00,70.00,VWS V14.00,2013-02-21 17:57:00,
2013-02-21 11:58:00,58.0,54.5,29.90,East,96,0.0,0.0,88,0.00,,,0.00,70.00,VWS V14.00,2013-02-21 17:58:00,
2013-02-21 11:59:00,58.0,54.5,29.89,ENE,72,0.0,0.0,88,0.00,,,0.00,70.00,VWS V14.00,2013-02-21 17:59:00,
2013-02-21 12:00:00,58.0,54.5,29.89,ENE,66,0.0,0.0,88,0.00,,,0.00,70.00,VWS V14.00,2013-02-21 18:00:00,
2013-02-21 12:01:00,58.0,54.5,29.89,NE,52,0.0,0.0,88,0.00,,,0.00,70.00,VWS V14.00,2013-02-21 18:01:00,
2013-02-21 12:02:00,58.0,54.5,29.89,East,79,0.0,0.0,88,0.00,,,0.00,67.00,VWS V14.00,2013-02-21 18:02:00,
2013-02-21 12:03:00,58.1,54.6,29.89,ENE,75,0.0,0.0,88,0.00,,,0.00,74.00,VWS V14.00,2013-02-21 18:03:00,
2013-02-21 12:04:00,58.1,54.6,29.89,NE,53,0.0,0.0,88,0.00,,,0.00,74.00,VWS V14.00,2013-02-21 18:04:00,
2013-02-21 12:05:00,58.1,54.6,29.89,ESE,117,0.0,0.0,88,0.00,,,0.00,58.00,VWS V14.00,2013-02-21 18:05:00,
2013-02-21 12:06:00,58.1,54.6,29.89,East,90,0.0,0.0,88,0.00,,,0.00,46.00,VWS V14.00,2013-02-21 18:06:00,
2013-02-21 12:07:00,58.1,54.6,29.89,ENE,74,0.0,0.0,88,0.00,,,0.00,37.00,VWS V14.00,2013-02-21 18:07:00,
2013-02-21 12:08:00,58.3,54.8,29.89,East,84,0.0,0.0,88,0.00,,,0.00,40.00,VWS V14.00,2013-02-21 18:08:00,
2013-02-21 12:09:00,58.3,55.1,29.89,East,97,0.0,0.0,89,0.00,,,0.00,33.00,VWS V14.00,2013-02-21 18:09:00,
2013-02-21 12:10:00,58.3,55.1,29.89,East,101,0.0,0.0,89,0.00,,,0.00,35.00,VWS V14.00,2013-02-21 18:10:00,
2013-02-21 12:11:00,58.3,55.1,29.89,East,80,0.0,0.0,89,0.00,,,0.00,39.00,VWS V14.00,2013-02-21 18:11:00,
2013-02-21 12:12:00,58.3,55.1,29.89,ENE,67,0.0,0.0,89,0.00,,,0.00,53.00,VWS V14.00,2013-02-21 18:12:00,
2013-02-21 12:13:00,58.3,55.1,29.89,ENE,73,0.0,0.0,89,0.00,,,0.00,67.00,VWS V14.00,2013-02-21 18:13:00,
2013-02-21 12:14:00,58.3,55.1,29.88,NE,49,0.0,0.0,89,0.00,,,0.00,76.00,VWS V14.00,2013-02-21 18:14:00,
2013-02-21 12:15:00,58.3,55.1,29.88,East,92,0.0,0.0,89,0.00,,,0.00,76.00,VWS V14.00,2013-02-21 18:15:00,
2013-02-21 12:16:00,58.4,55.2,29.88,ESE,103,0.0,0.0,89,0.00,,,0.00,77.00,VWS V14.00,2013-02-21 18:16:00,
2013-02-21 12:17:00,58.4,55.2,29.88,East,84,0.0,0.0,89,0.00,,,0.00,77.00,VWS V14.00,2013-02-21 18:17:00,
2013-02-21 12:18:00,58.4,55.2,29.88,SSE,150,0.0,0.0,89,0.00,,,0.00,83.00,VWS V14.00,2013-02-21 18:18:00,
2013-02-21 12:19:00,58.4,55.5,29.88,East,81,0.0,0.0,90,0.00,,,0.00,84.00,VWS V14.00,2013-02-21 18:19:00,
2013-02-21 12:20:00,58.4,55.5,29.88,ENE,71,0.0,0.0,90,0.00,,,0.00,90.00,VWS V14.00,2013-02-21 18:20:00,
2013-02-21 12:21:00,58.4,55.5,29.88,East,84,0.0,0.0,90,0.00,,,0.00,72.00,VWS V14.00,2013-02-21 18:21:00,
2013-02-21 12:22:00,58.4,55.5,29.88,ESE,104,0.0,0.0,90,0.00,,,0.00,53.00,VWS V14.00,2013-02-21 18:22:00,
2013-02-21 12:23:00,58.4,55.5,29.88,SSE,159,0.0,0.0,90,0.00,,,0.00,46.00,VWS V14.00,2013-02-21 18:23:00,
2013-02-21 12:24:00,58.4,55.5,29.88,NE,47,0.0,0.0,90,0.00,,,0.00,46.00,VWS V14.00,2013-02-21 18:24:00,
2013-02-21 12:25:00,58.6,55.7,29.88,ESE,121,0.0,0.0,90,0.00,,,0.00,53.00,VWS V14.00,2013-02-21 18:25:00,
2013-02-21 12:26:00,58.6,55.7,29.88,ESE,111,0.0,0.0,90,0.00,,,0.00,56.00,VWS V14.00,2013-02-21 18:26:00,
2013-02-21 12:27:00,58.6,55.7,29.88,ENE,67,0.0,0.0,90,0.00,,,0.00,65.00,VWS V14.00,2013-02-21 18:27:00,
2013-02-21 12:28:00,58.6,55.7,29.88,SE,141,0.0,0.0,90,0.00,,,0.00,76.00,VWS V14.00,2013-02-21 18:28:00,
2013-02-21 12:29:00,58.7,56.1,29.88,ENE,76,0.0,0.0,91,0.00,,,0.00,86.00,VWS V14.00,2013-02-21 18:29:00,
2013-02-21 12:30:00,58.7,56.1,29.86,ESE,109,0.0,0.0,91,0.00,,,0.00,97.00,VWS V14.00,2013-02-21 18:30:00,
2013-02-21 12:31:00,58.7,56.1,29.86,East,93,0.0,0.0,91,0.00,,,0.00,86.00,VWS V14.00,2013-02-21 18:31:00,
2013-02-21 12:32:00,58.7,56.1,29.86,ESE,107,0.0,0.0,91,0.00,,,0.00,76.00,VWS V14.00,2013-02-21 18:32:00,
2013-02-21 12:33:00,58.9,56.3,29.86,NE,50,0.0,0.0,91,0.00,,,0.00,81.00,VWS V14.00,2013-02-21 18:33:00,
2013-02-21 12:34:00,58.9,56.3,29.86,East,80,0.0,0.0,91,0.00,,,0.00,81.00,VWS V14.00,2013-02-21 18:34:00,
2013-02-21 12:35:00,58.9,56.3,29.86,East,96,0.0,0.0,91,0.00,,,0.00,93.00,VWS V14.00,2013-02-21 18:35:00,
2013-02-21 12:36:00,58.9,56.3,29.86,ENE,75,0.0,0.0,91,0.00,,,0.00,107.00,VWS V14.00,2013-02-21 18:36:00,
2013-02-21 12:37:00,59.0,56.4,29.86,SE,136,0.0,0.0,91,0.00,,,0.00,121.00,VWS V14.00,2013-02-21 18:37:00,
2013-02-21 12:38:00,59.0,56.4,29.86,North,5,0.0,0.0,91,0.00,,,0.00,116.00,VWS V14.00,2013-02-21 18:38:00,
2013-02-21 12:39:00,59.0,56.4,29.86,NE,53,0.0,0.0,91,0.00,,,0.00,109.00,VWS V14.00,2013-02-21 18:39:00,
2013-02-21 12:40:00,59.2,56.6,29.86,SE,126,0.0,0.0,91,0.00,,,0.00,107.00,VWS V14.00,2013-02-21 18:40:00,
2013-02-21 12:41:00,59.2,56.6,29.86,SSE,148,0.0,0.0,91,0.00,,,0.00,105.00,VWS V14.00,2013-02-21 18:41:00,
2013-02-21 12:42:00,59.3,56.7,29.86,ENE,63,0.0,0.0,91,0.00,,,0.00,91.00,VWS V14.00,2013-02-21 18:42:00,
2013-02-21 12:43:00,59.3,56.7,29.86,ESE,116,0.0,0.0,91,0.00,,,0.00,83.00,VWS V14.00,2013-02-21 18:43:00,
2013-02-21 12:44:00,59.3,56.7,29.85,SE,144,0.0,0.0,91,0.00,,,0.00,79.00,VWS V14.00,2013-02-21 18:44:00,
2013-02-21 12:45:00,59.5,56.9,29.85,NNE,28,0.0,0.0,91,0.00,,,0.00,74.00,VWS V14.00,2013-02-21 18:45:00,
2013-02-21 12:46:00,59.5,56.9,29.85,East,84,0.0,0.0,91,0.00,,,0.00,70.00,VWS V14.00,2013-02-21 18:46:00,
2013-02-21 12:47:00,59.5,56.9,29.85,SE,130,0.0,0.0,91,0.00,,,0.00,81.00,VWS V14.00,2013-02-21 18:47:00,
2013-02-21 12:48:00,59.6,57.0,29.85,East,94,0.0,0.0,91,0.00,,,0.00,95.00,VWS V14.00,2013-02-21 18:48:00,
2013-02-21 12:49:00,59.6,57.0,29.85,ESE,117,0.0,0.0,91,0.00,,,0.00,91.00,VWS V14.00,2013-02-21 18:49:00,
2013-02-21 12:50:00,59.6,57.0,29.85,ENE,61,0.0,0.0,91,0.00,,,0.00,90.00,VWS V14.00,2013-02-21 18:50:00,
2013-02-21 12:51:00,59.8,57.2,29.85,NE,52,0.0,0.0,91,0.00,,,0.00,79.00,VWS V14.00,2013-02-21 18:51:00,
2013-02-21 12:52:00,59.8,57.2,29.85,ENE,68,0.0,0.0,91,0.00,,,0.00,74.00,VWS V14.00,2013-02-21 18:52:00,
2013-02-21 12:53:00,59.8,57.2,29.85,East,86,0.0,0.0,91,0.00,,,0.00,70.00,VWS V14.00,2013-02-21 18:53:00,
2013-02-21 12:54:00,59.9,57.3,29.85,SE,144,0.0,0.0,91,0.00,,,0.00,70.00,VWS V14.00,2013-02-21 18:54:00,
2013-02-21 12:55:00,59.9,57.3,29.85,ENE,74,0.0,0.0,91,0.00,,,0.00,76.00,VWS V14.00,2013-02-21 18:55:00,
2013-02-21 12:56:00,59.9,57.3,29.85,SE,128,0.0,0.0,91,0.00,,,0.00,81.00,VWS V14.00,2013-02-21 18:56:00,
2013-02-21 12:57:00,59.9,57.3,29.85,SE,131,0.0,0.0,91,0.00,,,0.00,84.00,VWS V14.00,2013-02-21 18:57:00,
2013-02-21 12:58:00,60.1,57.8,29.85,ESE,118,0.0,0.0,92,0.00,,,0.00,86.00,VWS V14.00,2013-02-21 18:58:00,
2013-02-21 12:59:00,60.1,57.8,29.83,ESE,105,0.0,0.0,92,0.00,,,0.00,91.00,VWS V14.00,2013-02-21 18:59:00,
2013-02-21 13:00:00,60.1,57.8,29.83,ESE,117,0.0,0.0,92,0.00,,,0.00,91.00,VWS V14.00,2013-02-21 19:00:00,
2013-02-21 13:01:00,60.1,57.8,29.83,SE,143,0.0,0.0,92,0.00,,,0.00,104.00,VWS V14.00,2013-02-21 19:01:00,
2013-02-21 13:02:00,60.2,57.9,29.83,ENE,63,0.0,0.0,92,0.00,,,0.00,104.00,VWS V14.00,2013-02-21 19:02:00,
2013-02-21 13:03:00,60.2,57.9,29.83,SE,144,0.0,0.0,92,0.00,,,0.00,100.00,VWS V14.00,2013-02-21 19:03:00,
2013-02-21 13:04:00,60.2,57.9,29.83,NE,37,0.0,0.0,92,0.00,,,0.00,105.00,VWS V14.00,2013-02-21 19:04:00,
2013-02-21 13:05:00,60.2,57.9,29.83,ENE,64,0.0,0.0,92,0.00,,,0.00,123.00,VWS V14.00,2013-02-21 19:05:00,
2013-02-21 13:06:00,60.4,58.1,29.83,East,94,0.0,0.0,92,0.00,,,0.00,132.00,VWS V14.00,2013-02-21 19:06:00,
2013-02-21 13:07:00,60.4,58.1,29.83,East,88,0.0,0.0,92,0.00,,,0.00,132.00,VWS V14.00,2013-02-21 19:07:00,
2013-02-21 13:08:00,60.4,58.1,29.83,ENE,71,0.0,0.0,92,0.00,,,0.00,137.00,VWS V14.00,2013-02-21 19:08:00,
2013-02-21 13:09:00,60.5,58.2,29.83,ENE,63,0.0,0.0,92,0.00,,,0.00,142.00,VWS V14.00,2013-02-21 19:09:00,
2013-02-21 13:10:00,60.5,58.2,29.83,NE,50,0.0,0.0,92,0.00,,,0.00,160.00,VWS V14.00,2013-02-21 19:10:00,
2013-02-21 13:11:00,60.5,58.2,29.83,ESE,109,0.0,0.0,92,0.00,,,0.00,156.00,VWS V14.00,2013-02-21 19:11:00,
2013-02-21 13:12:00,60.5,58.2,29.83,ENE,59,0.0,0.0,92,0.00,,,0.00,156.00,VWS V14.00,2013-02-21 19:12:00,
2013-02-21 13:13:00,60.5,58.2,29.83,ESE,119,0.0,0.0,92,0.00,,,0.00,155.00,VWS V14.00,2013-02-21 19:13:00,
2013-02-21 13:14:00,60.7,58.4,29.83,SE,132,0.0,0.0,92,0.00,,,0.00,153.00,VWS V14.00,2013-02-21 19:14:00,
2013-02-21 13:15:00,60.7,58.7,29.82,East,82,0.0,0.0,93,0.00,,,0.00,172.00,VWS V14.00,2013-02-21 19:15:00,
2013-02-21 13:16:00,60.7,58.7,29.82,ENE,75,0.0,0.0,93,0.00,,,0.00,181.00,VWS V14.00,2013-02-21 19:16:00,
2013-02-21 13:17:00,60.9,58.9,29.82,NNE,29,0.0,0.0,93,0.00,,,0.00,179.00,VWS V14.00,2013-02-21 19:17:00,
2013-02-21 13:18:00,60.9,58.9,29.82,ENE,57,0.0,0.0,93,0.00,,,0.00,165.00,VWS V14.00,2013-02-21 19:18:00,
2013-02-21 13:19:00,60.9,58.9,29.82,East,99,0.0,0.0,93,0.00,,,0.00,146.00,VWS V14.00,2013-02-21 19:19:00,
2013-02-21 13:20:00,61.0,59.0,29.82,SSE,148,0.0,0.0,93,0.00,,,0.00,149.00,VWS V14.00,2013-02-21 19:20:00,
2013-02-21 13:21:00,61.0,59.0,29.82,ENE,61,0.0,0.0,93,0.00,,,0.00,148.00,VWS V14.00,2013-02-21 19:21:00,
2013-02-21 13:22:00,61.2,59.2,29.82,East,81,0.0,0.0,93,0.00,,,0.00,151.00,VWS V14.00,2013-02-21 19:22:00,
2013-02-21 13:23:00,61.2,59.2,29.82,ENE,77,0.0,0.0,93,0.00,,,0.00,149.00,VWS V14.00,2013-02-21 19:23:00,
2013-02-21 13:24:00,61.2,59.2,29.82,ENE,58,0.0,0.0,93,0.00,,,0.00,135.00,VWS V14.00,2013-02-21 19:24:00,
2013-02-21 13:25:00,61.3,59.3,29.82,ESE,107,0.0,0.0,93,0.00,,,0.00,139.00,VWS V14.00,2013-02-21 19:25:00,
2013-02-21 13:26:00,61.3,59.3,29.82,ENE,65,0.0,0.0,93,0.00,,,0.00,135.00,VWS V14.00,2013-02-21 19:26:00,
2013-02-21 13:27:00,61.5,59.5,29.82,NE,42,0.0,0.0,93,0.00,,,0.00,130.00,VWS V14.00,2013-02-21 19:27:00,
2013-02-21 13:28:00,61.5,59.5,29.82,ENE,59,0.0,0.0,93,0.00,,,0.00,127.00,VWS V14.00,2013-02-21 19:28:00,
2013-02-21 13:29:00,61.5,59.5,29.82,East,81,0.0,0.0,93,0.00,,,0.00,123.00,VWS V14.00,2013-02-21 19:29:00,
2013-02-21 13:30:00,61.6,59.6,29.82,East,101,0.0,0.0,93,0.00,,,0.00,116.00,VWS V14.00,2013-02-21 19:30:00,
2013-02-21 13:31:00,61.6,59.6,29.82,ESE,102,0.0,0.0,93,0.00,,,0.00,105.00,VWS V14.00,2013-02-21 19:31:00,
2013-02-21 13:32:00,61.6,59.6,29.82,ENE,73,0.0,0.0,93,0.00,,,0.00,104.00,VWS V14.00,2013-02-21 19:32:00,
2013-02-21 13:33:00,61.6,59.6,29.82,East,86,0.0,0.0,93,0.00,,,0.00,104.00,VWS V14.00,2013-02-21 19:33:00,
2013-02-21 13:34:00,61.6,59.6,29.82,East,92,0.0,0.0,93,0.00,,,0.00,98.00,VWS V14.00,2013-02-21 19:34:00,
2013-02-21 13:35:00,61.6,59.6,29.82,SE,140,0.0,0.0,93,0.00,,,0.00,86.00,VWS V14.00,2013-02-21 19:35:00,
2013-02-21 13:36:00,61.6,59.6,29.82,East,96,0.0,0.0,93,0.00,,,0.00,77.00,VWS V14.00,2013-02-21 19:36:00,
2013-02-21 13:37:00,61.8,59.8,29.82,ENE,69,0.0,0.0,93,0.00,,,0.00,76.00,VWS V14.00,2013-02-21 19:37:00,
2013-02-21 13:38:00,61.8,59.8,29.82,SE,136,0.0,0.0,93,0.00,,,0.00,79.00,VWS V14.00,2013-02-21 19:38:00,
2013-02-21 13:39:00,61.8,59.8,29.82,SE,136,0.0,0.0,93,0.00,,,0.00,91.00,VWS V14.00,2013-02-21 19:39:00,
2013-02-21 13:40:00,61.8,59.8,29.82,East,89,0.0,0.0,93,0.00,,,0.00,104.00,VWS V14.00,2013-02-21 19:40:00,
2013-02-21 13:41:00,61.8,59.8,29.82,East,96,0.0,0.0,93,0.00,,,0.00,97.00,VWS V14.00,2013-02-21 19:41:00,
2013-02-21 13:42:00,61.8,59.8,29.82,SE,130,0.0,0.0,93,0.00,,,0.00,90.00,VWS V14.00,2013-02-21 19:42:00,
2013-02-21 13:43:00,61.8,59.8,29.82,East,82,0.0,0.0,93,0.00,,,0.00,88.00,VWS V14.00,2013-02-21 19:43:00,
2013-02-21 13:44:00,61.8,59.8,29.82,East,83,0.0,0.0,93,0.00,,,0.00,91.00,VWS V14.00,2013-02-21 19:44:00,
2013-02-21 13:45:00,61.8,59.8,29.82,East,84,0.0,0.0,93,0.00,,,0.00,90.00,VWS V14.00,2013-02-21 19:45:00,
2013-02-21 13:46:00,61.8,59.8,29.82,East,84,0.0,0.0,93,0.00,,,0.00,83.00,VWS V14.00,2013-02-21 19:46:00,
2013-02-21 13:47:00,62.0,60.0,29.82,ENE,72,0.0,0.0,93,0.00,,,0.00,83.00,VWS V14.00,2013-02-21 19:47:00,
2013-02-21 13:48:00,62.0,60.0,29.82,ENE,76,0.0,0.0,93,0.00,,,0.00,69.00,VWS V14.00,2013-02-21 19:48:00,
2013-02-21 13:49:00,62.0,60.0,29.82,SE,125,0.0,0.0,93,0.00,,,0.00,67.00,VWS V14.00,2013-02-21 19:49:00,
2013-02-21 13:50:00,62.0,60.0,29.82,SE,124,0.0,0.0,93,0.00,,,0.00,70.00,VWS V14.00,2013-02-21 19:50:00,
2013-02-21 13:51:00,62.0,60.0,29.82,East,88,0.0,0.0,93,0.00,,,0.00,72.00,VWS V14.00,2013-02-21 19:51:00,
2013-02-21 13:52:00,62.0,60.0,29.82,East,88,0.0,0.0,93,0.00,,,0.00,70.00,VWS V14.00,2013-02-21 19:52:00,
2013-02-21 13:53:00,62.0,60.0,29.82,ENE,63,0.0,0.0,93,0.00,,,0.00,69.00,VWS V14.00,2013-02-21 19:53:00,
2013-02-21 13:54:00,62.0,60.0,29.82,ENE,71,0.0,0.0,93,0.00,,,0.00,65.00,VWS V14.00,2013-02-21 19:54:00,
2013-02-21 13:55:00,62.0,60.0,29.82,ENE,71,0.0,0.0,93,0.00,,,0.00,67.00,VWS V14.00,2013-02-21 19:55:00,
2013-02-21 13:56:00,62.0,60.0,29.82,ENE,78,0.0,0.0,93,0.00,,,0.00,62.00,VWS V14.00,2013-02-21 19:56:00,
2013-02-21 13:57:00,62.0,60.0,29.82,ENE,62,0.0,0.0,93,0.00,,,0.00,63.00,VWS V14.00,2013-02-21 19:57:00,
2013-02-21 13:58:00,62.0,60.0,29.82,ENE,64,0.0,0.0,93,0.00,,,0.00,69.00,VWS V14.00,2013-02-21 19:58:00,
2013-02-21 13:59:00,62.0,60.0,29.82,ENE,58,0.0,0.0,93,0.00,,,0.00,74.00,VWS V14.00,2013-02-21 19:59:00,
2013-02-21 14:00:00,62.0,60.0,29.82,East,97,0.0,0.0,93,0.00,,,0.00,83.00,VWS V14.00,2013-02-21 20:00:00,
2013-02-21 14:01:00,62.0,60.0,29.82,SE,136,0.0,0.0,93,0.00,,,0.00,77.00,VWS V14.00,2013-02-21 20:01:00,
2013-02-21 14:02:00,62.1,60.1,29.82,East,80,0.0,0.0,93,0.00,,,0.00,72.00,VWS V14.00,2013-02-21 20:02:00,
2013-02-21 14:03:00,62.1,60.1,29.82,ENE,63,0.0,0.0,93,0.00,,,0.00,63.00,VWS V14.00,2013-02-21 20:03:00,
2013-02-21 14:04:00,62.1,60.1,29.82,NE,47,0.0,0.0,93,0.00,,,0.00,62.00,VWS V14.00,2013-02-21 20:04:00,
2013-02-21 14:05:00,62.1,60.1,29.82,ENE,66,0.0,0.0,93,0.00,,,0.00,62.00,VWS V14.00,2013-02-21 20:05:00,
2013-02-21 14:06:00,62.1,60.1,29.82,ENE,69,0.0,0.0,93,0.00,,,0.00,65.00,VWS V14.00,2013-02-21 20:06:00,
2013-02-21 14:07:00,62.1,60.1,29.82,ESE,104,0.0,0.0,93,0.00,,,0.00,65.00,VWS V14.00,2013-02-21 20:07:00,
2013-02-21 14:08:00,62.1,60.1,29.82,ESE,109,0.0,0.0,93,0.00,,,0.00,67.00,VWS V14.00,2013-02-21 20:08:00,
2013-02-21 14:09:00,62.1,60.1,29.82,ESE,108,0.0,0.0,93,0.00,,,0.00,67.00,VWS V14.00,2013-02-21 20:09:00,
2013-02-21 14:10:00,62.1,60.1,29.82,ESE,105,0.0,0.0,93,0.00,,,0.00,67.00,VWS V14.00,2013-02-21 20:10:00,
2013-02-21 14:11:00,62.1,60.1,29.82,East,80,0.0,0.0,93,0.00,,,0.00,67.00,VWS V14.00,2013-02-21 20:11:00,
2013-02-21 14:12:00,62.1,60.1,29.82,ESE,107,0.0,0.0,93,0.00,,,0.00,72.00,VWS V14.00,2013-02-21 20:12:00,
2013-02-21 14:13:00,62.1,60.1,29.82,East,88,0.0,0.0,93,0.00,,,0.00,76.00,VWS V14.00,2013-02-21 20:13:00,
2013-02-21 14:14:00,62.1,60.1,29.82,East,79,0.0,0.0,93,0.00,,,0.00,76.00,VWS V14.00,2013-02-21 20:14:00,
2013-02-21 14:15:00,62.1,60.1,29.82,East,81,0.0,0.0,93,0.00,,,0.00,77.00,VWS V14.00,2013-02-21 20:15:00,
2013-02-21 14:16:00,62.1,60.1,29.82,East,82,0.0,0.0,93,0.00,,,0.00,74.00,VWS V14.00,2013-02-21 20:16:00,
2013-02-21 14:17:00,62.3,60.2,29.82,East,83,0.0,0.0,93,0.00,,,0.00,62.00,VWS V14.00,2013-02-21 20:17:00,
2013-02-21 14:18:00,62.3,60.2,29.82,ESE,121,0.0,0.0,93,0.00,,,0.00,56.00,VWS V14.00,2013-02-21 20:18:00,
2013-02-21 14:19:00,62.3,60.2,29.82,East,84,0.0,0.0,93,0.00,,,0.00,54.00,VWS V14.00,2013-02-21 20:19:00,
2013-02-21 14:20:00,62.3,60.2,29.82,East,92,0.0,0.0,93,0.00,,,0.00,58.00,VWS V14.00,2013-02-21 20:20:00,
2013-02-21 14:21:00,62.3,60.2,29.82,ENE,59,0.0,0.0,93,0.00,,,0.00,65.00,VWS V14.00,2013-02-21 20:21:00,
2013-02-21 14:22:00,62.3,60.2,29.82,ENE,65,0.0,0.0,93,0.00,,,0.00,63.00,VWS V14.00,2013-02-21 20:22:00,
2013-02-21 14:23:00,62.4,60.3,29.82,SE,138,0.0,0.0,93,0.00,,,0.00,70.00,VWS V14.00,2013-02-21 20:23:00,
2013-02-21 14:24:00,62.4,60.3,29.82,ENE,73,0.0,0.0,93,0.00,,,0.00,76.00,VWS V14.00,2013-02-21 20:24:00,
2013-02-21 14:25:00,62.4,60.3,29.82,East,88,0.0,0.0,93,0.00,,,0.00,83.00,VWS V14.00,2013-02-21 20:25:00,
2013-02-21 14:26:00,62.4,60.3,29.82,East,101,0.0,0.0,93,0.00,,,0.00,100.00,VWS V14.00,2013-02-21 20:26:00,
2013-02-21 14:27:00,62.4,60.3,29.82,ESE,122,0.0,0.0,93,0.00,,,0.00,107.00,VWS V14.00,2013-02-21 20:27:00,
2013-02-21 14:28:00,62.4,60.3,29.82,East,80,0.0,0.0,93,0.00,,,0.00,120.00,VWS V14.00,2013-02-21 20:28:00,
2013-02-21 14:29:00,62.6,60.8,29.80,ESE,113,0.0,0.0,94,0.00,,,0.00,137.00,VWS V14.00,2013-02-21 20:29:00,
2013-02-21 14:30:00,62.6,60.8,29.80,ESE,114,0.0,0.0,94,0.00,,,0.00,141.00,VWS V14.00,2013-02-21 20:30:00,
2013-02-21 14:31:00,62.6,60.8,29.80,ESE,122,0.0,0.0,94,0.00,,,0.00,148.00,VWS V14.00,2013-02-21 20:31:00,
2013-02-21 14:32:00,62.6,60.8,29.80,East,92,0.0,0.0,94,0.00,,,0.00,169.00,VWS V14.00,2013-02-21 20:32:00,
2013-02-21 14:33:00,62.7,61.0,29.80,SE,128,0.0,0.0,94,0.00,,,0.00,185.00,VWS V14.00,2013-02-21 20:33:00,
2013-02-21 14:34:00,62.7,61.0,29.80,East,97,0.0,0.0,94,0.00,,,0.00,199.00,VWS V14.00,2013-02-21 20:34:00,
2013-02-21 14:35:00,62.7,61.0,29.80,East,97,0.0,0.0,94,0.00,,,0.00,202.00,VWS V14.00,2013-02-21 20:35:00,
2013-02-21 14:36:00,62.7,61.0,29.80,ENE,68,0.0,0.0,94,0.00,,,0.00,202.00,VWS V14.00,2013-02-21 20:36:00,
2013-02-21 14:37:00,62.9,61.2,29.80,SE,138,0.0,0.0,94,0.00,,,0.00,197.00,VWS V14.00,2013-02-21 20:37:00,
2013-02-21 14:38:00,62.9,61.2,29.80,SE,125,0.0,0.0,94,0.00,,,0.00,174.00,VWS V14.00,2013-02-21 20:38:00,
2013-02-21 14:39:00,62.9,61.2,29.80,ENE,70,0.0,0.0,94,0.00,,,0.00,141.00,VWS V14.00,2013-02-21 20:39:00,
2013-02-21 14:40:00,62.9,61.2,29.80,ENE,65,0.0,0.0,94,0.00,,,0.00,121.00,VWS V14.00,2013-02-21 20:40:00,
2013-02-21 14:41:00,63.1,61.3,29.80,East,88,0.0,0.0,94,0.00,,,0.00,109.00,VWS V14.00,2013-02-21 20:41:00,
2013-02-21 14:42:00,63.1,61.3,29.80,NE,42,0.0,0.0,94,0.00,,,0.00,104.00,VWS V14.00,2013-02-21 20:42:00,
2013-02-21 14:43:00,63.1,61.3,29.80,ENE,74,0.0,0.0,94,0.00,,,0.00,118.00,VWS V14.00,2013-02-21 20:43:00,
2013-02-21 14:44:00,63.1,61.3,29.80,NE,55,0.0,0.0,94,0.00,,,0.00,156.00,VWS V14.00,2013-02-21 20:44:00,
2013-02-21 14:45:00,63.1,61.3,29.80,NE,56,0.0,0.0,94,0.00,,,0.00,188.00,VWS V14.00,2013-02-21 20:45:00,
2013-02-21 14:46:00,63.2,61.5,29.80,East,85,0.0,0.0,94,0.00,,,0.00,218.00,VWS V14.00,2013-02-21 20:46:00,
2013-02-21 14:47:00,63.2,61.5,29.80,East,98,0.0,0.0,94,0.00,,,0.00,230.00,VWS V14.00,2013-02-21 20:47:00,
2013-02-21 14:48:00,63.2,61.5,29.80,SSE,163,0.0,0.0,94,0.00,,,0.00,227.00,VWS V14.00,2013-02-21 20:48:00,
2013-02-21 14:49:00,63.4,61.7,29.80,ESE,116,0.0,0.0,94,0.00,,,0.00,214.00,VWS V14.00,2013-02-21 20:49:00,
2013-02-21 14:50:00,63.4,61.7,29.80,SE,135,0.0,0.0,94,0.00,,,0.00,179.00,VWS V14.00,2013-02-21 20:50:00,
2013-02-21 14:51:00,63.4,61.3,29.80,East,96,0.0,0.0,93,0.00,,,0.00,163.00,VWS V14.00,2013-02-21 20:51:00,
2013-02-21 14:52:00,63.4,61.3,29.80,SE,135,0.0,0.0,93,0.00,,,0.00,148.00,VWS V14.00,2013-02-21 20:52:00,
2013-02-21 14:53:00,63.4,61.3,29.80,NNE,22,0.0,0.0,93,0.00,,,0.00,139.00,VWS V14.00,2013-02-21 20:53:00,
2013-02-21 14:54:00,63.4,61.3,29.80,ENE,60,0.0,0.0,93,0.00,,,0.00,153.00,VWS V14.00,2013-02-21 20:54:00,
2013-02-21 14:55:00,63.5,61.4,29.80,SSE,155,0.0,0.0,93,0.00,,,0.00,151.00,VWS V14.00,2013-02-21 20:55:00,
2013-02-21 14:56:00,63.5,61.4,29.80,SE,145,0.0,0.0,93,0.00,,,0.00,149.00,VWS V14.00,2013-02-21 20:56:00,
2013-02-21 14:57:00,63.5,61.4,29.80,ESE,114,0.0,0.0,93,0.00,,,0.00,148.00,VWS V14.00,2013-02-21 20:57:00,
2013-02-21 14:58:00,63.5,61.4,29.80,East,96,0.0,0.0,93,0.00,,,0.00,149.00,VWS V14.00,2013-02-21 20:58:00,
2013-02-21 14:59:00,63.7,61.6,29.80,East,101,0.0,0.0,93,0.00,,,0.00,165.00,VWS V14.00,2013-02-21 20:59:00,
2013-02-21 15:00:00,63.7,61.6,29.78,NE,54,0.0,0.0,93,0.00,,,0.00,169.00,VWS V14.00,2013-02-21 21:00:00,
2013-02-21 15:01:00,63.7,61.6,29.78,East,88,0.0,0.0,93,0.00,,,0.00,199.00,VWS V14.00,2013-02-21 21:01:00,
2013-02-21 15:02:00,63.7,61.6,29.78,East,88,0.0,0.0,93,0.00,,,0.00,223.00,VWS V14.00,2013-02-21 21:02:00,
2013-02-21 15:03:00,63.7,61.6,29.78,East,89,0.0,0.0,93,0.00,,,0.00,227.00,VWS V14.00,2013-02-21 21:03:00,
2013-02-21 15:04:00,63.9,61.8,29.78,ENE,76,0.0,0.0,93,0.00,,,0.00,214.00,VWS V14.00,2013-02-21 21:04:00,
2013-02-21 15:05:00,63.9,61.8,29.78,SE,128,0.0,0.0,93,0.00,,,0.00,211.00,VWS V14.00,2013-02-21 21:05:00,
2013-02-21 15:06:00,63.9,61.8,29.78,East,91,0.0,0.0,93,0.00,,,0.00,206.00,VWS V14.00,2013-02-21 21:06:00,
2013-02-21 15:07:00,63.9,61.8,29.78,ENE,59,0.0,0.0,93,0.00,,,0.00,200.00,VWS V14.00,2013-02-21 21:07:00,
2013-02-21 15:08:00,63.9,61.8,29.78,NE,41,0.0,0.0,93,0.00,,,0.00,193.00,VWS V14.00,2013-02-21 21:08:00,
2013-02-21 15:09:00,63.9,61.8,29.78,East,79,0.0,0.0,93,0.00,,,0.00,190.00,VWS V14.00,2013-02-21 21:09:00,
2013-02-21 15:10:00,63.9,61.8,29.78,ESE,105,0.0,0.0,93,0.00,,,0.00,179.00,VWS V14.00,2013-02-21 21:10:00,
2013-02-21 15:11:00,63.9,61.8,29.78,ESE,107,0.0,0.0,93,0.00,,,0.00,178.00,VWS V14.00,2013-02-21 21:11:00,
2013-02-21 15:12:00,63.9,61.8,29.78,East,92,0.0,0.0,93,0.00,,,0.00,185.00,VWS V14.00,2013-02-21 21:12:00,
2013-02-21 15:13:00,63.9,61.8,29.78,SE,137,0.0,0.0,93,0.00,,,0.00,192.00,VWS V14.00,2013-02-21 21:13:00,
2013-02-21 15:14:00,63.9,61.8,29.77,SE,130,0.0,0.0,93,0.00,,,0.00,195.00,VWS V14.00,2013-02-21 21:14:00,
2013-02-21 15:15:00,63.9,61.8,29.77,SE,138,0.0,0.0,93,0.00,,,0.00,195.00,VWS V14.00,2013-02-21 21:15:00,
2013-02-21 15:16:00,63.9,61.8,29.77,East,98,0.0,0.0,93,0.00,,,0.00,202.00,VWS V14.00,2013-02-21 21:16:00,
2013-02-21 15:17:00,63.9,61.8,29.77,SE,135,0.0,0.0,93,0.00,,,0.00,214.00,VWS V14.00,2013-02-21 21:17:00,
2013-02-21 15:18:00,63.9,61.8,29.77,SE,127,0.0,0.0,93,0.00,,,0.00,206.00,VWS V14.00,2013-02-21 21:18:00,
2013-02-21 15:19:00,63.9,61.8,29.77,SSE,148,0.0,0.0,93,0.00,,,0.00,200.00,VWS V14.00,2013-02-21 21:19:00,
2013-02-21 15:20:00,63.9,61.5,29.77,ESE,114,0.0,0.0,92,0.00,,,0.00,199.00,VWS V14.00,2013-02-21 21:20:00,
2013-02-21 15:21:00,63.9,61.5,29.77,SE,126,0.0,0.0,92,0.00,,,0.00,190.00,VWS V14.00,2013-02-21 21:21:00,
2013-02-21 15:22:00,63.9,61.5,29.77,NE,44,0.0,0.0,92,0.00,,,0.00,185.00,VWS V14.00,2013-02-21 21:22:00,
2013-02-21 15:23:00,63.9,61.5,29.77,ESE,119,0.0,0.0,92,0.00,,,0.00,178.00,VWS V14.00,2013-02-21 21:23:00,
2013-02-21 15:24:00,63.9,61.5,29.77,SE,134,0.0,0.0,92,0.00,,,0.00,181.00,VWS V14.00,2013-02-21 21:24:00,
2013-02-21 15:25:00,63.9,61.5,29.77,East,85,0.0,0.0,92,0.00,,,0.00,186.00,VWS V14.00,2013-02-21 21:25:00,
2013-02-21 15:26:00,63.9,61.5,29.77,SE,126,0.0,0.0,92,0.00,,,0.00,174.00,VWS V14.00,2013-02-21 21:26:00,
2013-02-21 15:27:00,63.9,61.5,29.77,NNW,346,0.0,0.0,92,0.00,,,0.00,169.00,VWS V14.00,2013-02-21 21:27:00,
2013-02-21 15:28:00,63.9,61.5,29.77,ESE,123,0.0,0.0,92,0.00,,,0.00,165.00,VWS V14.00,2013-02-21 21:28:00,
2013-02-21 15:29:00,63.9,61.5,29.77,SE,140,0.0,0.0,92,0.00,,,0.00,163.00,VWS V14.00,2013-02-21 21:29:00,
2013-02-21 15:30:00,63.7,61.3,29.77,ENE,69,0.0,0.0,92,0.00,,,0.00,160.00,VWS V14.00,2013-02-21 21:30:00,
2013-02-21 15:31:00,63.7,61.3,29.77,ENE,72,0.0,0.0,92,0.00,,,0.00,153.00,VWS V14.00,2013-02-21 21:31:00,
2013-02-21 15:32:00,63.7,61.3,29.77,SE,135,0.0,0.0,92,0.00,,,0.00,155.00,VWS V14.00,2013-02-21 21:32:00,
2013-02-21 15:33:00,63.7,61.3,29.77,ESE,118,0.0,0.0,92,0.00,,,0.00,158.00,VWS V14.00,2013-02-21 21:33:00,
2013-02-21 15:34:00,63.7,61.3,29.77,ESE,104,0.0,0.0,92,0.00,,,0.00,160.00,VWS V14.00,2013-02-21 21:34:00,
2013-02-21 15:35:00,63.7,61.3,29.77,ESE,117,0.0,0.0,92,0.00,,,0.00,165.00,VWS V14.00,2013-02-21 21:35:00,
2013-02-21 15:36:00,63.5,61.1,29.77,SE,142,0.0,0.0,92,0.00,,,0.00,165.00,VWS V14.00,2013-02-21 21:36:00,
2013-02-21 15:37:00,63.5,61.1,29.77,ESE,115,0.0,0.0,92,0.00,,,0.00,162.00,VWS V14.00,2013-02-21 21:37:00,
2013-02-21 15:38:00,63.5,61.1,29.77,ESE,108,0.0,0.0,92,0.00,,,0.00,156.00,VWS V14.00,2013-02-21 21:38:00,
2013-02-21 15:39:00,63.5,61.1,29.77,ESE,123,0.0,0.0,92,0.00,,,0.00,151.00,VWS V14.00,2013-02-21 21:39:00,
2013-02-21 15:40:00,63.5,61.1,29.77,ESE,117,0.0,0.0,92,0.00,,,0.00,148.00,VWS V14.00,2013-02-21 21:40:00,
2013-02-21 15:41:00,63.5,61.1,29.77,East,99,0.0,0.0,92,0.00,,,0.00,148.00,VWS V14.00,2013-02-21 21:41:00,
2013-02-21 15:42:00,63.5,61.1,29.77,East,81,0.0,0.0,92,0.00,,,0.00,137.00,VWS V14.00,2013-02-21 21:42:00,
2013-02-21 15:43:00,63.5,61.1,29.77,South,169,0.0,0.0,92,0.00,,,0.00,139.00,VWS V14.00,2013-02-21 21:43:00,
2013-02-21 15:44:00,63.5,61.1,29.77,South,169,0.0,0.0,92,0.00,,,0.00,141.00,VWS V14.00,2013-02-21 21:44:00,
2013-02-21 15:45:00,63.5,61.1,29.77,ESE,106,0.0,0.0,92,0.00,,,0.00,142.00,VWS V14.00,2013-02-21 21:45:00,
2013-02-21 15:46:00,63.5,61.1,29.77,ESE,108,0.0,0.0,92,0.00,,,0.00,139.00,VWS V14.00,2013-02-21 21:46:00,
2013-02-21 15:47:00,63.5,61.1,29.77,SE,132,0.0,0.0,92,0.00,,,0.00,135.00,VWS V14.00,2013-02-21 21:47:00,
2013-02-21 15:48:00,63.5,61.1,29.77,SSE,163,0.0,0.0,92,0.00,,,0.00,132.00,VWS V14.00,2013-02-21 21:48:00,
2013-02-21 15:49:00,63.5,61.4,29.77,SE,144,0.0,0.0,93,0.00,,,0.00,128.00,VWS V14.00,2013-02-21 21:49:00,
2013-02-21 15:50:00,63.5,61.4,29.77,SSE,159,0.0,0.0,93,0.00,,,0.00,125.00,VWS V14.00,2013-02-21 21:50:00,
2013-02-21 15:51:00,63.5,61.4,29.77,SE,146,0.0,0.0,93,0.00,,,0.00,120.00,VWS V14.00,2013-02-21 21:51:00,
2013-02-21 15:52:00,63.5,61.4,29.77,SE,135,0.0,0.0,93,0.00,,,0.00,116.00,VWS V14.00,2013-02-21 21:52:00,
2013-02-21 15:53:00,63.5,61.4,29.77,East,98,0.0,0.0,93,0.00,,,0.00,114.00,VWS V14.00,2013-02-21 21:53:00,
2013-02-21 15:54:00,63.5,61.4,29.77,NE,49,0.0,0.0,93,0.00,,,0.00,113.00,VWS V14.00,2013-02-21 21:54:00,
2013-02-21 15:55:00,63.5,61.4,29.77,North,5,0.0,0.0,93,0.00,,,0.00,113.00,VWS V14.00,2013-02-21 21:55:00,
2013-02-21 15:56:00,63.5,61.4,29.77,North,5,0.0,0.0,93,0.00,,,0.00,121.00,VWS V14.00,2013-02-21 21:56:00,
2013-02-21 15:57:00,63.5,61.4,29.77,SE,145,0.0,0.0,93,0.00,,,0.00,123.00,VWS V14.00,2013-02-21 21:57:00,
2013-02-21 15:58:00,63.5,61.4,29.77,SE,137,0.0,0.0,93,0.00,,,0.00,123.00,VWS V14.00,2013-02-21 21:58:00,
2013-02-21 15:59:00,63.5,61.4,29.77,East,86,0.0,0.0,93,0.00,,,0.00,121.00,VWS V14.00,2013-02-21 21:59:00,
2013-02-21 16:00:00,63.5,61.4,29.77,East,85,0.0,0.0,93,0.00,,,0.00,114.00,VWS V14.00,2013-02-21 22:00:00,
2013-02-21 16:01:00,63.5,61.4,29.77,East,87,0.0,0.0,93,0.00,,,0.00,105.00,VWS V14.00,2013-02-21 22:01:00,
2013-02-21 16:02:00,63.5,61.4,29.77,East,101,0.0,0.0,93,0.00,,,0.00,88.00,VWS V14.00,2013-02-21 22:02:00,
2013-02-21 16:03:00,63.5,61.4,29.77,SE,139,0.0,0.0,93,0.00,,,0.00,81.00,VWS V14.00,2013-02-21 22:03:00,
2013-02-21 16:04:00,63.5,61.4,29.77,SSE,147,0.0,0.0,93,0.00,,,0.00,76.00,VWS V14.00,2013-02-21 22:04:00,
2013-02-21 16:05:00,63.5,61.4,29.77,SE,132,0.0,0.0,93,0.00,,,0.00,72.00,VWS V14.00,2013-02-21 22:05:00,
2013-02-21 16:06:00,63.5,61.4,29.77,SE,132,0.0,0.0,93,0.00,,,0.00,70.00,VWS V14.00,2013-02-21 22:06:00,
2013-02-21 16:07:00,63.5,61.4,29.77,ESE,122,0.0,0.0,93,0.00,,,0.00,81.00,VWS V14.00,2013-02-21 22:07:00,
2013-02-21 16:08:00,63.5,61.4,29.77,SE,127,0.0,0.0,93,0.00,,,0.00,88.00,VWS V14.00,2013-02-21 22:08:00,
2013-02-21 16:09:00,63.5,61.4,29.77,SE,146,0.0,0.0,93,0.00,,,0.00,93.00,VWS V14.00,2013-02-21 22:09:00,
2013-02-21 16:10:00,63.5,61.4,29.77,SE,144,0.0,0.0,93,0.00,,,0.00,98.00,VWS V14.00,2013-02-21 22:10:00,
2013-02-21 16:11:00,63.5,61.4,29.77,SE,130,0.0,0.0,93,0.00,,,0.00,102.00,VWS V14.00,2013-02-21 22:11:00,
2013-02-21 16:12:00,63.5,61.4,29.77,ESE,107,0.0,0.0,93,0.00,,,0.00,100.00,VWS V14.00,2013-02-21 22:12:00,
2013-02-21 16:13:00,63.5,61.4,29.77,ESE,122,0.0,0.0,93,0.00,,,0.00,97.00,VWS V14.00,2013-02-21 22:13:00,
2013-02-21 16:14:00,63.5,61.4,29.76,ESE,105,0.0,0.0,93,0.00,,,0.00,97.00,VWS V14.00,2013-02-21 22:14:00,
2013-02-21 16:15:00,63.5,61.4,29.76,South,173,0.0,0.0,93,0.00,,,0.00,95.00,VWS V14.00,2013-02-21 22:15:00,
2013-02-21 16:16:00,63.5,61.4,29.76,ESE,119,0.0,0.0,93,0.00,,,0.00,97.00,VWS V14.00,2013-02-21 22:16:00,
2013-02-21 16:17:00,63.5,61.4,29.76,ESE,121,0.0,0.0,93,0.00,,,0.00,102.00,VWS V14.00,2013-02-21 22:17:00,
2013-02-21 16:18:00,63.5,61.8,29.76,East,91,0.0,0.0,94,0.00,,,0.00,109.00,VWS V14.00,2013-02-21 22:18:00,
2013-02-21 16:19:00,63.5,61.8,29.76,East,91,0.0,0.0,94,0.00,,,0.00,114.00,VWS V14.00,2013-02-21 22:19:00,
2013-02-21 16:20:00,63.5,61.8,29.76,South,175,0.0,0.0,94,0.00,,,0.00,118.00,VWS V14.00,2013-02-21 22:20:00,
2013-02-21 16:21:00,63.5,61.8,29.76,SE,126,0.0,0.0,94,0.00,,,0.00,121.00,VWS V14.00,2013-02-21 22:21:00,
2013-02-21 16:22:00,63.5,61.8,29.76,SE,134,0.0,0.0,94,0.00,,,0.00,127.00,VWS V14.00,2013-02-21 22:22:00,
2013-02-21 16:23:00,63.5,61.8,29.76,SE,129,0.0,0.0,94,0.00,,,0.00,132.00,VWS V14.00,2013-02-21 22:23:00,
2013-02-21 16:24:00,63.5,61.8,29.76,SE,128,0.0,0.0,94,0.00,,,0.00,132.00,VWS V14.00,2013-02-21 22:24:00,
2013-02-21 16:25:00,63.5,61.8,29.76,ESE,123,0.0,0.0,94,0.00,,,0.00,125.00,VWS V14.00,2013-02-21 22:25:00,
2013-02-21 16:26:00,63.5,61.8,29.76,SE,133,0.0,0.0,94,0.00,,,0.00,116.00,VWS V14.00,2013-02-21 22:26:00,
2013-02-21 16:27:00,63.5,61.8,29.76,ESE,110,0.0,0.0,94,0.00,,,0.00,113.00,VWS V14.00,2013-02-21 22:27:00,
2013-02-21 16:28:00,63.5,61.8,29.76,ESE,123,0.0,0.0,94,0.00,,,0.00,113.00,VWS V14.00,2013-02-21 22:28:00,
2013-02-21 16:29:00,63.5,61.8,29.76,East,88,0.0,0.0,94,0.00,,,0.00,111.00,VWS V14.00,2013-02-21 22:29:00,
2013-02-21 16:30:00,63.5,61.8,29.76,SE,146,0.0,0.0,94,0.00,,,0.00,107.00,VWS V14.00,2013-02-21 22:30:00,
2013-02-21 16:31:00,63.5,61.8,29.76,SE,130,0.0,0.0,94,0.00,,,0.00,102.00,VWS V14.00,2013-02-21 22:31:00,
2013-02-21 16:32:00,63.5,61.8,29.76,ESE,109,0.0,0.0,94,0.00,,,0.00,91.00,VWS V14.00,2013-02-21 22:32:00,
2013-02-21 16:33:00,63.5,61.8,29.76,ESE,109,0.0,0.0,94,0.00,,,0.00,88.00,VWS V14.00,2013-02-21 22:33:00,
2013-02-21 16:34:00,63.5,61.8,29.76,SSE,150,0.0,0.0,94,0.00,,,0.00,83.00,VWS V14.00,2013-02-21 22:34:00,
2013-02-21 16:35:00,63.5,61.8,29.76,SSE,149,0.0,0.0,94,0.00,,,0.00,79.00,VWS V14.00,2013-02-21 22:35:00,
2013-02-21 16:36:00,63.5,61.8,29.76,ESE,118,0.0,0.0,94,0.00,,,0.00,76.00,VWS V14.00,2013-02-21 22:36:00,
2013-02-21 16:37:00,63.5,61.8,29.76,ESE,122,0.0,0.0,94,0.00,,,0.00,70.00,VWS V14.00,2013-02-21 22:37:00,
2013-02-21 16:38:00,63.5,61.8,29.76,ESE,121,0.0,0.0,94,0.00,,,0.00,69.00,VWS V14.00,2013-02-21 22:38:00,
2013-02-21 16:39:00,63.5,61.8,29.76,SSE,168,0.0,0.0,94,0.00,,,0.00,69.00,VWS V14.00,2013-02-21 22:39:00,
2013-02-21 16:40:00,63.5,61.8,29.76,South,178,0.0,0.0,94,0.00,,,0.00,69.00,VWS V14.00,2013-02-21 22:40:00,
2013-02-21 16:41:00,63.5,61.8,29.76,NE,35,0.0,0.0,94,0.00,,,0.00,69.00,VWS V14.00,2013-02-21 22:41:00,
2013-02-21 16:42:00,63.5,61.8,29.76,SSE,150,0.0,0.0,94,0.00,,,0.00,67.00,VWS V14.00,2013-02-21 22:42:00,
2013-02-21 16:43:00,63.5,61.8,29.76,SE,138,0.0,0.0,94,0.00,,,0.00,65.00,VWS V14.00,2013-02-21 22:43:00,
2013-02-21 16:44:00,63.5,61.8,29.76,South,183,0.0,0.0,94,0.00,,,0.00,63.00,VWS V14.00,2013-02-21 22:44:00,
2013-02-21 16:45:00,63.5,61.8,29.76,ESE,119,0.0,0.0,94,0.00,,,0.00,60.00,VWS V14.00,2013-02-21 22:45:00,
2013-02-21 16:46:00,63.5,61.8,29.76,ESE,118,0.0,0.0,94,0.00,,,0.00,58.00,VWS V14.00,2013-02-21 22:46:00,
2013-02-21 16:47:00,63.5,61.8,29.76,ENE,60,0.0,0.0,94,0.00,,,0.00,56.00,VWS V14.00,2013-02-21 22:47:00,
2013-02-21 16:48:00,63.5,61.8,29.76,ENE,68,0.0,0.0,94,0.00,,,0.00,53.00,VWS V14.00,2013-02-21 22:48:00,
2013-02-21 16:49:00,63.5,61.8,29.76,SE,126,0.0,0.0,94,0.00,,,0.00,51.00,VWS V14.00,2013-02-21 22:49:00,
2013-02-21 16:50:00,63.4,61.7,29.76,ESE,120,0.0,0.0,94,0.00,,,0.00,51.00,VWS V14.00,2013-02-21 22:50:00,
2013-02-21 16:51:00,63.4,62.0,29.76,ESE,123,0.0,0.0,95,0.00,,,0.00,51.00,VWS V14.00,2013-02-21 22:51:00,
2013-02-21 16:52:00,63.4,62.0,29.76,SE,136,0.0,0.0,95,0.00,,,0.00,51.00,VWS V14.00,2013-02-21 22:52:00,
2013-02-21 16:53:00,63.4,62.0,29.76,SSE,159,0.0,0.0,95,0.00,,,0.00,47.00,VWS V14.00,2013-02-21 22:53:00,
2013-02-21 16:54:00,63.4,62.0,29.76,ENE,68,0.0,0.0,95,0.00,,,0.00,46.00,VWS V14.00,2013-02-21 22:54:00,
2013-02-21 16:55:00,63.4,62.0,29.76,East,92,0.0,0.0,95,0.00,,,0.00,44.00,VWS V14.00,2013-02-21 22:55:00,
2013-02-21 16:56:00,63.4,62.0,29.76,SE,125,0.0,0.0,95,0.00,,,0.00,44.00,VWS V14.00,2013-02-21 22:56:00,
2013-02-21 16:57:00,63.4,62.0,29.76,SSE,150,0.0,0.0,95,0.00,,,0.00,42.00,VWS V14.00,2013-02-21 22:57:00,
2013-02-21 16:58:00,63.4,62.0,29.76,SE,140,0.0,0.0,95,0.00,,,0.00,42.00,VWS V14.00,2013-02-21 22:58:00,
2013-02-21 16:59:00,63.4,62.0,29.76,SE,142,0.0,0.0,95,0.00,,,0.00,40.00,VWS V14.00,2013-02-21 22:59:00,
2013-02-21 17:00:00,63.4,62.0,29.77,SE,140,0.0,0.0,95,0.00,,,0.00,39.00,VWS V14.00,2013-02-21 23:00:00,
2013-02-21 17:01:00,63.4,62.0,29.77,SE,143,0.0,0.0,95,0.00,,,0.00,35.00,VWS V14.00,2013-02-21 23:01:00,
2013-02-21 17:02:00,63.4,62.0,29.77,ENE,78,0.0,0.0,95,0.00,,,0.00,32.00,VWS V14.00,2013-02-21 23:02:00,
2013-02-21 17:03:00,63.4,62.0,29.77,South,188,0.0,0.0,95,0.00,,,0.00,30.00,VWS V14.00,2013-02-21 23:03:00,
2013-02-21 17:04:00,63.4,62.0,29.77,ESE,103,0.0,0.0,95,0.00,,,0.00,26.00,VWS V14.00,2013-02-21 23:04:00,
2013-02-21 17:05:00,63.4,62.0,29.77,ESE,103,0.0,0.0,95,0.00,,,0.00,25.00,VWS V14.00,2013-02-21 23:05:00,
2013-02-21 17:06:00,63.2,61.8,29.77,SE,146,0.0,0.0,95,0.00,,,0.00,23.00,VWS V14.00,2013-02-21 23:06:00,
2013-02-21 17:07:00,63.2,61.8,29.77,SE,146,0.0,0.0,95,0.00,,,0.00,19.00,VWS V14.00,2013-02-21 23:07:00,
2013-02-21 17:08:00,63.2,61.8,29.77,SE,135,0.0,0.0,95,0.00,,,0.00,18.00,VWS V14.00,2013-02-21 23:08:00,
2013-02-21 17:09:00,63.2,61.8,29.77,SSE,158,0.0,0.0,95,0.00,,,0.00,16.00,VWS V14.00,2013-02-21 23:09:00,
2013-02-21 17:10:00,63.2,61.8,29.77,SSE,148,0.0,0.0,95,0.00,,,0.00,16.00,VWS V14.00,2013-02-21 23:10:00,
2013-02-21 17:11:00,63.2,61.8,29.77,SE,144,0.0,0.0,95,0.00,,,0.00,14.00,VWS V14.00,2013-02-21 23:11:00,
2013-02-21 17:12:00,63.2,61.8,29.77,ESE,123,0.0,0.0,95,0.00,,,0.00,14.00,VWS V14.00,2013-02-21 23:12:00,
2013-02-21 17:13:00,63.2,62.0,29.77,ENE,58,0.0,0.0,96,0.00,,,0.00,14.00,VWS V14.00,2013-02-21 23:13:00,
2013-02-21 17:14:00,63.2,62.0,29.78,ENE,69,0.0,0.0,96,0.00,,,0.00,14.00,VWS V14.00,2013-02-21 23:14:00,
2013-02-21 17:15:00,63.2,62.0,29.78,ENE,66,0.0,0.0,96,0.00,,,0.00,12.00,VWS V14.00,2013-02-21 23:15:00,
2013-02-21 17:16:00,63.2,62.0,29.78,SSE,154,0.0,0.0,96,0.00,,,0.00,12.00,VWS V14.00,2013-02-21 23:16:00,
2013-02-21 17:17:00,63.2,62.0,29.78,SSE,154,0.0,0.0,96,0.00,,,0.00,9.00,VWS V14.00,2013-02-21 23:17:00,
2013-02-21 17:18:00,63.2,62.0,29.78,ESE,119,0.0,0.0,96,0.00,,,0.00,9.00,VWS V14.00,2013-02-21 23:18:00,
2013-02-21 17:19:00,63.2,62.0,29.78,ESE,123,0.0,0.0,96,0.00,,,0.00,7.00,VWS V14.00,2013-02-21 23:19:00,
2013-02-21 17:20:00,63.2,62.0,29.78,East,101,0.0,0.0,96,0.00,,,0.00,7.00,VWS V14.00,2013-02-21 23:20:00,
2013-02-21 17:21:00,63.4,62.2,29.78,SE,142,0.0,0.0,96,0.00,,,0.00,5.00,VWS V14.00,2013-02-21 23:21:00,
2013-02-21 17:22:00,63.2,62.0,29.78,ESE,117,0.0,0.0,96,0.00,,,0.00,5.00,VWS V14.00,2013-02-21 23:22:00,
2013-02-21 17:23:00,63.2,62.0,29.78,ESE,117,0.0,0.0,96,0.00,,,0.00,5.00,VWS V14.00,2013-02-21 23:23:00,
2013-02-21 17:24:00,63.2,62.0,29.78,ESE,107,0.0,0.0,96,0.00,,,0.00,0.00,VWS V14.00,2013-02-21 23:24:00,
2013-02-21 17:25:00,63.2,62.0,29.78,ESE,103,0.0,0.0,96,0.00,,,0.00,0.00,VWS V14.00,2013-02-21 23:25:00,
2013-02-21 17:26:00,63.2,62.0,29.78,ESE,105,0.0,0.0,96,0.00,,,0.00,0.00,VWS V14.00,2013-02-21 23:26:00,
2013-02-21 17:27:00,63.2,62.0,29.78,ESE,104,0.0,0.0,96,0.00,,,0.00,0.00,VWS V14.00,2013-02-21 23:27:00,
2013-02-21 17:28:00,63.2,62.0,29.78,ESE,108,0.0,0.0,96,0.00,,,0.00,0.00,VWS V14.00,2013-02-21 23:28:00,
2013-02-21 17:29:00,63.2,62.0,29.79,ESE,114,0.0,0.0,96,0.00,,,0.00,0.00,VWS V14.00,2013-02-21 23:29:00,
2013-02-21 17:30:00,63.2,62.0,29.79,ESE,113,0.0,0.0,96,0.00,,,0.00,0.00,VWS V14.00,2013-02-21 23:30:00,
2013-02-21 17:31:00,63.2,62.0,29.79,ESE,113,0.0,0.0,96,0.00,,,0.00,0.00,VWS V14.00,2013-02-21 23:31:00,
2013-02-21 17:32:00,63.2,62.0,29.79,South,172,0.0,0.0,96,0.00,,,0.00,0.00,VWS V14.00,2013-02-21 23:32:00,
2013-02-21 17:33:00,63.2,62.0,29.79,South,172,0.0,0.0,96,0.00,,,0.00,0.00,VWS V14.00,2013-02-21 23:33:00,
2013-02-21 17:34:00,63.2,62.0,29.79,SE,144,0.0,0.0,96,0.00,,,0.00,0.00,VWS V14.00,2013-02-21 23:34:00,
2013-02-21 17:35:00,63.2,62.0,29.79,SE,143,0.0,0.0,96,0.00,,,0.00,0.00,VWS V14.00,2013-02-21 23:35:00,
2013-02-21 17:36:00,63.2,62.0,29.79,SE,143,0.0,0.0,96,0.00,,,0.00,0.00,VWS V14.00,2013-02-21 23:36:00,
2013-02-21 17:37:00,63.2,62.0,29.79,SE,140,0.0,0.0,96,0.00,,,0.00,0.00,VWS V14.00,2013-02-21 23:37:00,
2013-02-21 17:38:00,63.2,62.0,29.79,SE,140,0.0,0.0,96,0.00,,,0.00,0.00,VWS V14.00,2013-02-21 23:38:00,
2013-02-21 17:39:00,63.2,62.0,29.79,SE,140,0.0,0.0,96,0.00,,,0.00,0.00,VWS V14.00,2013-02-21 23:39:00,
2013-02-21 17:40:00,63.2,62.0,29.79,SE,140,0.0,0.0,96,0.00,,,0.00,0.00,VWS V14.00,2013-02-21 23:40:00,
2013-02-21 17:41:00,63.2,62.0,29.79,SE,140,0.0,0.0,96,0.00,,,0.00,0.00,VWS V14.00,2013-02-21 23:41:00,
2013-02-21 17:42:00,63.2,62.0,29.79,SE,140,0.0,0.0,96,0.00,,,0.00,0.00,VWS V14.00,2013-02-21 23:42:00,
2013-02-21 17:43:00,63.2,62.0,29.79,SE,138,0.0,0.0,96,0.00,,,0.00,0.00,VWS V14.00,2013-02-21 23:43:00,
2013-02-21 17:44:00,63.2,62.0,29.78,East,86,0.0,0.0,96,0.00,,,0.00,0.00,VWS V14.00,2013-02-21 23:44:00,
2013-02-21 17:45:00,63.2,62.3,29.78,ENE,65,0.0,0.0,97,0.00,,,0.00,0.00,VWS V14.00,2013-02-21 23:45:00,
2013-02-21 17:46:00,63.2,62.3,29.78,East,101,0.0,0.0,97,0.00,,,0.00,0.00,VWS V14.00,2013-02-21 23:46:00,
2013-02-21 17:47:00,63.2,62.3,29.78,ESE,103,0.0,0.0,97,0.00,,,0.00,0.00,VWS V14.00,2013-02-21 23:47:00,
2013-02-21 17:48:00,63.2,62.3,29.78,SE,144,0.0,0.0,97,0.00,,,0.00,0.00,VWS V14.00,2013-02-21 23:48:00,
2013-02-21 17:49:00,63.2,62.3,29.78,SE,140,0.0,0.0,97,0.00,,,0.00,0.00,VWS V14.00,2013-02-21 23:49:00,
2013-02-21 17:50:00,63.2,62.3,29.78,SE,140,0.0,0.0,97,0.00,,,0.00,0.00,VWS V14.00,2013-02-21 23:50:00,
2013-02-21 17:51:00,63.2,62.3,29.78,ESE,107,0.0,0.0,97,0.00,,,0.00,0.00,VWS V14.00,2013-02-21 23:51:00,
2013-02-21 17:52:00,63.2,62.3,29.78,ESE,120,0.0,0.0,97,0.00,,,0.00,0.00,VWS V14.00,2013-02-21 23:52:00,
2013-02-21 17:53:00,63.2,62.3,29.78,SSE,153,0.0,0.0,97,0.00,,,0.00,0.00,VWS V14.00,2013-02-21 23:53:00,
2013-02-21 17:54:00,63.2,62.3,29.78,SE,133,0.0,0.0,97,0.00,,,0.00,0.00,VWS V14.00,2013-02-21 23:54:00,
2013-02-21 17:55:00,63.2,62.3,29.78,SE,133,0.0,0.0,97,0.00,,,0.00,0.00,VWS V14.00,2013-02-21 23:55:00,
2013-02-21 17:56:00,63.2,62.3,29.78,ESE,110,0.0,0.0,97,0.00,,,0.00,0.00,VWS V14.00,2013-02-21 23:56:00,
2013-02-21 17:57:00,63.2,62.3,29.78,ESE,112,0.0,0.0,97,0.00,,,0.00,0.00,VWS V14.00,2013-02-21 23:57:00,
2013-02-21 17:58:00,63.2,62.3,29.78,ESE,118,0.0,0.0,97,0.00,,,0.00,0.00,VWS V14.00,2013-02-21 23:58:00,
2013-02-21 17:59:00,63.2,62.3,29.79,SE,126,0.0,0.0,97,0.00,,,0.00,0.00,VWS V14.00,2013-02-21 23:59:00,
2013-02-21 18:00:00,63.2,62.3,29.79,ESE,115,0.0,0.0,97,0.00,,,0.00,0.00,VWS V14.00,2013-02-22 00:00:00,
2013-02-21 18:01:00,63.2,62.3,29.79,ESE,115,0.0,0.0,97,0.00,,,0.00,0.00,VWS V14.00,2013-02-22 00:01:00,
2013-02-21 18:02:00,63.2,62.3,29.79,ESE,115,0.0,0.0,97,0.00,,,0.00,0.00,VWS V14.00,2013-02-22 00:02:00,
2013-02-21 18:03:00,63.2,62.3,29.79,ESE,121,0.0,0.0,97,0.00,,,0.00,0.00,VWS V14.00,2013-02-22 00:03:00,
2013-02-21 18:04:00,63.2,62.3,29.79,ESE,121,0.0,0.0,97,0.00,,,0.00,0.00,VWS V14.00,2013-02-22 00:04:00,
2013-02-21 18:05:00,63.2,62.3,29.79,ESE,116,0.0,0.0,97,0.00,,,0.00,0.00,VWS V14.00,2013-02-22 00:05:00,
2013-02-21 18:06:00,63.2,62.3,29.79,ESE,115,0.0,0.0,97,0.00,,,0.00,0.00,VWS V14.00,2013-02-22 00:06:00,
2013-02-21 18:07:00,63.2,62.3,29.79,ESE,115,0.0,0.0,97,0.00,,,0.00,0.00,VWS V14.00,2013-02-22 00:07:00,
2013-02-21 18:08:00,63.2,62.3,29.79,SSE,150,0.0,0.0,97,0.00,,,0.00,0.00,VWS V14.00,2013-02-22 00:08:00,
2013-02-21 18:09:00,63.2,62.3,29.79,SSE,150,0.0,0.0,97,0.00,,,0.00,0.00,VWS V14.00,2013-02-22 00:09:00,
2013-02-21 18:10:00,63.2,62.3,29.79,SSE,149,0.0,0.0,97,0.00,,,0.00,0.00,VWS V14.00,2013-02-22 00:10:00,
2013-02-21 18:11:00,63.4,62.5,29.79,SE,141,0.0,0.0,97,0.00,,,0.00,0.00,VWS V14.00,2013-02-22 00:11:00,
2013-02-21 18:12:00,63.4,62.5,29.79,SE,141,0.0,0.0,97,0.00,,,0.00,0.00,VWS V14.00,2013-02-22 00:12:00,
2013-02-21 18:13:00,63.4,62.5,29.79,SE,141,0.0,0.0,97,0.00,,,0.00,0.00,VWS V14.00,2013-02-22 00:13:00,
2013-02-21 18:14:00,63.4,62.5,29.80,SE,141,0.0,0.0,97,0.00,,,0.00,0.00,VWS V14.00,2013-02-22 00:14:00,
2013-02-21 18:15:00,63.4,62.5,29.80,SSE,148,0.0,0.0,97,0.00,,,0.00,0.00,VWS V14.00,2013-02-22 00:15:00,
2013-02-21 18:16:00,63.4,62.5,29.80,SSE,148,0.0,0.0,97,0.00,,,0.00,0.00,VWS V14.00,2013-02-22 00:16:00,
2013-02-21 18:17:00,63.4,62.5,29.80,SSE,148,0.0,0.0,97,0.00,,,0.00,0.00,VWS V14.00,2013-02-22 00:17:00,
2013-02-21 18:18:00,63.4,62.5,29.80,ESE,115,0.0,0.0,97,0.00,,,0.00,0.00,VWS V14.00,2013-02-22 00:18:00,
2013-02-21 18:19:00,63.4,62.5,29.80,ESE,123,0.0,0.0,97,0.00,,,0.00,0.00,VWS V14.00,2013-02-22 00:19:00,
2013-02-21 18:20:00,63.4,62.5,29.80,ESE,117,0.0,0.0,97,0.00,,,0.00,0.00,VWS V14.00,2013-02-22 00:20:00,
2013-02-21 18:21:00,63.4,62.5,29.80,ESE,116,0.0,0.0,97,0.00,,,0.00,0.00,VWS V14.00,2013-02-22 00:21:00,
2013-02-21 18:22:00,63.4,62.5,29.80,ESE,117,0.0,0.0,97,0.00,,,0.00,0.00,VWS V14.00,2013-02-22 00:22:00,
2013-02-21 18:23:00,63.4,62.5,29.80,ESE,117,0.0,0.0,97,0.00,,,0.00,0.00,VWS V14.00,2013-02-22 00:23:00,
2013-02-21 18:24:00,63.4,62.5,29.80,ESE,117,0.0,0.0,97,0.00,,,0.00,0.00,VWS V14.00,2013-02-22 00:24:00,
2013-02-21 18:25:00,63.4,62.8,29.80,ESE,117,0.0,0.0,98,0.00,,,0.00,0.00,VWS V14.00,2013-02-22 00:25:00,
2013-02-21 18:26:00,63.4,62.8,29.80,ESE,117,0.0,0.0,98,0.00,,,0.00,0.00,VWS V14.00,2013-02-22 00:26:00,
2013-02-21 18:27:00,63.4,62.8,29.80,ESE,116,0.0,0.0,98,0.00,,,0.00,0.00,VWS V14.00,2013-02-22 00:27:00,
2013-02-21 18:28:00,63.4,62.8,29.80,ESE,116,0.0,0.0,98,0.00,,,0.00,0.00,VWS V14.00,2013-02-22 00:28:00,
2013-02-21 18:29:00,63.4,62.8,29.80,ESE,116,0.0,0.0,98,0.00,,,0.00,0.00,VWS V14.00,2013-02-22 00:29:00,
2013-02-21 18:30:00,63.4,62.8,29.80,ESE,116,0.0,0.0,98,0.00,,,0.00,0.00,VWS V14.00,2013-02-22 00:30:00,
2013-02-21 18:31:00,63.4,62.8,29.80,ESE,116,0.0,0.0,98,0.00,,,0.00,0.00,VWS V14.00,2013-02-22 00:31:00,
2013-02-21 18:32:00,63.4,62.8,29.80,ESE,116,0.0,0.0,98,0.00,,,0.00,0.00,VWS V14.00,2013-02-22 00:32:00,
2013-02-21 18:33:00,63.4,62.8,29.80,ESE,117,0.0,0.0,98,0.00,,,0.00,0.00,VWS V14.00,2013-02-22 00:33:00,
2013-02-21 18:34:00,63.4,62.8,29.80,ESE,117,0.0,0.0,98,0.00,,,0.00,0.00,VWS V14.00,2013-02-22 00:34:00,
2013-02-21 18:35:00,63.4,62.8,29.80,ESE,117,0.0,0.0,98,0.00,,,0.00,0.00,VWS V14.00,2013-02-22 00:35:00,
2013-02-21 18:36:00,63.4,62.8,29.80,East,82,0.0,0.0,98,0.00,,,0.00,0.00,VWS V14.00,2013-02-22 00:36:00,
2013-02-21 18:37:00,63.4,62.8,29.80,SE,141,0.0,0.0,98,0.00,,,0.00,0.00,VWS V14.00,2013-02-22 00:37:00,
2013-02-21 18:38:00,63.4,62.8,29.80,SE,140,0.0,0.0,98,0.00,,,0.00,0.00,VWS V14.00,2013-02-22 00:38:00,
2013-02-21 18:39:00,63.4,62.8,29.80,South,182,0.0,0.0,98,0.00,,,0.00,0.00,VWS V14.00,2013-02-22 00:39:00,
2013-02-21 18:40:00,63.4,62.8,29.80,South,182,0.0,0.0,98,0.00,,,0.00,0.00,VWS V14.00,2013-02-22 00:40:00,
2013-02-21 18:41:00,63.4,62.8,29.80,South,182,0.0,0.0,98,0.00,,,0.00,0.00,VWS V14.00,2013-02-22 00:41:00,
2013-02-21 18:42:00,63.4,62.8,29.80,SE,141,0.0,0.0,98,0.00,,,0.00,0.00,VWS V14.00,2013-02-22 00:42:00,
2013-02-21 18:43:00,63.5,62.9,29.80,SE,140,0.0,0.0,98,0.00,,,0.00,0.00,VWS V14.00,2013-02-22 00:43:00,
2013-02-21 18:44:00,63.5,62.9,29.80,SE,141,0.0,0.0,98,0.00,,,0.00,0.00,VWS V14.00,2013-02-22 00:44:00,
2013-02-21 18:45:00,63.5,62.9,29.80,SE,142,0.0,0.0,98,0.00,,,0.00,0.00,VWS V14.00,2013-02-22 00:45:00,
2013-02-21 18:46:00,63.5,62.9,29.80,SE,140,0.0,0.0,98,0.00,,,0.00,0.00,VWS V14.00,2013-02-22 00:46:00,
2013-02-21 18:47:00,63.5,62.9,29.80,SE,134,0.0,0.0,98,0.00,,,0.00,0.00,VWS V14.00,2013-02-22 00:47:00,
2013-02-21 18:48:00,63.5,62.9,29.80,SE,140,0.0,0.0,98,0.00,,,0.00,0.00,VWS V14.00,2013-02-22 00:48:00,
2013-02-21 18:49:00,63.5,62.9,29.80,South,182,0.0,0.0,98,0.00,,,0.00,0.00,VWS V14.00,2013-02-22 00:49:00,
2013-02-21 18:50:00,63.5,62.9,29.80,ESE,111,0.0,0.0,98,0.00,,,0.00,0.00,VWS V14.00,2013-02-22 00:50:00,
2013-02-21 18:51:00,63.5,62.9,29.80,SSE,153,0.0,0.0,98,0.00,,,0.00,0.00,VWS V14.00,2013-02-22 00:51:00,
2013-02-21 18:52:00,63.5,62.9,29.80,SE,146,0.0,0.0,98,0.00,,,0.00,0.00,VWS V14.00,2013-02-22 00:52:00,
2013-02-21 18:53:00,63.5,62.9,29.80,SE,142,0.0,0.0,98,0.00,,,0.00,0.00,VWS V14.00,2013-02-22 00:53:00,
2013-02-21 18:54:00,63.5,62.9,29.80,SE,145,0.0,0.0,98,0.00,,,0.00,0.00,VWS V14.00,2013-02-22 00:54:00,
2013-02-21 18:55:00,63.5,62.9,29.80,SE,131,0.0,0.0,98,0.00,,,0.00,0.00,VWS V14.00,2013-02-22 00:55:00,
2013-02-21 18:56:00,63.7,63.1,29.80,ESE,115,0.0,0.0,98,0.00,,,0.00,0.00,VWS V14.00,2013-02-22 00:56:00,
2013-02-21 18:57:00,63.7,63.1,29.80,SE,141,0.0,0.0,98,0.00,,,0.00,0.00,VWS V14.00,2013-02-22 00:57:00,
2013-02-21 18:58:00,63.7,63.1,29.80,SE,140,0.0,0.0,98,0.00,,,0.00,0.00,VWS V14.00,2013-02-22 00:58:00,
2013-02-21 18:59:00,63.7,63.1,29.80,SSE,156,0.0,0.0,98,0.00,,,0.00,0.00,VWS V14.00,2013-02-22 00:59:00,
2013-02-21 19:00:00,63.7,63.1,29.80,SE,130,0.0,0.0,98,0.00,,,0.00,0.00,VWS V14.00,2013-02-22 01:00:00,
2013-02-21 19:01:00,63.7,63.1,29.80,ESE,111,0.0,0.0,98,0.00,,,0.00,0.00,VWS V14.00,2013-02-22 01:01:00,
2013-02-21 19:02:00,63.7,63.1,29.80,South,171,0.0,0.0,98,0.00,,,0.00,0.00,VWS V14.00,2013-02-22 01:02:00,
2013-02-21 19:03:00,63.7,63.1,29.80,South,172,0.0,0.0,98,0.00,,,0.00,0.00,VWS V14.00,2013-02-22 01:03:00,
2013-02-21 19:04:00,63.7,63.1,29.80,South,173,0.0,0.0,98,0.00,,,0.00,0.00,VWS V14.00,2013-02-22 01:04:00,
2013-02-21 19:05:00,63.7,63.1,29.80,SE,142,0.0,0.0,98,0.00,,,0.00,0.00,VWS V14.00,2013-02-22 01:05:00,
2013-02-21 19:06:00,63.7,63.1,29.80,SE,140,0.0,0.0,98,0.00,,,0.00,0.00,VWS V14.00,2013-02-22 01:06:00,
2013-02-21 19:07:00,63.7,63.1,29.80,SE,140,0.0,0.0,98,0.00,,,0.00,0.00,VWS V14.00,2013-02-22 01:07:00,
2013-02-21 19:08:00,63.7,63.1,29.80,SE,140,0.0,0.0,98,0.00,,,0.00,0.00,VWS V14.00,2013-02-22 01:08:00,
2013-02-21 19:09:00,63.7,63.1,29.80,SE,142,0.0,0.0,98,0.00,,,0.00,0.00,VWS V14.00,2013-02-22 01:09:00,
2013-02-21 19:10:00,63.7,63.1,29.80,South,173,0.0,0.0,98,0.00,,,0.00,0.00,VWS V14.00,2013-02-22 01:10:00,
2013-02-21 19:11:00,63.7,63.1,29.80,South,182,0.0,0.0,98,0.00,,,0.00,0.00,VWS V14.00,2013-02-22 01:11:00,
2013-02-21 19:12:00,63.7,63.1,29.80,SSE,152,0.0,0.0,98,0.00,,,0.00,0.00,VWS V14.00,2013-02-22 01:12:00,
2013-02-21 19:13:00,63.7,63.1,29.80,SE,132,0.0,0.0,98,0.00,,,0.00,0.00,VWS V14.00,2013-02-22 01:13:00,
2013-02-21 19:14:00,63.7,63.1,29.80,SSE,154,0.0,0.0,98,0.00,,,0.00,0.00,VWS V14.00,2013-02-22 01:14:00,
2013-02-21 19:15:00,63.7,63.1,29.80,SSE,157,0.0,0.0,98,0.00,,,0.00,0.00,VWS V14.00,2013-02-22 01:15:00,
2013-02-21 19:16:00,63.7,63.1,29.80,SSE,150,0.0,0.0,98,0.00,,,0.00,0.00,VWS V14.00,2013-02-22 01:16:00,
2013-02-21 19:17:00,63.7,63.1,29.80,ESE,121,0.0,0.0,98,0.00,,,0.00,0.00,VWS V14.00,2013-02-22 01:17:00,
2013-02-21 19:18:00,63.7,63.1,29.80,SE,136,0.0,0.0,98,0.00,,,0.00,0.00,VWS V14.00,2013-02-22 01:18:00,
2013-02-21 19:19:00,63.7,63.1,29.80,SE,136,0.0,0.0,98,0.00,,,0.00,0.00,VWS V14.00,2013-02-22 01:19:00,
2013-02-21 19:20:00,63.7,63.1,29.80,SSE,163,0.0,0.0,98,0.00,,,0.00,0.00,VWS V14.00,2013-02-22 01:20:00,
2013-02-21 19:21:00,63.7,63.1,29.80,SSE,163,0.0,0.0,98,0.00,,,0.00,0.00,VWS V14.00,2013-02-22 01:21:00,
2013-02-21 19:22:00,63.7,63.1,29.80,SSE,157,0.0,0.0,98,0.00,,,0.00,0.00,VWS V14.00,2013-02-22 01:22:00,
2013-02-21 19:23:00,63.7,63.1,29.80,South,184,0.0,0.0,98,0.00,,,0.00,0.00,VWS V14.00,2013-02-22 01:23:00,
2013-02-21 19:24:00,63.7,63.1,29.80,SSE,150,0.0,0.0,98,0.00,,,0.00,0.00,VWS V14.00,2013-02-22 01:24:00,
2013-02-21 19:25:00,63.7,63.1,29.80,SSE,150,0.0,0.0,98,0.00,,,0.00,0.00,VWS V14.00,2013-02-22 01:25:00,
2013-02-21 19:26:00,63.7,63.1,29.80,SSE,150,0.0,0.0,98,0.00,,,0.00,0.00,VWS V14.00,2013-02-22 01:26:00,
2013-02-21 19:27:00,63.7,63.1,29.80,SSE,150,0.0,0.0,98,0.00,,,0.00,0.00,VWS V14.00,2013-02-22 01:27:00,
2013-02-21 19:28:00,63.7,63.1,29.80,SSE,149,0.0,0.0,98,0.00,,,0.00,0.00,VWS V14.00,2013-02-22 01:28:00,
2013-02-21 19:29:00,63.7,63.1,29.81,SSE,149,0.0,0.0,98,0.00,,,0.00,0.00,VWS V14.00,2013-02-22 01:29:00,
2013-02-21 19:30:00,63.7,63.1,29.81,SSE,149,0.0,0.0,98,0.00,,,0.00,0.00,VWS V14.00,2013-02-22 01:30:00,
2013-02-21 19:31:00,63.7,63.1,29.81,SE,146,0.0,0.0,98,0.00,,,0.00,0.00,VWS V14.00,2013-02-22 01:31:00,
2013-02-21 19:32:00,63.7,63.4,29.81,SE,136,0.0,0.0,99,0.00,,,0.00,0.00,VWS V14.00,2013-02-22 01:32:00,
2013-02-21 19:33:00,63.7,63.4,29.81,SE,134,0.0,0.0,99,0.00,,,0.00,0.00,VWS V14.00,2013-02-22 01:33:00,
2013-02-21 19:34:00,63.7,63.4,29.81,SE,130,0.0,0.0,99,0.00,,,0.00,0.00,VWS V14.00,2013-02-22 01:34:00,
2013-02-21 19:35:00,63.7,63.4,29.81,SE,128,0.0,0.0,99,0.00,,,0.00,0.00,VWS V14.00,2013-02-22 01:35:00,
2013-02-21 19:36:00,63.7,63.4,29.81,South,173,0.0,0.0,99,0.00,,,0.00,0.00,VWS V14.00,2013-02-22 01:36:00,
2013-02-21 19:37:00,63.7,63.4,29.81,South,170,0.0,0.0,99,0.00,,,0.00,0.00,VWS V14.00,2013-02-22 01:37:00,
2013-02-21 19:38:00,63.7,63.4,29.81,SE,145,0.0,0.0,99,0.00,,,0.00,0.00,VWS V14.00,2013-02-22 01:38:00,
2013-02-21 19:39:00,63.7,63.4,29.81,ESE,109,0.0,0.0,99,0.00,,,0.00,0.00,VWS V14.00,2013-02-22 01:39:00,
2013-02-21 19:40:00,63.7,63.4,29.81,SE,134,0.0,0.0,99,0.00,,,0.00,0.00,VWS V14.00,2013-02-22 01:40:00,
2013-02-21 19:41:00,63.7,63.4,29.81,SSE,150,0.0,0.0,99,0.00,,,0.00,0.00,VWS V14.00,2013-02-22 01:41:00,
2013-02-21 19:42:00,63.7,63.4,29.81,SSE,149,0.0,0.0,99,0.00,,,0.00,0.00,VWS V14.00,2013-02-22 01:42:00,
2013-02-21 19:43:00,63.7,63.4,29.81,SSE,149,0.0,0.0,99,0.00,,,0.00,0.00,VWS V14.00,2013-02-22 01:43:00,
2013-02-21 19:44:00,63.7,63.4,29.80,SSE,149,0.0,0.0,99,0.00,,,0.00,0.00,VWS V14.00,2013-02-22 01:44:00,
2013-02-21 19:45:00,63.5,63.2,29.80,SSE,148,0.0,0.0,99,0.00,,,0.00,0.00,VWS V14.00,2013-02-22 01:45:00,
2013-02-21 19:46:00,63.5,63.2,29.80,SSE,148,0.0,0.0,99,0.00,,,0.00,0.00,VWS V14.00,2013-02-22 01:46:00,
2013-02-21 19:47:00,63.5,63.2,29.80,SSE,148,0.0,0.0,99,0.00,,,0.00,0.00,VWS V14.00,2013-02-22 01:47:00,
2013-02-21 19:48:00,63.5,63.2,29.80,SSE,147,0.0,0.0,99,0.00,,,0.00,0.00,VWS V14.00,2013-02-22 01:48:00,
2013-02-21 19:49:00,63.5,63.2,29.80,SE,146,0.0,0.0,99,0.00,,,0.00,0.00,VWS V14.00,2013-02-22 01:49:00,
2013-02-21 19:50:00,63.5,63.2,29.80,SE,144,0.0,0.0,99,0.00,,,0.00,0.00,VWS V14.00,2013-02-22 01:50:00,
2013-02-21 19:51:00,63.5,63.2,29.80,SE,144,0.0,0.0,99,0.00,,,0.00,0.00,VWS V14.00,2013-02-22 01:51:00,
2013-02-21 19:52:00,63.5,63.2,29.80,SE,144,0.0,0.0,99,0.00,,,0.00,0.00,VWS V14.00,2013-02-22 01:52:00,
2013-02-21 19:53:00,63.5,63.2,29.80,SSE,153,0.0,0.0,99,0.00,,,0.00,0.00,VWS V14.00,2013-02-22 01:53:00,
2013-02-21 19:54:00,63.5,63.2,29.80,SSE,155,0.0,0.0,99,0.00,,,0.00,0.00,VWS V14.00,2013-02-22 01:54:00,
2013-02-21 19:55:00,63.5,63.2,29.80,SSE,155,0.0,0.0,99,0.00,,,0.00,0.00,VWS V14.00,2013-02-22 01:55:00,
2013-02-21 19:56:00,63.5,63.2,29.80,SSE,153,0.0,0.0,99,0.00,,,0.00,0.00,VWS V14.00,2013-02-22 01:56:00,
2013-02-21 19:57:00,63.5,63.2,29.80,ESE,110,0.0,0.0,99,0.00,,,0.00,0.00,VWS V14.00,2013-02-22 01:57:00,
2013-02-21 19:58:00,63.5,63.2,29.80,ESE,111,0.0,0.0,99,0.00,,,0.00,0.00,VWS V14.00,2013-02-22 01:58:00,
2013-02-21 19:59:00,63.5,63.2,29.80,ESE,111,0.0,0.0,99,0.00,,,0.00,0.00,VWS V14.00,2013-02-22 01:59:00,
2013-02-21 20:00:00,63.5,63.2,29.81,SSE,167,0.0,0.0,99,0.00,,,0.00,0.00,VWS V14.00,2013-02-22 02:00:00,
2013-02-21 20:01:00,63.5,63.2,29.81,SSE,167,0.0,0.0,99,0.00,,,0.00,0.00,VWS V14.00,2013-02-22 02:01:00,
2013-02-21 20:02:00,63.4,63.1,29.81,SSE,167,0.0,0.0,99,0.00,,,0.00,0.00,VWS V14.00,2013-02-22 02:02:00,
2013-02-21 20:03:00,63.4,63.1,29.81,SSE,167,0.0,0.0,99,0.00,,,0.00,0.00,VWS V14.00,2013-02-22 02:03:00,
2013-02-21 20:04:00,63.4,63.1,29.81,SSE,153,0.0,0.0,99,0.00,,,0.00,0.00,VWS V14.00,2013-02-22 02:04:00,
2013-02-21 20:05:00,63.4,63.1,29.81,SSE,153,0.0,0.0,99,0.00,,,0.00,0.00,VWS V14.00,2013-02-22 02:05:00,
2013-02-21 20:06:00,63.4,63.1,29.81,ESE,123,0.0,0.0,99,0.00,,,0.00,0.00,VWS V14.00,2013-02-22 02:06:00,
2013-02-21 20:07:00,63.4,63.1,29.81,ESE,123,0.0,0.0,99,0.00,,,0.00,0.00,VWS V14.00,2013-02-22 02:07:00,
2013-02-21 20:08:00,63.4,63.1,29.81,ESE,121,0.0,0.0,99,0.00,,,0.00,0.00,VWS V14.00,2013-02-22 02:08:00,
2013-02-21 20:09:00,63.4,63.1,29.81,ESE,121,0.0,0.0,99,0.00,,,0.00,0.00,VWS V14.00,2013-02-22 02:09:00,
2013-02-21 20:10:00,63.4,63.1,29.81,SSE,157,0.0,0.0,99,0.00,,,0.00,0.00,VWS V14.00,2013-02-22 02:10:00,
2013-02-21 20:11:00,63.4,63.1,29.81,SSE,157,0.0,0.0,99,0.00,,,0.00,0.00,VWS V14.00,2013-02-22 02:11:00,
2013-02-21 20:12:00,63.4,63.1,29.81,SSE,156,0.0,0.0,99,0.00,,,0.00,0.00,VWS V14.00,2013-02-22 02:12:00,
2013-02-21 20:13:00,63.4,63.1,29.81,SSE,155,0.0,0.0,99,0.00,,,0.00,0.00,VWS V14.00,2013-02-22 02:13:00,
2013-02-21 20:14:00,63.4,63.1,29.81,SSE,155,0.0,0.0,99,0.00,,,0.00,0.00,VWS V14.00,2013-02-22 02:14:00,
2013-02-21 20:15:00,63.4,63.1,29.81,SSE,155,0.0,0.0,99,0.00,,,0.00,0.00,VWS V14.00,2013-02-22 02:15:00,
2013-02-21 20:16:00,63.4,63.1,29.81,SSE,155,0.0,0.0,99,0.00,,,0.00,0.00,VWS V14.00,2013-02-22 02:16:00,
2013-02-21 20:17:00,63.2,62.9,29.81,ENE,77,0.0,0.0,99,0.00,,,0.00,0.00,VWS V14.00,2013-02-22 02:17:00,
2013-02-21 20:18:00,63.2,62.9,29.81,SE,136,0.0,0.0,99,0.00,,,0.00,0.00,VWS V14.00,2013-02-22 02:18:00,
2013-02-21 20:19:00,63.2,62.9,29.81,SE,132,0.0,0.0,99,0.00,,,0.00,0.00,VWS V14.00,2013-02-22 02:19:00,
2013-02-21 20:20:00,63.2,62.9,29.81,SE,132,0.0,0.0,99,0.00,,,0.00,0.00,VWS V14.00,2013-02-22 02:20:00,
2013-02-21 20:21:00,63.2,62.9,29.81,SE,132,0.0,0.0,99,0.00,,,0.00,0.00,VWS V14.00,2013-02-22 02:21:00,
2013-02-21 20:22:00,63.2,62.9,29.81,SE,131,0.0,0.0,99,0.00,,,0.00,0.00,VWS V14.00,2013-02-22 02:22:00,
2013-02-21 20:23:00,63.2,62.9,29.81,SE,139,0.0,0.0,99,0.00,,,0.00,0.00,VWS V14.00,2013-02-22 02:23:00,
2013-02-21 20:24:00,63.2,62.9,29.81,SE,139,0.0,0.0,99,0.00,,,0.00,0.00,VWS V14.00,2013-02-22 02:24:00,
2013-02-21 20:25:00,63.2,62.9,29.81,SE,139,0.0,0.0,99,0.00,,,0.00,0.00,VWS V14.00,2013-02-22 02:25:00,
2013-02-21 20:26:00,63.2,62.9,29.81,SE,137,0.0,0.0,99,0.00,,,0.00,0.00,VWS V14.00,2013-02-22 02:26:00,
2013-02-21 20:27:00,63.2,62.9,29.81,SE,138,0.0,0.0,99,0.00,,,0.00,0.00,VWS V14.00,2013-02-22 02:27:00,
2013-02-21 20:28:00,63.2,62.9,29.81,SE,138,0.0,0.0,99,0.00,,,0.00,0.00,VWS V14.00,2013-02-22 02:28:00,
2013-02-21 20:29:00,63.2,62.9,29.81,SE,133,0.0,0.0,99,0.00,,,0.00,0.00,VWS V14.00,2013-02-22 02:29:00,
2013-02-21 20:30:00,63.2,62.9,29.81,SE,133,0.0,0.0,99,0.00,,,0.00,0.00,VWS V14.00,2013-02-22 02:30:00,
2013-02-21 20:31:00,63.2,62.9,29.81,SE,138,0.0,0.0,99,0.00,,,0.00,0.00,VWS V14.00,2013-02-22 02:31:00,
2013-02-21 20:32:00,63.2,62.9,29.81,SE,136,0.0,0.0,99,0.00,,,0.00,0.00,VWS V14.00,2013-02-22 02:32:00,
2013-02-21 20:33:00,63.2,62.9,29.81,SE,136,0.0,0.0,99,0.00,,,0.00,0.00,VWS V14.00,2013-02-22 02:33:00,
2013-02-21 20:34:00,63.2,62.9,29.81,SE,136,0.0,0.0,99,0.00,,,0.00,0.00,VWS V14.00,2013-02-22 02:34:00,
2013-02-21 20:35:00,63.2,62.9,29.81,SE,136,0.0,0.0,99,0.00,,,0.00,0.00,VWS V14.00,2013-02-22 02:35:00,
2013-02-21 20:36:00,63.2,62.9,29.81,SE,136,0.0,0.0,99,0.00,,,0.00,0.00,VWS V14.00,2013-02-22 02:36:00,
2013-02-21 20:37:00,63.2,62.9,29.81,SE,136,0.0,0.0,99,0.00,,,0.00,0.00,VWS V14.00,2013-02-22 02:37:00,
2013-02-21 20:38:00,63.2,62.9,29.81,SE,136,0.0,0.0,99,0.00,,,0.00,0.00,VWS V14.00,2013-02-22 02:38:00,
2013-02-21 20:39:00,63.2,62.9,29.81,SE,136,0.0,0.0,99,0.00,,,0.00,0.00,VWS V14.00,2013-02-22 02:39:00,
2013-02-21 20:40:00,63.2,62.9,29.81,SE,136,0.0,0.0,99,0.00,,,0.00,0.00,VWS V14.00,2013-02-22 02:40:00,
2013-02-21 20:41:00,63.2,62.9,29.81,SE,136,0.0,0.0,99,0.00,,,0.00,0.00,VWS V14.00,2013-02-22 02:41:00,
2013-02-21 20:42:00,63.2,62.9,29.81,SE,136,0.0,0.0,99,0.00,,,0.00,0.00,VWS V14.00,2013-02-22 02:42:00,
2013-02-21 20:43:00,63.1,62.8,29.81,SE,136,0.0,0.0,99,0.00,,,0.00,0.00,VWS V14.00,2013-02-22 02:43:00,
2013-02-21 20:44:00,63.1,62.8,29.82,SE,136,0.0,0.0,99,0.00,,,0.00,0.00,VWS V14.00,2013-02-22 02:44:00,
2013-02-21 20:45:00,63.1,62.8,29.82,SE,136,0.0,0.0,99,0.00,,,0.00,0.00,VWS V14.00,2013-02-22 02:45:00,
2013-02-21 20:46:00,63.1,62.8,29.82,SE,136,0.0,0.0,99,0.00,,,0.00,0.00,VWS V14.00,2013-02-22 02:46:00,
2013-02-21 20:47:00,63.1,62.8,29.82,SE,136,0.0,0.0,99,0.00,,,0.00,0.00,VWS V14.00,2013-02-22 02:47:00,
2013-02-21 20:48:00,63.1,62.8,29.82,SE,136,0.0,0.0,99,0.00,,,0.00,0.00,VWS V14.00,2013-02-22 02:48:00,
2013-02-21 20:49:00,63.1,62.8,29.82,SE,136,0.0,0.0,99,0.00,,,0.00,0.00,VWS V14.00,2013-02-22 02:49:00,
2013-02-21 20:50:00,63.1,62.8,29.82,SE,136,0.0,0.0,99,0.00,,,0.00,0.00,VWS V14.00,2013-02-22 02:50:00,
2013-02-21 20:51:00,63.1,62.8,29.82,SSE,162,0.0,0.0,99,0.00,,,0.00,0.00,VWS V14.00,2013-02-22 02:51:00,
2013-02-21 20:52:00,63.1,62.8,29.82,SSE,162,0.0,0.0,99,0.00,,,0.00,0.00,VWS V14.00,2013-02-22 02:52:00,
2013-02-21 20:53:00,63.1,62.8,29.82,SSE,162,0.0,0.0,99,0.00,,,0.00,0.00,VWS V14.00,2013-02-22 02:53:00,
2013-02-21 20:54:00,63.1,62.8,29.82,SSE,162,0.0,0.0,99,0.00,,,0.00,0.00,VWS V14.00,2013-02-22 02:54:00,
2013-02-21 20:55:00,63.1,62.8,29.82,SSE,162,0.0,0.0,99,0.00,,,0.00,0.00,VWS V14.00,2013-02-22 02:55:00,
2013-02-21 20:56:00,63.1,62.8,29.82,SSE,162,0.0,0.0,99,0.00,,,0.00,0.00,VWS V14.00,2013-02-22 02:56:00,
2013-02-21 20:57:00,63.1,62.8,29.82,SSE,162,0.0,0.0,99,0.00,,,0.00,0.00,VWS V14.00,2013-02-22 02:57:00,
2013-02-21 20:58:00,63.1,62.8,29.82,SSE,162,0.0,0.0,99,0.00,,,0.00,0.00,VWS V14.00,2013-02-22 02:58:00,
2013-02-21 20:59:00,63.1,62.8,29.82,SSE,162,0.0,0.0,99,0.00,,,0.00,0.00,VWS V14.00,2013-02-22 02:59:00,
2013-02-21 21:00:00,63.1,62.8,29.82,SSE,162,0.0,0.0,99,0.00,,,0.00,0.00,VWS V14.00,2013-02-22 03:00:00,
2013-02-21 21:01:00,63.1,62.8,29.82,SSE,162,0.0,0.0,99,0.00,,,0.00,0.00,VWS V14.00,2013-02-22 03:01:00,
2013-02-21 21:02:00,63.1,62.8,29.82,SSE,159,0.0,0.0,99,0.00,,,0.00,0.00,VWS V14.00,2013-02-22 03:02:00,
2013-02-21 21:03:00,63.1,62.8,29.82,SSE,159,0.0,0.0,99,0.00,,,0.00,0.00,VWS V14.00,2013-02-22 03:03:00,
2013-02-21 21:04:00,63.1,62.8,29.82,SSE,159,0.0,0.0,99,0.00,,,0.00,0.00,VWS V14.00,2013-02-22 03:04:00,
2013-02-21 21:05:00,63.1,62.8,29.82,SSE,159,0.0,0.0,99,0.00,,,0.00,0.00,VWS V14.00,2013-02-22 03:05:00,
2013-02-21 21:06:00,63.1,62.8,29.82,SSE,159,0.0,0.0,99,0.00,,,0.00,0.00,VWS V14.00,2013-02-22 03:06:00,
2013-02-21 21:07:00,63.1,62.8,29.82,SSE,159,0.0,0.0,99,0.00,,,0.00,0.00,VWS V14.00,2013-02-22 03:07:00,
2013-02-21 21:08:00,63.1,62.8,29.82,SSE,159,0.0,0.0,99,0.00,,,0.00,0.00,VWS V14.00,2013-02-22 03:08:00,
2013-02-21 21:09:00,63.1,62.8,29.82,SSE,159,0.0,0.0,99,0.00,,,0.00,0.00,VWS V14.00,2013-02-22 03:09:00,
2013-02-21 21:10:00,63.1,62.8,29.82,SSE,159,0.0,0.0,99,0.00,,,0.00,0.00,VWS V14.00,2013-02-22 03:10:00,
2013-02-21 21:11:00,63.1,62.8,29.82,SSE,159,0.0,0.0,99,0.00,,,0.00,0.00,VWS V14.00,2013-02-22 03:11:00,
2013-02-21 21:12:00,63.1,62.8,29.82,SSE,159,0.0,0.0,99,0.00,,,0.00,0.00,VWS V14.00,2013-02-22 03:12:00,
2013-02-21 21:13:00,63.1,62.8,29.82,SSE,159,0.0,0.0,99,0.00,,,0.00,0.00,VWS V14.00,2013-02-22 03:13:00,
2013-02-21 21:14:00,63.1,62.8,29.82,SSE,159,0.0,0.0,99,0.00,,,0.00,0.00,VWS V14.00,2013-02-22 03:14:00,
2013-02-21 21:15:00,62.9,62.6,29.82,SSE,159,0.0,0.0,99,0.00,,,0.00,0.00,VWS V14.00,2013-02-22 03:15:00,
2013-02-21 21:16:00,62.9,62.6,29.82,SSE,159,0.0,0.0,99,0.00,,,0.00,0.00,VWS V14.00,2013-02-22 03:16:00,
2013-02-21 21:17:00,62.9,62.6,29.82,SSE,159,0.0,0.0,99,0.00,,,0.00,0.00,VWS V14.00,2013-02-22 03:17:00,
2013-02-21 21:18:00,62.9,62.6,29.82,SSE,159,0.0,0.0,99,0.00,,,0.00,0.00,VWS V14.00,2013-02-22 03:18:00,
2013-02-21 21:19:00,62.9,62.6,29.82,SSE,159,0.0,0.0,99,0.00,,,0.00,0.00,VWS V14.00,2013-02-22 03:19:00,
2013-02-21 21:20:00,62.9,62.6,29.82,SSE,159,0.0,0.0,99,0.00,,,0.00,0.00,VWS V14.00,2013-02-22 03:20:00,
2013-02-21 21:21:00,62.9,62.6,29.82,SSE,159,0.0,0.0,99,0.00,,,0.00,0.00,VWS V14.00,2013-02-22 03:21:00,
2013-02-21 21:22:00,62.9,62.6,29.82,SSE,159,0.0,0.0,99,0.00,,,0.00,0.00,VWS V14.00,2013-02-22 03:22:00,
2013-02-21 21:23:00,62.9,62.6,29.82,SSE,159,0.0,0.0,99,0.00,,,0.00,0.00,VWS V14.00,2013-02-22 03:23:00,
2013-02-21 21:24:00,62.9,62.6,29.82,SSE,159,0.0,0.0,99,0.00,,,0.00,0.00,VWS V14.00,2013-02-22 03:24:00,
2013-02-21 21:25:00,62.9,62.6,29.82,SSE,159,0.0,0.0,99,0.00,,,0.00,0.00,VWS V14.00,2013-02-22 03:25:00,
2013-02-21 21:26:00,62.9,62.6,29.82,SSE,159,0.0,0.0,99,0.00,,,0.00,0.00,VWS V14.00,2013-02-22 03:26:00,
2013-02-21 21:27:00,63.1,62.8,29.82,SSE,156,0.0,0.0,99,0.00,,,0.00,0.00,VWS V14.00,2013-02-22 03:27:00,
2013-02-21 21:28:00,63.1,62.8,29.82,SSE,156,0.0,0.0,99,0.00,,,0.00,0.00,VWS V14.00,2013-02-22 03:28:00,
2013-02-21 21:29:00,63.1,62.8,29.82,SSE,157,0.0,0.0,99,0.00,,,0.00,0.00,VWS V14.00,2013-02-22 03:29:00,
2013-02-21 21:30:00,63.1,62.8,29.82,SSE,157,0.0,0.0,99,0.00,,,0.00,0.00,VWS V14.00,2013-02-22 03:30:00,
2013-02-21 21:31:00,63.1,63.1,29.82,SSE,157,0.0,0.0,100,0.00,,,0.00,0.00,VWS V14.00,2013-02-22 03:31:00,
2013-02-21 21:32:00,63.1,63.1,29.82,SSE,159,0.0,0.0,100,0.00,,,0.00,0.00,VWS V14.00,2013-02-22 03:32:00,
2013-02-21 21:33:00,63.2,63.2,29.82,SSE,158,0.0,0.0,100,0.00,,,0.00,0.00,VWS V14.00,2013-02-22 03:33:00,
2013-02-21 21:34:00,63.2,63.2,29.82,SSE,158,0.0,0.0,100,0.00,,,0.00,0.00,VWS V14.00,2013-02-22 03:34:00,
2013-02-21 21:35:00,63.2,63.2,29.82,SSE,158,0.0,0.0,100,0.00,,,0.00,0.00,VWS V14.00,2013-02-22 03:35:00,
2013-02-21 21:36:00,63.2,63.2,29.82,SSE,158,0.0,0.0,100,0.00,,,0.00,0.00,VWS V14.00,2013-02-22 03:36:00,
2013-02-21 21:37:00,63.2,63.2,29.82,SSE,158,0.0,0.0,100,0.00,,,0.00,0.00,VWS V14.00,2013-02-22 03:37:00,
2013-02-21 21:38:00,63.2,63.2,29.82,SSE,157,0.0,0.0,100,0.00,,,0.00,0.00,VWS V14.00,2013-02-22 03:38:00,
2013-02-21 21:39:00,63.2,63.2,29.82,SSE,157,0.0,0.0,100,0.00,,,0.00,0.00,VWS V14.00,2013-02-22 03:39:00,
2013-02-21 21:40:00,63.2,63.2,29.82,SSE,157,0.0,0.0,100,0.00,,,0.00,0.00,VWS V14.00,2013-02-22 03:40:00,
2013-02-21 21:41:00,63.4,63.4,29.82,SSE,157,0.0,0.0,100,0.00,,,0.00,0.00,VWS V14.00,2013-02-22 03:41:00,
2013-02-21 21:42:00,63.4,63.4,29.82,SSE,157,0.0,0.0,100,0.00,,,0.00,0.00,VWS V14.00,2013-02-22 03:42:00,
2013-02-21 21:43:00,63.4,63.4,29.82,SSW,200,0.0,0.0,100,0.00,,,0.00,0.00,VWS V14.00,2013-02-22 03:43:00,
2013-02-21 21:44:00,63.4,63.4,29.82,SSW,200,0.0,0.0,100,0.00,,,0.00,0.00,VWS V14.00,2013-02-22 03:44:00,
2013-02-21 21:45:00,63.4,63.4,29.82,SSW,200,0.0,0.0,100,0.00,,,0.00,0.00,VWS V14.00,2013-02-22 03:45:00,
2013-02-21 21:46:00,63.4,63.4,29.82,SSW,200,0.0,0.0,100,0.00,,,0.00,0.00,VWS V14.00,2013-02-22 03:46:00,
2013-02-21 21:47:00,63.4,63.4,29.82,SSW,200,0.0,0.0,100,0.00,,,0.00,0.00,VWS V14.00,2013-02-22 03:47:00,
2013-02-21 21:48:00,63.4,63.4,29.82,SSW,200,0.0,0.0,100,0.00,,,0.00,0.00,VWS V14.00,2013-02-22 03:48:00,
2013-02-21 21:49:00,63.4,63.4,29.82,SSW,200,0.0,0.0,100,0.00,,,0.00,0.00,VWS V14.00,2013-02-22 03:49:00,
2013-02-21 21:50:00,63.4,63.4,29.82,SSW,199,0.0,0.0,100,0.00,,,0.00,0.00,VWS V14.00,2013-02-22 03:50:00,
2013-02-21 21:51:00,63.4,63.4,29.82,SSW,199,0.0,0.0,100,0.00,,,0.00,0.00,VWS V14.00,2013-02-22 03:51:00,
2013-02-21 21:52:00,63.4,63.4,29.82,SSW,199,0.0,0.0,100,0.00,,,0.00,0.00,VWS V14.00,2013-02-22 03:52:00,
2013-02-21 21:53:00,63.4,63.4,29.82,SSW,212,0.0,0.0,100,0.00,,,0.00,0.00,VWS V14.00,2013-02-22 03:53:00,
2013-02-21 21:54:00,63.4,63.4,29.82,SSW,212,0.0,0.0,100,0.00,,,0.00,0.00,VWS V14.00,2013-02-22 03:54:00,
2013-02-21 21:55:00,63.4,63.4,29.82,SSW,212,0.0,0.0,100,0.00,,,0.00,0.00,VWS V14.00,2013-02-22 03:55:00,
2013-02-21 21:56:00,63.4,63.4,29.82,SSW,212,0.0,0.0,100,0.00,,,0.00,0.00,VWS V14.00,2013-02-22 03:56:00,
2013-02-21 21:57:00,63.4,63.4,29.82,SSW,212,0.0,0.0,100,0.00,,,0.00,0.00,VWS V14.00,2013-02-22 03:57:00,
2013-02-21 21:58:00,63.4,63.4,29.82,SSW,212,0.0,0.0,100,0.00,,,0.00,0.00,VWS V14.00,2013-02-22 03:58:00,
2013-02-21 21:59:00,63.4,63.4,29.82,SSW,212,0.0,0.0,100,0.00,,,0.00,0.00,VWS V14.00,2013-02-22 03:59:00,
2013-02-21 22:00:00,63.4,63.4,29.82,SSW,212,0.0,0.0,100,0.00,,,0.00,0.00,VWS V14.00,2013-02-22 04:00:00,
2013-02-21 22:01:00,63.4,63.4,29.82,South,174,0.0,0.0,100,0.00,,,0.00,0.00,VWS V14.00,2013-02-22 04:01:00,
2013-02-21 22:02:00,63.4,63.4,29.82,South,174,0.0,0.0,100,0.00,,,0.00,0.00,VWS V14.00,2013-02-22 04:02:00,
2013-02-21 22:03:00,63.4,63.4,29.82,South,174,0.0,0.0,100,0.00,,,0.00,0.00,VWS V14.00,2013-02-22 04:03:00,
2013-02-21 22:04:00,63.4,63.4,29.82,South,173,0.0,0.0,100,0.00,,,0.00,0.00,VWS V14.00,2013-02-22 04:04:00,
2013-02-21 22:05:00,63.4,63.4,29.82,South,173,0.0,0.0,100,0.00,,,0.00,0.00,VWS V14.00,2013-02-22 04:05:00,
2013-02-21 22:06:00,63.4,63.4,29.82,South,173,0.0,0.0,100,0.00,,,0.00,0.00,VWS V14.00,2013-02-22 04:06:00,
2013-02-21 22:07:00,63.2,63.2,29.82,South,174,0.0,0.0,100,0.00,,,0.00,0.00,VWS V14.00,2013-02-22 04:07:00,
2013-02-21 22:08:00,63.2,63.2,29.82,South,174,0.0,0.0,100,0.00,,,0.00,0.00,VWS V14.00,2013-02-22 04:08:00,
2013-02-21 22:09:00,63.2,63.2,29.82,South,175,0.0,0.0,100,0.00,,,0.00,0.00,VWS V14.00,2013-02-22 04:09:00,
2013-02-21 22:10:00,63.2,63.2,29.82,South,174,0.0,0.0,100,0.00,,,0.00,0.00,VWS V14.00,2013-02-22 04:10:00,
2013-02-21 22:11:00,63.2,63.2,29.82,South,174,0.0,0.0,100,0.00,,,0.00,0.00,VWS V14.00,2013-02-22 04:11:00,
2013-02-21 22:12:00,63.2,63.2,29.82,South,175,0.0,0.0,100,0.00,,,0.00,0.00,VWS V14.00,2013-02-22 04:12:00,
2013-02-21 22:13:00,63.2,63.2,29.82,South,174,0.0,0.0,100,0.00,,,0.00,0.00,VWS V14.00,2013-02-22 04:13:00,
2013-02-21 22:14:00,63.2,63.2,29.82,South,174,0.0,0.0,100,0.00,,,0.00,0.00,VWS V14.00,2013-02-22 04:14:00,
2013-02-21 22:15:00,63.2,63.2,29.82,South,174,0.0,0.0,100,0.00,,,0.00,0.00,VWS V14.00,2013-02-22 04:15:00,
2013-02-21 22:16:00,63.1,63.1,29.82,South,175,0.0,0.0,100,0.00,,,0.00,0.00,VWS V14.00,2013-02-22 04:16:00,
2013-02-21 22:17:00,63.1,63.1,29.82,South,174,0.0,0.0,100,0.00,,,0.00,0.00,VWS V14.00,2013-02-22 04:17:00,
2013-02-21 22:18:00,63.1,63.1,29.82,South,175,0.0,0.0,100,0.00,,,0.00,0.00,VWS V14.00,2013-02-22 04:18:00,
2013-02-21 22:19:00,63.1,63.1,29.82,South,174,0.0,0.0,100,0.00,,,0.00,0.00,VWS V14.00,2013-02-22 04:19:00,
2013-02-21 22:20:00,63.1,63.1,29.82,South,175,0.0,0.0,100,0.00,,,0.00,0.00,VWS V14.00,2013-02-22 04:20:00,
2013-02-21 22:21:00,63.1,63.1,29.82,South,174,0.0,0.0,100,0.00,,,0.00,0.00,VWS V14.00,2013-02-22 04:21:00,
2013-02-21 22:22:00,63.1,63.1,29.82,South,174,0.0,0.0,100,0.00,,,0.00,0.00,VWS V14.00,2013-02-22 04:22:00,
2013-02-21 22:23:00,63.1,63.1,29.82,South,174,0.0,0.0,100,0.00,,,0.00,0.00,VWS V14.00,2013-02-22 04:23:00,
2013-02-21 22:24:00,63.1,63.1,29.82,South,175,0.0,0.0,100,0.00,,,0.00,0.00,VWS V14.00,2013-02-22 04:24:00,
2013-02-21 22:25:00,63.1,63.1,29.82,South,174,0.0,0.0,100,0.00,,,0.00,0.00,VWS V14.00,2013-02-22 04:25:00,
2013-02-21 22:26:00,62.9,62.9,29.82,South,177,0.0,0.0,100,0.00,,,0.00,0.00,VWS V14.00,2013-02-22 04:26:00,
2013-02-21 22:27:00,62.9,62.9,29.82,South,177,0.0,0.0,100,0.00,,,0.00,0.00,VWS V14.00,2013-02-22 04:27:00,
2013-02-21 22:28:00,62.9,62.9,29.82,South,177,0.0,0.0,100,0.00,,,0.00,0.00,VWS V14.00,2013-02-22 04:28:00,
2013-02-21 22:29:00,62.9,62.9,29.82,South,178,0.0,0.0,100,0.00,,,0.00,0.00,VWS V14.00,2013-02-22 04:29:00,
2013-02-21 22:30:00,62.9,62.9,29.82,South,178,0.0,0.0,100,0.00,,,0.00,0.00,VWS V14.00,2013-02-22 04:30:00,
2013-02-21 22:31:00,62.9,62.9,29.82,South,178,0.0,0.0,100,0.00,,,0.00,0.00,VWS V14.00,2013-02-22 04:31:00,
2013-02-21 22:32:00,62.9,62.9,29.82,South,178,0.0,0.0,100,0.00,,,0.00,0.00,VWS V14.00,2013-02-22 04:32:00,
2013-02-21 22:33:00,62.9,62.9,29.82,South,183,0.0,0.0,100,0.00,,,0.00,0.00,VWS V14.00,2013-02-22 04:33:00,
2013-02-21 22:34:00,62.9,62.9,29.82,South,183,0.0,0.0,100,0.00,,,0.00,0.00,VWS V14.00,2013-02-22 04:34:00,
2013-02-21 22:35:00,62.9,62.9,29.82,South,183,0.0,0.0,100,0.00,,,0.00,0.00,VWS V14.00,2013-02-22 04:35:00,
2013-02-21 22:36:00,62.9,62.9,29.82,South,183,0.0,0.0,100,0.00,,,0.00,0.00,VWS V14.00,2013-02-22 04:36:00,
2013-02-21 22:37:00,62.9,62.9,29.82,South,183,0.0,0.0,100,0.00,,,0.00,0.00,VWS V14.00,2013-02-22 04:37:00,
2013-02-21 22:38:00,62.9,62.9,29.82,South,183,0.0,0.0,100,0.00,,,0.00,0.00,VWS V14.00,2013-02-22 04:38:00,
2013-02-21 22:39:00,62.9,62.9,29.82,South,183,0.0,0.0,100,0.00,,,0.00,0.00,VWS V14.00,2013-02-22 04:39:00,
2013-02-21 22:40:00,62.9,62.9,29.82,South,180,0.0,0.0,100,0.00,,,0.00,0.00,VWS V14.00,2013-02-22 04:40:00,
2013-02-21 22:41:00,62.9,62.9,29.82,South,180,0.0,0.0,100,0.00,,,0.00,0.00,VWS V14.00,2013-02-22 04:41:00,
2013-02-21 22:42:00,62.9,62.9,29.82,South,180,0.0,0.0,100,0.00,,,0.00,0.00,VWS V14.00,2013-02-22 04:42:00,
2013-02-21 22:43:00,62.9,62.9,29.82,South,182,0.0,0.0,100,0.00,,,0.00,0.00,VWS V14.00,2013-02-22 04:43:00,
2013-02-21 22:44:00,62.9,62.9,29.83,South,182,0.0,0.0,100,0.00,,,0.00,0.00,VWS V14.00,2013-02-22 04:44:00,
2013-02-21 22:45:00,62.9,62.9,29.83,South,182,0.0,0.0,100,0.00,,,0.00,0.00,VWS V14.00,2013-02-22 04:45:00,
2013-02-21 22:46:00,62.9,62.9,29.83,South,182,0.0,0.0,100,0.00,,,0.00,0.00,VWS V14.00,2013-02-22 04:46:00,
2013-02-21 22:47:00,62.9,62.9,29.83,South,182,0.0,0.0,100,0.00,,,0.00,0.00,VWS V14.00,2013-02-22 04:47:00,
2013-02-21 22:48:00,62.9,62.9,29.83,South,182,0.0,0.0,100,0.00,,,0.00,0.00,VWS V14.00,2013-02-22 04:48:00,
2013-02-21 22:49:00,62.7,62.7,29.83,South,182,0.0,0.0,100,0.00,,,0.00,0.00,VWS V14.00,2013-02-22 04:49:00,
2013-02-21 22:50:00,62.7,62.7,29.83,South,182,0.0,0.0,100,0.00,,,0.00,0.00,VWS V14.00,2013-02-22 04:50:00,
2013-02-21 22:51:00,62.7,62.7,29.83,SSE,153,0.0,0.0,100,0.00,,,0.00,0.00,VWS V14.00,2013-02-22 04:51:00,
2013-02-21 22:52:00,62.7,62.7,29.83,South,187,0.0,0.0,100,0.00,,,0.00,0.00,VWS V14.00,2013-02-22 04:52:00,
2013-02-21 22:53:00,62.7,62.7,29.83,South,187,0.0,0.0,100,0.00,,,0.00,0.00,VWS V14.00,2013-02-22 04:53:00,
2013-02-21 22:54:00,62.7,62.7,29.83,SSE,161,0.0,0.0,100,0.00,,,0.00,0.00,VWS V14.00,2013-02-22 04:54:00,
2013-02-21 22:55:00,62.9,62.9,29.83,SSE,161,0.0,0.0,100,0.00,,,0.00,0.00,VWS V14.00,2013-02-22 04:55:00,
2013-02-21 22:56:00,62.9,62.9,29.83,SSE,162,0.0,0.0,100,0.00,,,0.00,0.00,VWS V14.00,2013-02-22 04:56:00,
2013-02-21 22:57:00,62.9,62.9,29.83,SSE,163,0.0,0.0,100,0.00,,,0.00,0.00,VWS V14.00,2013-02-22 04:57:00,
2013-02-21 22:58:00,62.9,62.9,29.83,SSW,200,0.0,0.0,100,0.00,,,0.00,0.00,VWS V14.00,2013-02-22 04:58:00,
2013-02-21 22:59:00,62.9,62.9,29.83,SSW,194,0.0,0.0,100,0.00,,,0.00,0.00,VWS V14.00,2013-02-22 04:59:00,
2013-02-21 23:00:00,62.9,62.9,29.83,SSW,194,0.0,0.0,100,0.00,,,0.00,0.00,VWS V14.00,2013-02-22 05:00:00,
2013-02-21 23:01:00,62.9,62.9,29.83,SSW,194,0.0,0.0,100,0.00,,,0.00,0.00,VWS V14.00,2013-02-22 05:01:00,
2013-02-21 23:02:00,62.9,62.9,29.83,SSW,194,0.0,0.0,100,0.00,,,0.00,0.00,VWS V14.00,2013-02-22 05:02:00,
2013-02-21 23:03:00,62.9,62.9,29.83,SSW,194,0.0,0.0,100,0.00,,,0.00,0.00,VWS V14.00,2013-02-22 05:03:00,
2013-02-21 23:04:00,62.9,62.9,29.83,SSW,194,0.0,0.0,100,0.00,,,0.00,0.00,VWS V14.00,2013-02-22 05:04:00,
2013-02-21 23:05:00,62.7,62.7,29.83,South,188,0.0,0.0,100,0.00,,,0.00,0.00,VWS V14.00,2013-02-22 05:05:00,
2013-02-21 23:06:00,62.7,62.7,29.83,South,190,0.0,0.0,100,0.00,,,0.00,0.00,VWS V14.00,2013-02-22 05:06:00,
2013-02-21 23:07:00,62.7,62.7,29.83,South,190,0.0,0.0,100,0.00,,,0.00,0.00,VWS V14.00,2013-02-22 05:07:00,
2013-02-21 23:08:00,62.7,62.7,29.83,South,190,0.0,0.0,100,0.00,,,0.00,0.00,VWS V14.00,2013-02-22 05:08:00,
2013-02-21 23:09:00,62.7,62.7,29.83,South,190,0.0,0.0,100,0.00,,,0.00,0.00,VWS V14.00,2013-02-22 05:09:00,
2013-02-21 23:10:00,62.7,62.7,29.83,South,190,0.0,0.0,100,0.00,,,0.00,0.00,VWS V14.00,2013-02-22 05:10:00,
2013-02-21 23:11:00,62.7,62.7,29.83,South,190,0.0,0.0,100,0.00,,,0.00,0.00,VWS V14.00,2013-02-22 05:11:00,
2013-02-21 23:12:00,62.7,62.7,29.83,South,190,0.0,0.0,100,0.00,,,0.00,0.00,VWS V14.00,2013-02-22 05:12:00,
2013-02-21 23:13:00,62.7,62.7,29.83,South,189,0.0,0.0,100,0.00,,,0.00,0.00,VWS V14.00,2013-02-22 05:13:00,
2013-02-21 23:14:00,62.7,62.7,29.83,South,190,0.0,0.0,100,0.00,,,0.00,0.00,VWS V14.00,2013-02-22 05:14:00,
2013-02-21 23:15:00,62.7,62.7,29.83,SW,222,0.0,0.0,100,0.00,,,0.00,0.00,VWS V14.00,2013-02-22 05:15:00,
2013-02-21 23:16:00,62.7,62.7,29.83,SW,222,0.0,0.0,100,0.00,,,0.00,0.00,VWS V14.00,2013-02-22 05:16:00,
2013-02-21 23:17:00,62.7,62.7,29.83,SW,222,0.0,0.0,100,0.00,,,0.00,0.00,VWS V14.00,2013-02-22 05:17:00,
2013-02-21 23:18:00,62.7,62.7,29.83,South,188,0.0,0.0,100,0.00,,,0.00,0.00,VWS V14.00,2013-02-22 05:18:00,
2013-02-21 23:19:00,62.7,62.7,29.83,South,190,0.0,0.0,100,0.00,,,0.00,0.00,VWS V14.00,2013-02-22 05:19:00,
2013-02-21 23:20:00,62.7,62.7,29.83,South,190,0.0,0.0,100,0.00,,,0.00,0.00,VWS V14.00,2013-02-22 05:20:00,
2013-02-21 23:21:00,62.7,62.7,29.83,South,190,0.0,0.0,100,0.00,,,0.00,0.00,VWS V14.00,2013-02-22 05:21:00,
2013-02-21 23:22:00,62.7,62.7,29.83,South,190,0.0,0.0,100,0.00,,,0.00,0.00,VWS V14.00,2013-02-22 05:22:00,
2013-02-21 23:23:00,62.7,62.7,29.83,South,190,0.0,0.0,100,0.00,,,0.00,0.00,VWS V14.00,2013-02-22 05:23:00,
2013-02-21 23:24:00,62.7,62.7,29.83,South,188,0.0,0.0,100,0.00,,,0.00,0.00,VWS V14.00,2013-02-22 05:24:00,
2013-02-21 23:25:00,62.7,62.7,29.83,South,188,0.0,0.0,100,0.00,,,0.00,0.00,VWS V14.00,2013-02-22 05:25:00,
2013-02-21 23:26:00,62.7,62.7,29.83,South,189,0.0,0.0,100,0.00,,,0.00,0.00,VWS V14.00,2013-02-22 05:26:00,
2013-02-21 23:27:00,62.7,62.7,29.83,South,184,0.0,0.0,100,0.00,,,0.00,0.00,VWS V14.00,2013-02-22 05:27:00,
2013-02-21 23:28:00,62.7,62.7,29.83,South,186,0.0,0.0,100,0.00,,,0.00,0.00,VWS V14.00,2013-02-22 05:28:00,
2013-02-21 23:29:00,62.7,62.7,29.83,South,186,0.0,0.0,100,0.00,,,0.00,0.00,VWS V14.00,2013-02-22 05:29:00,
2013-02-21 23:30:00,62.9,62.9,29.82,South,186,0.0,0.0,100,0.00,,,0.00,0.00,VWS V14.00,2013-02-22 05:30:00,
2013-02-21 23:31:00,62.9,62.9,29.82,South,186,0.0,0.0,100,0.00,,,0.00,0.00,VWS V14.00,2013-02-22 05:31:00,
2013-02-21 23:32:00,62.9,62.9,29.82,South,186,0.0,0.0,100,0.00,,,0.00,0.00,VWS V14.00,2013-02-22 05:32:00,
2013-02-21 23:33:00,62.9,62.9,29.82,South,186,0.0,0.0,100,0.00,,,0.00,0.00,VWS V14.00,2013-02-22 05:33:00,
2013-02-21 23:34:00,62.9,62.9,29.82,South,186,0.0,0.0,100,0.00,,,0.00,0.00,VWS V14.00,2013-02-22 05:34:00,
2013-02-21 23:35:00,62.9,62.9,29.82,South,183,0.0,0.0,100,0.00,,,0.00,0.00,VWS V14.00,2013-02-22 05:35:00,
2013-02-21 23:36:00,62.9,62.9,29.82,South,183,0.0,0.0,100,0.00,,,0.00,0.00,VWS V14.00,2013-02-22 05:36:00,
2013-02-21 23:37:00,62.9,62.9,29.82,South,183,0.0,0.0,100,0.00,,,0.00,0.00,VWS V14.00,2013-02-22 05:37:00,
2013-02-21 23:38:00,62.9,62.9,29.82,South,183,0.0,0.0,100,0.00,,,0.00,0.00,VWS V14.00,2013-02-22 05:38:00,
2013-02-21 23:39:00,62.9,62.9,29.82,South,184,0.0,0.0,100,0.00,,,0.00,0.00,VWS V14.00,2013-02-22 05:39:00,
2013-02-21 23:40:00,62.9,62.9,29.82,South,184,0.0,0.0,100,0.00,,,0.00,0.00,VWS V14.00,2013-02-22 05:40:00,
2013-02-21 23:41:00,62.9,62.9,29.82,South,184,0.0,0.0,100,0.00,,,0.00,0.00,VWS V14.00,2013-02-22 05:41:00,
2013-02-21 23:42:00,62.9,62.9,29.82,South,179,0.0,0.0,100,0.00,,,0.00,0.00,VWS V14.00,2013-02-22 05:42:00,
2013-02-21 23:43:00,62.9,62.9,29.82,South,179,0.0,0.0,100,0.00,,,0.00,0.00,VWS V14.00,2013-02-22 05:43:00,
2013-02-21 23:44:00,62.7,62.7,29.80,South,182,0.0,0.0,100,0.00,,,0.00,0.00,VWS V14.00,2013-02-22 05:44:00,
2013-02-21 23:45:00,62.7,62.7,29.80,South,182,0.0,0.0,100,0.00,,,0.00,0.00,VWS V14.00,2013-02-22 05:45:00,
2013-02-21 23:46:00,62.7,62.7,29.80,South,182,0.0,0.0,100,0.00,,,0.00,0.00,VWS V14.00,2013-02-22 05:46:00,
2013-02-21 23:47:00,62.7,62.7,29.80,South,182,0.0,0.0,100,0.00,,,0.00,0.00,VWS V14.00,2013-02-22 05:47:00,
2013-02-21 23:48:00,62.7,62.7,29.80,South,182,0.0,0.0,100,0.00,,,0.00,0.00,VWS V14.00,2013-02-22 05:48:00,
2013-02-21 23:49:00,62.7,62.7,29.80,South,182,0.0,0.0,100,0.00,,,0.00,0.00,VWS V14.00,2013-02-22 05:49:00,
2013-02-21 23:50:00,62.7,62.7,29.80,South,182,0.0,0.0,100,0.00,,,0.00,0.00,VWS V14.00,2013-02-22 05:50:00,
2013-02-21 23:51:00,62.7,62.7,29.80,South,184,0.0,0.0,100,0.00,,,0.00,0.00,VWS V14.00,2013-02-22 05:51:00,
2013-02-21 23:52:00,62.7,62.7,29.80,South,184,0.0,0.0,100,0.00,,,0.00,0.00,VWS V14.00,2013-02-22 05:52:00,
2013-02-21 23:53:00,62.7,62.7,29.80,South,184,0.0,0.0,100,0.00,,,0.00,0.00,VWS V14.00,2013-02-22 05:53:00,
2013-02-21 23:54:00,62.7,62.7,29.80,South,183,0.0,0.0,100,0.00,,,0.00,0.00,VWS V14.00,2013-02-22 05:54:00,
2013-02-21 23:55:00,62.7,62.7,29.80,South,183,0.0,0.0,100,0.00,,,0.00,0.00,VWS V14.00,2013-02-22 05:55:00,
2013-02-21 23:56:00,62.9,62.9,29.80,South,184,0.0,0.0,100,0.00,,,0.00,0.00,VWS V14.00,2013-02-22 05:56:00,
2013-02-21 23:57:00,62.9,62.9,29.80,South,184,0.0,0.0,100,0.00,,,0.00,0.00,VWS V14.00,2013-02-22 05:57:00,
2013-02-21 23:58:00,62.9,62.9,29.80,South,184,0.0,0.0,100,0.00,,,0.00,0.00,VWS V14.00,2013-02-22 05:58:00,
2013-02-21 23:59:00,62.9,62.9,29.80,South,185,0.0,0.0,100,0.00,,,0.00,0.00,VWS V14.00,2013-02-22 05:59:00,